<?xml version="1.0" encoding="UTF-8" standalone="no" ?>
<gpx xmlns="http://www.topografix.com/GPX/1/1" xmlns:xsi="http://www.w3.org/2001/XMLSchema-instance" xsi:schemaLocation="http://www.topografix.com/GPX/1/1 http://www.topografix.com/GPX/1/1/gpx.xsd" version="1.1" creator="VisuGPX - https://www.visugpx.com">
  <metadata>
    <name>Pont de Salars - Salmiech</name>
    <desc><![CDATA[J3]]></desc>
  </metadata>
  <wpt lat="44.1822" lon="2.57509">
    <ele>613.1</ele>
    <name><![CDATA[CE21 CE de salmiech]]></name>
    <desc><![CDATA[dortoir]]></desc>
    <cmt><![CDATA[05 65 74 27 09]]></cmt>
    <type><![CDATA[hotel]]></type>
  </wpt>
  <wpt lat="44.1875" lon="3.29993">
    <ele>863.3</ele>
    <name><![CDATA[auberge de Cadenas]]></name>
    <cmt><![CDATA[05 65 71 42 70   - 39 lits
on un parc mais non cloturé]]></cmt>
    <type><![CDATA[hotel]]></type>
    <extensions>
      <visugpx:TrackPointExtension xmlns:visugpx="https://www.visugpx.com/editgpx/">
        <visugpx:dec>0,0</visugpx:dec>
      </visugpx:TrackPointExtension>
    </extensions>
  </wpt>
  <wpt lat="44.29295" lon="2.72564">
    <ele>714</ele>
    <type><![CDATA[hotel]]></type>
  </wpt>
  <trk>
    <name><![CDATA[J3 Anse du Lac - Capueval]]></name>
    <desc><![CDATA[]]></desc>
    <trkseg>
      <trkpt lat="44.18111" lon="2.57669">
        <ele>604.81</ele>
        <time>2025-09-17T16:32:46Z</time>
        <extensions>
          <visugpx:TrkExtension xmlns:visugpx="https://www.visugpx.com/editgpx/">
            <visugpx:node>1</visugpx:node>
            </visugpx:TrkExtension>
        </extensions>
      </trkpt>
      <trkpt lat="44.18113" lon="2.57669">
        <ele>601.44</ele>
        <time>2025-09-17T16:32:30Z</time>
      </trkpt>
      <trkpt lat="44.18107" lon="2.57673">
        <ele>600.96</ele>
        <time>2025-09-17T16:32:12Z</time>
      </trkpt>
      <trkpt lat="44.18112" lon="2.57671">
        <ele>600.96</ele>
        <time>2025-09-17T16:31:51Z</time>
      </trkpt>
      <trkpt lat="44.18112" lon="2.57674">
        <ele>602.4</ele>
        <time>2025-09-17T16:31:21Z</time>
      </trkpt>
      <trkpt lat="44.18114" lon="2.57675">
        <ele>600.96</ele>
        <time>2025-09-17T16:31:03Z</time>
      </trkpt>
      <trkpt lat="44.18125" lon="2.57683">
        <ele>600.48</ele>
        <time>2025-09-17T16:30:47Z</time>
      </trkpt>
      <trkpt lat="44.18127" lon="2.57687">
        <ele>600</ele>
        <time>2025-09-17T16:30:44Z</time>
      </trkpt>
      <trkpt lat="44.18137" lon="2.57696">
        <ele>598.08</ele>
        <time>2025-09-17T16:30:31Z</time>
      </trkpt>
      <trkpt lat="44.18148" lon="2.57706">
        <ele>597.6</ele>
        <time>2025-09-17T16:30:15Z</time>
      </trkpt>
      <trkpt lat="44.18148" lon="2.5771">
        <ele>597.6</ele>
        <time>2025-09-17T16:30:13Z</time>
      </trkpt>
      <trkpt lat="44.1815" lon="2.57733">
        <ele>597.6</ele>
        <time>2025-09-17T16:29:58Z</time>
      </trkpt>
      <trkpt lat="44.18153" lon="2.57751">
        <ele>598.56</ele>
        <time>2025-09-17T16:29:45Z</time>
      </trkpt>
      <trkpt lat="44.18156" lon="2.57773">
        <ele>600.48</ele>
        <time>2025-09-17T16:29:31Z</time>
      </trkpt>
      <trkpt lat="44.1816" lon="2.57793">
        <ele>600.96</ele>
        <time>2025-09-17T16:29:15Z</time>
      </trkpt>
      <trkpt lat="44.18157" lon="2.57795">
        <ele>603.36</ele>
        <time>2025-09-17T16:29:03Z</time>
      </trkpt>
      <trkpt lat="44.1816" lon="2.578">
        <ele>606.73</ele>
        <time>2025-09-17T16:28:52Z</time>
      </trkpt>
      <trkpt lat="44.18155" lon="2.578">
        <ele>610.57</ele>
        <time>2025-09-17T16:28:40Z</time>
      </trkpt>
      <trkpt lat="44.18151" lon="2.57809">
        <ele>612.5</ele>
        <time>2025-09-17T16:28:28Z</time>
      </trkpt>
      <trkpt lat="44.18152" lon="2.57811">
        <ele>612.98</ele>
        <time>2025-09-17T16:28:27Z</time>
      </trkpt>
      <trkpt lat="44.18153" lon="2.57813">
        <ele>612.98</ele>
        <time>2025-09-17T16:28:26Z</time>
      </trkpt>
      <trkpt lat="44.18155" lon="2.57824">
        <ele>613.46</ele>
        <time>2025-09-17T16:28:20Z</time>
      </trkpt>
      <trkpt lat="44.18158" lon="2.57845">
        <ele>615.86</ele>
        <time>2025-09-17T16:28:06Z</time>
      </trkpt>
      <trkpt lat="44.18157" lon="2.57865">
        <ele>615.38</ele>
        <time>2025-09-17T16:27:52Z</time>
      </trkpt>
      <trkpt lat="44.18157" lon="2.57878">
        <ele>616.82</ele>
        <time>2025-09-17T16:27:40Z</time>
      </trkpt>
      <trkpt lat="44.18155" lon="2.57879">
        <ele>618.26</ele>
        <time>2025-09-17T16:27:26Z</time>
      </trkpt>
      <trkpt lat="44.1815" lon="2.57883">
        <ele>622.11</ele>
        <time>2025-09-17T16:27:13Z</time>
      </trkpt>
      <trkpt lat="44.1815" lon="2.57884">
        <ele>622.11</ele>
        <time>2025-09-17T16:27:12Z</time>
      </trkpt>
      <trkpt lat="44.1815" lon="2.57886">
        <ele>622.59</ele>
        <time>2025-09-17T16:27:11Z</time>
      </trkpt>
      <trkpt lat="44.18147" lon="2.57888">
        <ele>623.55</ele>
        <time>2025-09-17T16:27:07Z</time>
      </trkpt>
      <trkpt lat="44.18146" lon="2.57888">
        <ele>624.03</ele>
        <time>2025-09-17T16:27:06Z</time>
      </trkpt>
      <trkpt lat="44.18137" lon="2.5789">
        <ele>627.4</ele>
        <time>2025-09-17T16:26:54Z</time>
      </trkpt>
      <trkpt lat="44.18135" lon="2.57893">
        <ele>627.88</ele>
        <time>2025-09-17T16:26:51Z</time>
      </trkpt>
      <trkpt lat="44.18116" lon="2.57902">
        <ele>629.8</ele>
        <time>2025-09-17T16:26:35Z</time>
      </trkpt>
      <trkpt lat="44.18085" lon="2.57898">
        <ele>637.97</ele>
        <time>2025-09-17T16:26:16Z</time>
      </trkpt>
      <trkpt lat="44.18044" lon="2.57922">
        <ele>648.55</ele>
        <time>2025-09-17T16:25:58Z</time>
      </trkpt>
      <trkpt lat="44.18032" lon="2.57945">
        <ele>645.18</ele>
        <time>2025-09-17T16:25:44Z</time>
      </trkpt>
      <trkpt lat="44.18019" lon="2.57967">
        <ele>639.89</ele>
        <time>2025-09-17T16:25:28Z</time>
      </trkpt>
      <trkpt lat="44.18018" lon="2.57969">
        <ele>639.41</ele>
        <time>2025-09-17T16:25:27Z</time>
      </trkpt>
      <trkpt lat="44.18015" lon="2.57975">
        <ele>639.41</ele>
        <time>2025-09-17T16:25:22Z</time>
      </trkpt>
      <trkpt lat="44.17998" lon="2.58002">
        <ele>650.95</ele>
        <time>2025-09-17T16:25:08Z</time>
      </trkpt>
      <trkpt lat="44.17987" lon="2.58044">
        <ele>669.22</ele>
        <time>2025-09-17T16:24:52Z</time>
      </trkpt>
      <trkpt lat="44.17986" lon="2.58047">
        <ele>670.66</ele>
        <time>2025-09-17T16:24:51Z</time>
      </trkpt>
      <trkpt lat="44.17985" lon="2.58049">
        <ele>670.18</ele>
        <time>2025-09-17T16:24:50Z</time>
      </trkpt>
      <trkpt lat="44.17981" lon="2.58056">
        <ele>670.18</ele>
        <time>2025-09-17T16:24:44Z</time>
      </trkpt>
      <trkpt lat="44.17968" lon="2.58093">
        <ele>678.83</ele>
        <time>2025-09-17T16:24:30Z</time>
      </trkpt>
      <trkpt lat="44.17959" lon="2.58116">
        <ele>681.71</ele>
        <time>2025-09-17T16:24:20Z</time>
      </trkpt>
      <trkpt lat="44.17949" lon="2.58143">
        <ele>682.67</ele>
        <time>2025-09-17T16:24:08Z</time>
      </trkpt>
      <trkpt lat="44.1794" lon="2.58175">
        <ele>681.71</ele>
        <time>2025-09-17T16:23:53Z</time>
      </trkpt>
      <trkpt lat="44.17932" lon="2.58201">
        <ele>682.67</ele>
        <time>2025-09-17T16:23:39Z</time>
      </trkpt>
      <trkpt lat="44.17922" lon="2.58229">
        <ele>685.56</ele>
        <time>2025-09-17T16:23:26Z</time>
      </trkpt>
      <trkpt lat="44.17905" lon="2.58254">
        <ele>683.63</ele>
        <time>2025-09-17T16:23:10Z</time>
      </trkpt>
      <trkpt lat="44.17892" lon="2.58274">
        <ele>679.31</ele>
        <time>2025-09-17T16:22:56Z</time>
      </trkpt>
      <trkpt lat="44.17879" lon="2.58295">
        <ele>678.35</ele>
        <time>2025-09-17T16:22:41Z</time>
      </trkpt>
      <trkpt lat="44.1787" lon="2.58318">
        <ele>675.94</ele>
        <time>2025-09-17T16:22:27Z</time>
      </trkpt>
      <trkpt lat="44.17863" lon="2.58353">
        <ele>673.54</ele>
        <time>2025-09-17T16:22:10Z</time>
      </trkpt>
      <trkpt lat="44.17861" lon="2.58366">
        <ele>670.18</ele>
        <time>2025-09-17T16:21:56Z</time>
      </trkpt>
      <trkpt lat="44.17865" lon="2.58383">
        <ele>667.29</ele>
        <time>2025-09-17T16:21:43Z</time>
      </trkpt>
      <trkpt lat="44.17863" lon="2.58413">
        <ele>663.45</ele>
        <time>2025-09-17T16:21:28Z</time>
      </trkpt>
      <trkpt lat="44.1786" lon="2.58424">
        <ele>660.56</ele>
        <time>2025-09-17T16:21:20Z</time>
      </trkpt>
      <trkpt lat="44.17857" lon="2.58455">
        <ele>661.52</ele>
        <time>2025-09-17T16:21:05Z</time>
      </trkpt>
      <trkpt lat="44.1786" lon="2.58478">
        <ele>659.6</ele>
        <time>2025-09-17T16:20:50Z</time>
      </trkpt>
      <trkpt lat="44.17862" lon="2.5851">
        <ele>652.39</ele>
        <time>2025-09-17T16:20:34Z</time>
      </trkpt>
      <trkpt lat="44.17864" lon="2.58534">
        <ele>646.14</ele>
        <time>2025-09-17T16:20:19Z</time>
      </trkpt>
      <trkpt lat="44.17866" lon="2.58567">
        <ele>645.66</ele>
        <time>2025-09-17T16:20:02Z</time>
      </trkpt>
      <trkpt lat="44.17867" lon="2.58599">
        <ele>642.3</ele>
        <time>2025-09-17T16:19:46Z</time>
      </trkpt>
      <trkpt lat="44.1787" lon="2.58625">
        <ele>637.01</ele>
        <time>2025-09-17T16:19:32Z</time>
      </trkpt>
      <trkpt lat="44.17872" lon="2.58655">
        <ele>632.68</ele>
        <time>2025-09-17T16:19:14Z</time>
      </trkpt>
      <trkpt lat="44.17873" lon="2.58657">
        <ele>632.68</ele>
        <time>2025-09-17T16:19:13Z</time>
      </trkpt>
      <trkpt lat="44.17876" lon="2.58663">
        <ele>633.65</ele>
        <time>2025-09-17T16:19:07Z</time>
      </trkpt>
      <trkpt lat="44.17879" lon="2.58674">
        <ele>634.13</ele>
        <time>2025-09-17T16:19:00Z</time>
      </trkpt>
      <trkpt lat="44.17882" lon="2.58694">
        <ele>635.09</ele>
        <time>2025-09-17T16:18:48Z</time>
      </trkpt>
      <trkpt lat="44.17883" lon="2.58697">
        <ele>635.09</ele>
        <time>2025-09-17T16:18:46Z</time>
      </trkpt>
      <trkpt lat="44.17884" lon="2.58707">
        <ele>635.57</ele>
        <time>2025-09-17T16:18:29Z</time>
      </trkpt>
      <trkpt lat="44.17884" lon="2.58715">
        <ele>635.57</ele>
        <time>2025-09-17T16:18:16Z</time>
      </trkpt>
      <trkpt lat="44.17885" lon="2.58714">
        <ele>637.49</ele>
        <time>2025-09-17T16:18:02Z</time>
      </trkpt>
      <trkpt lat="44.17885" lon="2.58716">
        <ele>638.45</ele>
        <time>2025-09-17T16:17:48Z</time>
      </trkpt>
      <trkpt lat="44.17882" lon="2.58728">
        <ele>640.38</ele>
        <time>2025-09-17T16:17:35Z</time>
      </trkpt>
      <trkpt lat="44.17879" lon="2.58768">
        <ele>646.14</ele>
        <time>2025-09-17T16:17:18Z</time>
      </trkpt>
      <trkpt lat="44.17879" lon="2.5877">
        <ele>646.14</ele>
        <time>2025-09-17T16:17:17Z</time>
      </trkpt>
      <trkpt lat="44.17879" lon="2.58794">
        <ele>649.99</ele>
        <time>2025-09-17T16:17:06Z</time>
      </trkpt>
      <trkpt lat="44.17877" lon="2.58801">
        <ele>651.43</ele>
        <time>2025-09-17T16:17:03Z</time>
      </trkpt>
      <trkpt lat="44.17869" lon="2.58832">
        <ele>656.72</ele>
        <time>2025-09-17T16:16:48Z</time>
      </trkpt>
      <trkpt lat="44.17856" lon="2.58867">
        <ele>656.24</ele>
        <time>2025-09-17T16:16:31Z</time>
      </trkpt>
      <trkpt lat="44.17845" lon="2.58891">
        <ele>645.18</ele>
        <time>2025-09-17T16:16:14Z</time>
      </trkpt>
      <trkpt lat="44.17834" lon="2.58924">
        <ele>636.05</ele>
        <time>2025-09-17T16:15:55Z</time>
      </trkpt>
      <trkpt lat="44.17825" lon="2.58952">
        <ele>630.76</ele>
        <time>2025-09-17T16:15:39Z</time>
      </trkpt>
      <trkpt lat="44.17823" lon="2.58969">
        <ele>631.24</ele>
        <time>2025-09-17T16:15:24Z</time>
      </trkpt>
      <trkpt lat="44.17824" lon="2.58991">
        <ele>633.17</ele>
        <time>2025-09-17T16:15:11Z</time>
      </trkpt>
      <trkpt lat="44.17838" lon="2.5902">
        <ele>636.53</ele>
        <time>2025-09-17T16:14:53Z</time>
      </trkpt>
      <trkpt lat="44.17846" lon="2.59043">
        <ele>638.45</ele>
        <time>2025-09-17T16:14:38Z</time>
      </trkpt>
      <trkpt lat="44.17851" lon="2.59074">
        <ele>642.3</ele>
        <time>2025-09-17T16:14:21Z</time>
      </trkpt>
      <trkpt lat="44.17854" lon="2.59092">
        <ele>645.18</ele>
        <time>2025-09-17T16:14:07Z</time>
      </trkpt>
      <trkpt lat="44.17855" lon="2.59117">
        <ele>649.51</ele>
        <time>2025-09-17T16:13:52Z</time>
      </trkpt>
      <trkpt lat="44.17855" lon="2.59144">
        <ele>651.91</ele>
        <time>2025-09-17T16:13:36Z</time>
      </trkpt>
      <trkpt lat="44.17861" lon="2.59176">
        <ele>652.87</ele>
        <time>2025-09-17T16:13:19Z</time>
      </trkpt>
      <trkpt lat="44.17864" lon="2.59197">
        <ele>656.24</ele>
        <time>2025-09-17T16:13:05Z</time>
      </trkpt>
      <trkpt lat="44.17866" lon="2.59229">
        <ele>659.12</ele>
        <time>2025-09-17T16:12:48Z</time>
      </trkpt>
      <trkpt lat="44.17866" lon="2.59256">
        <ele>659.12</ele>
        <time>2025-09-17T16:12:33Z</time>
      </trkpt>
      <trkpt lat="44.17862" lon="2.59282">
        <ele>660.56</ele>
        <time>2025-09-17T16:12:19Z</time>
      </trkpt>
      <trkpt lat="44.17862" lon="2.59284">
        <ele>661.04</ele>
        <time>2025-09-17T16:12:18Z</time>
      </trkpt>
      <trkpt lat="44.17861" lon="2.59286">
        <ele>661.04</ele>
        <time>2025-09-17T16:12:17Z</time>
      </trkpt>
      <trkpt lat="44.17855" lon="2.59312">
        <ele>661.04</ele>
        <time>2025-09-17T16:12:05Z</time>
      </trkpt>
      <trkpt lat="44.17846" lon="2.59342">
        <ele>662.01</ele>
        <time>2025-09-17T16:11:45Z</time>
      </trkpt>
      <trkpt lat="44.17836" lon="2.59372">
        <ele>662.49</ele>
        <time>2025-09-17T16:11:27Z</time>
      </trkpt>
      <trkpt lat="44.17828" lon="2.59401">
        <ele>661.52</ele>
        <time>2025-09-17T16:11:10Z</time>
      </trkpt>
      <trkpt lat="44.17819" lon="2.59425">
        <ele>662.97</ele>
        <time>2025-09-17T16:10:55Z</time>
      </trkpt>
      <trkpt lat="44.17818" lon="2.59426">
        <ele>662.97</ele>
        <time>2025-09-17T16:10:54Z</time>
      </trkpt>
      <trkpt lat="44.17807" lon="2.59432">
        <ele>663.93</ele>
        <time>2025-09-17T16:10:46Z</time>
      </trkpt>
      <trkpt lat="44.17796" lon="2.59432">
        <ele>662.49</ele>
        <time>2025-09-17T16:10:37Z</time>
      </trkpt>
      <trkpt lat="44.17774" lon="2.59438">
        <ele>662.01</ele>
        <time>2025-09-17T16:10:18Z</time>
      </trkpt>
      <trkpt lat="44.1777" lon="2.5944">
        <ele>662.01</ele>
        <time>2025-09-17T16:10:11Z</time>
      </trkpt>
      <trkpt lat="44.17767" lon="2.59444">
        <ele>663.93</ele>
        <time>2025-09-17T16:09:46Z</time>
      </trkpt>
      <trkpt lat="44.17773" lon="2.59442">
        <ele>662.97</ele>
        <time>2025-09-17T16:09:33Z</time>
      </trkpt>
      <trkpt lat="44.17775" lon="2.59441">
        <ele>662.49</ele>
        <time>2025-09-17T16:09:31Z</time>
      </trkpt>
      <trkpt lat="44.17795" lon="2.59438">
        <ele>662.01</ele>
        <time>2025-09-17T16:09:14Z</time>
      </trkpt>
      <trkpt lat="44.17803" lon="2.59438">
        <ele>661.52</ele>
        <time>2025-09-17T16:08:59Z</time>
      </trkpt>
      <trkpt lat="44.17806" lon="2.59441">
        <ele>660.56</ele>
        <time>2025-09-17T16:08:48Z</time>
      </trkpt>
      <trkpt lat="44.17808" lon="2.59443">
        <ele>660.08</ele>
        <time>2025-09-17T16:08:46Z</time>
      </trkpt>
      <trkpt lat="44.17809" lon="2.59444">
        <ele>659.6</ele>
        <time>2025-09-17T16:08:44Z</time>
      </trkpt>
      <trkpt lat="44.17822" lon="2.59461">
        <ele>658.64</ele>
        <time>2025-09-17T16:08:29Z</time>
      </trkpt>
      <trkpt lat="44.1783" lon="2.59489">
        <ele>653.35</ele>
        <time>2025-09-17T16:08:12Z</time>
      </trkpt>
      <trkpt lat="44.17827" lon="2.59517">
        <ele>650.95</ele>
        <time>2025-09-17T16:07:55Z</time>
      </trkpt>
      <trkpt lat="44.17811" lon="2.59545">
        <ele>651.43</ele>
        <time>2025-09-17T16:07:35Z</time>
      </trkpt>
      <trkpt lat="44.17792" lon="2.59561">
        <ele>651.91</ele>
        <time>2025-09-17T16:07:19Z</time>
      </trkpt>
      <trkpt lat="44.17765" lon="2.59579">
        <ele>650.47</ele>
        <time>2025-09-17T16:06:58Z</time>
      </trkpt>
      <trkpt lat="44.17743" lon="2.59601">
        <ele>642.3</ele>
        <time>2025-09-17T16:06:39Z</time>
      </trkpt>
      <trkpt lat="44.17718" lon="2.59628">
        <ele>638.93</ele>
        <time>2025-09-17T16:06:18Z</time>
      </trkpt>
      <trkpt lat="44.17707" lon="2.59657">
        <ele>635.09</ele>
        <time>2025-09-17T16:06:00Z</time>
      </trkpt>
      <trkpt lat="44.17689" lon="2.5968">
        <ele>634.61</ele>
        <time>2025-09-17T16:05:42Z</time>
      </trkpt>
      <trkpt lat="44.17678" lon="2.59702">
        <ele>635.57</ele>
        <time>2025-09-17T16:05:26Z</time>
      </trkpt>
      <trkpt lat="44.17665" lon="2.59727">
        <ele>635.57</ele>
        <time>2025-09-17T16:05:09Z</time>
      </trkpt>
      <trkpt lat="44.17648" lon="2.59751">
        <ele>637.01</ele>
        <time>2025-09-17T16:04:52Z</time>
      </trkpt>
      <trkpt lat="44.17644" lon="2.59763">
        <ele>636.05</ele>
        <time>2025-09-17T16:04:43Z</time>
      </trkpt>
      <trkpt lat="44.17634" lon="2.59797">
        <ele>634.13</ele>
        <time>2025-09-17T16:04:24Z</time>
      </trkpt>
      <trkpt lat="44.17628" lon="2.59817">
        <ele>627.88</ele>
        <time>2025-09-17T16:04:08Z</time>
      </trkpt>
      <trkpt lat="44.17622" lon="2.5984">
        <ele>627.4</ele>
        <time>2025-09-17T16:03:55Z</time>
      </trkpt>
      <trkpt lat="44.1761" lon="2.59872">
        <ele>628.36</ele>
        <time>2025-09-17T16:03:38Z</time>
      </trkpt>
      <trkpt lat="44.17602" lon="2.59899">
        <ele>629.8</ele>
        <time>2025-09-17T16:03:23Z</time>
      </trkpt>
      <trkpt lat="44.17591" lon="2.59932">
        <ele>629.8</ele>
        <time>2025-09-17T16:03:05Z</time>
      </trkpt>
      <trkpt lat="44.17586" lon="2.59956">
        <ele>631.72</ele>
        <time>2025-09-17T16:02:48Z</time>
      </trkpt>
      <trkpt lat="44.17581" lon="2.59983">
        <ele>633.17</ele>
        <time>2025-09-17T16:02:32Z</time>
      </trkpt>
      <trkpt lat="44.1758" lon="2.59985">
        <ele>633.17</ele>
        <time>2025-09-17T16:02:31Z</time>
      </trkpt>
      <trkpt lat="44.1758" lon="2.59987">
        <ele>633.65</ele>
        <time>2025-09-17T16:02:30Z</time>
      </trkpt>
      <trkpt lat="44.17579" lon="2.5999">
        <ele>633.65</ele>
        <time>2025-09-17T16:02:29Z</time>
      </trkpt>
      <trkpt lat="44.17579" lon="2.59992">
        <ele>633.65</ele>
        <time>2025-09-17T16:02:28Z</time>
      </trkpt>
      <trkpt lat="44.1758" lon="2.59995">
        <ele>634.13</ele>
        <time>2025-09-17T16:02:26Z</time>
      </trkpt>
      <trkpt lat="44.1758" lon="2.59997">
        <ele>634.61</ele>
        <time>2025-09-17T16:02:25Z</time>
      </trkpt>
      <trkpt lat="44.1759" lon="2.6001">
        <ele>635.57</ele>
        <time>2025-09-17T16:02:13Z</time>
      </trkpt>
      <trkpt lat="44.17608" lon="2.60029">
        <ele>636.53</ele>
        <time>2025-09-17T16:01:56Z</time>
      </trkpt>
      <trkpt lat="44.17625" lon="2.60047">
        <ele>638.45</ele>
        <time>2025-09-17T16:01:39Z</time>
      </trkpt>
      <trkpt lat="44.17647" lon="2.60069">
        <ele>640.38</ele>
        <time>2025-09-17T16:01:19Z</time>
      </trkpt>
      <trkpt lat="44.17665" lon="2.60087">
        <ele>641.34</ele>
        <time>2025-09-17T16:01:02Z</time>
      </trkpt>
      <trkpt lat="44.17682" lon="2.60107">
        <ele>641.34</ele>
        <time>2025-09-17T16:00:45Z</time>
      </trkpt>
      <trkpt lat="44.17705" lon="2.60139">
        <ele>645.18</ele>
        <time>2025-09-17T16:00:24Z</time>
      </trkpt>
      <trkpt lat="44.17706" lon="2.6014">
        <ele>645.18</ele>
        <time>2025-09-17T16:00:23Z</time>
      </trkpt>
      <trkpt lat="44.17714" lon="2.60156">
        <ele>646.62</ele>
        <time>2025-09-17T16:00:13Z</time>
      </trkpt>
      <trkpt lat="44.17721" lon="2.60192">
        <ele>650.95</ele>
        <time>2025-09-17T15:59:53Z</time>
      </trkpt>
      <trkpt lat="44.17723" lon="2.60212">
        <ele>652.87</ele>
        <time>2025-09-17T15:59:40Z</time>
      </trkpt>
      <trkpt lat="44.17727" lon="2.60246">
        <ele>654.8</ele>
        <time>2025-09-17T15:59:22Z</time>
      </trkpt>
      <trkpt lat="44.17731" lon="2.60284">
        <ele>658.16</ele>
        <time>2025-09-17T15:59:04Z</time>
      </trkpt>
      <trkpt lat="44.17735" lon="2.60321">
        <ele>659.6</ele>
        <time>2025-09-17T15:58:45Z</time>
      </trkpt>
      <trkpt lat="44.17737" lon="2.60351">
        <ele>663.45</ele>
        <time>2025-09-17T15:58:30Z</time>
      </trkpt>
      <trkpt lat="44.17743" lon="2.60393">
        <ele>666.81</ele>
        <time>2025-09-17T15:58:11Z</time>
      </trkpt>
      <trkpt lat="44.17748" lon="2.60429">
        <ele>667.77</ele>
        <time>2025-09-17T15:57:52Z</time>
      </trkpt>
      <trkpt lat="44.17753" lon="2.60462">
        <ele>669.22</ele>
        <time>2025-09-17T15:57:34Z</time>
      </trkpt>
      <trkpt lat="44.17755" lon="2.60473">
        <ele>670.18</ele>
        <time>2025-09-17T15:57:27Z</time>
      </trkpt>
      <trkpt lat="44.1776" lon="2.60503">
        <ele>672.58</ele>
        <time>2025-09-17T15:57:11Z</time>
      </trkpt>
      <trkpt lat="44.17768" lon="2.60535">
        <ele>672.1</ele>
        <time>2025-09-17T15:56:52Z</time>
      </trkpt>
      <trkpt lat="44.17771" lon="2.6054">
        <ele>672.58</ele>
        <time>2025-09-17T15:56:48Z</time>
      </trkpt>
      <trkpt lat="44.17771" lon="2.60542">
        <ele>672.1</ele>
        <time>2025-09-17T15:56:30Z</time>
      </trkpt>
      <trkpt lat="44.1777" lon="2.60549">
        <ele>673.06</ele>
        <time>2025-09-17T15:56:15Z</time>
      </trkpt>
      <trkpt lat="44.17775" lon="2.60572">
        <ele>674.98</ele>
        <time>2025-09-17T15:56:02Z</time>
      </trkpt>
      <trkpt lat="44.17782" lon="2.60602">
        <ele>676.42</ele>
        <time>2025-09-17T15:55:46Z</time>
      </trkpt>
      <trkpt lat="44.17784" lon="2.60614">
        <ele>676.42</ele>
        <time>2025-09-17T15:55:36Z</time>
      </trkpt>
      <trkpt lat="44.17792" lon="2.60646">
        <ele>676.42</ele>
        <time>2025-09-17T15:55:18Z</time>
      </trkpt>
      <trkpt lat="44.17798" lon="2.60673">
        <ele>674.5</ele>
        <time>2025-09-17T15:55:01Z</time>
      </trkpt>
      <trkpt lat="44.17806" lon="2.607">
        <ele>673.06</ele>
        <time>2025-09-17T15:54:43Z</time>
      </trkpt>
      <trkpt lat="44.17812" lon="2.60724">
        <ele>671.62</ele>
        <time>2025-09-17T15:54:26Z</time>
      </trkpt>
      <trkpt lat="44.17815" lon="2.60749">
        <ele>669.22</ele>
        <time>2025-09-17T15:54:10Z</time>
      </trkpt>
      <trkpt lat="44.17805" lon="2.60774">
        <ele>667.29</ele>
        <time>2025-09-17T15:53:53Z</time>
      </trkpt>
      <trkpt lat="44.17785" lon="2.60793">
        <ele>665.85</ele>
        <time>2025-09-17T15:53:35Z</time>
      </trkpt>
      <trkpt lat="44.17765" lon="2.60807">
        <ele>664.41</ele>
        <time>2025-09-17T15:53:19Z</time>
      </trkpt>
      <trkpt lat="44.17748" lon="2.60821">
        <ele>662.49</ele>
        <time>2025-09-17T15:53:03Z</time>
      </trkpt>
      <trkpt lat="44.17728" lon="2.60837">
        <ele>662.49</ele>
        <time>2025-09-17T15:52:48Z</time>
      </trkpt>
      <trkpt lat="44.1771" lon="2.60853">
        <ele>661.52</ele>
        <time>2025-09-17T15:52:31Z</time>
      </trkpt>
      <trkpt lat="44.17692" lon="2.60879">
        <ele>661.04</ele>
        <time>2025-09-17T15:52:14Z</time>
      </trkpt>
      <trkpt lat="44.17684" lon="2.60916">
        <ele>662.97</ele>
        <time>2025-09-17T15:51:57Z</time>
      </trkpt>
      <trkpt lat="44.17692" lon="2.60953">
        <ele>661.52</ele>
        <time>2025-09-17T15:51:40Z</time>
      </trkpt>
      <trkpt lat="44.17708" lon="2.60977">
        <ele>659.6</ele>
        <time>2025-09-17T15:51:22Z</time>
      </trkpt>
      <trkpt lat="44.17721" lon="2.61">
        <ele>657.2</ele>
        <time>2025-09-17T15:51:05Z</time>
      </trkpt>
      <trkpt lat="44.17726" lon="2.61012">
        <ele>656.24</ele>
        <time>2025-09-17T15:50:57Z</time>
      </trkpt>
      <trkpt lat="44.17735" lon="2.61034">
        <ele>655.76</ele>
        <time>2025-09-17T15:50:43Z</time>
      </trkpt>
      <trkpt lat="44.17752" lon="2.61065">
        <ele>656.72</ele>
        <time>2025-09-17T15:50:25Z</time>
      </trkpt>
      <trkpt lat="44.17769" lon="2.61087">
        <ele>657.68</ele>
        <time>2025-09-17T15:50:08Z</time>
      </trkpt>
      <trkpt lat="44.17785" lon="2.61104">
        <ele>656.72</ele>
        <time>2025-09-17T15:49:52Z</time>
      </trkpt>
      <trkpt lat="44.17796" lon="2.61132">
        <ele>655.76</ele>
        <time>2025-09-17T15:49:34Z</time>
      </trkpt>
      <trkpt lat="44.17795" lon="2.61159">
        <ele>653.83</ele>
        <time>2025-09-17T15:49:19Z</time>
      </trkpt>
      <trkpt lat="44.17788" lon="2.61188">
        <ele>654.8</ele>
        <time>2025-09-17T15:49:03Z</time>
      </trkpt>
      <trkpt lat="44.17783" lon="2.61216">
        <ele>653.35</ele>
        <time>2025-09-17T15:48:48Z</time>
      </trkpt>
      <trkpt lat="44.17779" lon="2.61245">
        <ele>653.35</ele>
        <time>2025-09-17T15:48:32Z</time>
      </trkpt>
      <trkpt lat="44.1777" lon="2.61276">
        <ele>652.87</ele>
        <time>2025-09-17T15:48:15Z</time>
      </trkpt>
      <trkpt lat="44.17759" lon="2.61304">
        <ele>650.95</ele>
        <time>2025-09-17T15:47:58Z</time>
      </trkpt>
      <trkpt lat="44.17746" lon="2.61331">
        <ele>650.95</ele>
        <time>2025-09-17T15:47:40Z</time>
      </trkpt>
      <trkpt lat="44.17735" lon="2.61359">
        <ele>650.95</ele>
        <time>2025-09-17T15:47:24Z</time>
      </trkpt>
      <trkpt lat="44.17727" lon="2.61389">
        <ele>652.87</ele>
        <time>2025-09-17T15:47:08Z</time>
      </trkpt>
      <trkpt lat="44.17718" lon="2.61427">
        <ele>657.2</ele>
        <time>2025-09-17T15:46:52Z</time>
      </trkpt>
      <trkpt lat="44.17716" lon="2.61437">
        <ele>656.72</ele>
        <time>2025-09-17T15:46:48Z</time>
      </trkpt>
      <trkpt lat="44.17712" lon="2.6145">
        <ele>657.2</ele>
        <time>2025-09-17T15:46:42Z</time>
      </trkpt>
      <trkpt lat="44.17711" lon="2.61461">
        <ele>656.24</ele>
        <time>2025-09-17T15:46:37Z</time>
      </trkpt>
      <trkpt lat="44.17718" lon="2.615">
        <ele>656.24</ele>
        <time>2025-09-17T15:46:18Z</time>
      </trkpt>
      <trkpt lat="44.17721" lon="2.61507">
        <ele>655.28</ele>
        <time>2025-09-17T15:46:14Z</time>
      </trkpt>
      <trkpt lat="44.17735" lon="2.61536">
        <ele>649.51</ele>
        <time>2025-09-17T15:45:55Z</time>
      </trkpt>
      <trkpt lat="44.17749" lon="2.61554">
        <ele>648.55</ele>
        <time>2025-09-17T15:45:41Z</time>
      </trkpt>
      <trkpt lat="44.17772" lon="2.61573">
        <ele>647.59</ele>
        <time>2025-09-17T15:45:21Z</time>
      </trkpt>
      <trkpt lat="44.17773" lon="2.61574">
        <ele>647.59</ele>
        <time>2025-09-17T15:45:20Z</time>
      </trkpt>
      <trkpt lat="44.17791" lon="2.61583">
        <ele>646.62</ele>
        <time>2025-09-17T15:45:04Z</time>
      </trkpt>
      <trkpt lat="44.17813" lon="2.61592">
        <ele>647.59</ele>
        <time>2025-09-17T15:44:47Z</time>
      </trkpt>
      <trkpt lat="44.17831" lon="2.61602">
        <ele>648.55</ele>
        <time>2025-09-17T15:44:32Z</time>
      </trkpt>
      <trkpt lat="44.17848" lon="2.61622">
        <ele>650.47</ele>
        <time>2025-09-17T15:44:14Z</time>
      </trkpt>
      <trkpt lat="44.17853" lon="2.61625">
        <ele>650.95</ele>
        <time>2025-09-17T15:44:10Z</time>
      </trkpt>
      <trkpt lat="44.17859" lon="2.61638">
        <ele>650.47</ele>
        <time>2025-09-17T15:44:01Z</time>
      </trkpt>
      <trkpt lat="44.17866" lon="2.61666">
        <ele>650.95</ele>
        <time>2025-09-17T15:43:44Z</time>
      </trkpt>
      <trkpt lat="44.17871" lon="2.61702">
        <ele>652.87</ele>
        <time>2025-09-17T15:43:25Z</time>
      </trkpt>
      <trkpt lat="44.17882" lon="2.61733">
        <ele>656.24</ele>
        <time>2025-09-17T15:43:08Z</time>
      </trkpt>
      <trkpt lat="44.179" lon="2.61753">
        <ele>659.6</ele>
        <time>2025-09-17T15:42:51Z</time>
      </trkpt>
      <trkpt lat="44.17921" lon="2.61769">
        <ele>662.01</ele>
        <time>2025-09-17T15:42:33Z</time>
      </trkpt>
      <trkpt lat="44.17944" lon="2.61782">
        <ele>663.93</ele>
        <time>2025-09-17T15:42:15Z</time>
      </trkpt>
      <trkpt lat="44.17962" lon="2.61789">
        <ele>663.93</ele>
        <time>2025-09-17T15:41:59Z</time>
      </trkpt>
      <trkpt lat="44.17981" lon="2.61806">
        <ele>666.33</ele>
        <time>2025-09-17T15:41:42Z</time>
      </trkpt>
      <trkpt lat="44.18002" lon="2.61826">
        <ele>669.7</ele>
        <time>2025-09-17T15:41:24Z</time>
      </trkpt>
      <trkpt lat="44.18025" lon="2.61849">
        <ele>672.58</ele>
        <time>2025-09-17T15:41:04Z</time>
      </trkpt>
      <trkpt lat="44.18042" lon="2.61869">
        <ele>673.06</ele>
        <time>2025-09-17T15:40:48Z</time>
      </trkpt>
      <trkpt lat="44.1806" lon="2.61885">
        <ele>672.58</ele>
        <time>2025-09-17T15:40:32Z</time>
      </trkpt>
      <trkpt lat="44.18065" lon="2.61889">
        <ele>673.54</ele>
        <time>2025-09-17T15:40:28Z</time>
      </trkpt>
      <trkpt lat="44.1807" lon="2.61895">
        <ele>673.54</ele>
        <time>2025-09-17T15:40:23Z</time>
      </trkpt>
      <trkpt lat="44.18085" lon="2.61918">
        <ele>675.94</ele>
        <time>2025-09-17T15:40:06Z</time>
      </trkpt>
      <trkpt lat="44.1809" lon="2.61922">
        <ele>676.42</ele>
        <time>2025-09-17T15:40:02Z</time>
      </trkpt>
      <trkpt lat="44.18108" lon="2.61908">
        <ele>677.39</ele>
        <time>2025-09-17T15:39:46Z</time>
      </trkpt>
      <trkpt lat="44.1811" lon="2.61902">
        <ele>676.91</ele>
        <time>2025-09-17T15:39:41Z</time>
      </trkpt>
      <trkpt lat="44.18111" lon="2.61874">
        <ele>679.31</ele>
        <time>2025-09-17T15:39:25Z</time>
      </trkpt>
      <trkpt lat="44.18117" lon="2.61846">
        <ele>682.19</ele>
        <time>2025-09-17T15:39:10Z</time>
      </trkpt>
      <trkpt lat="44.18128" lon="2.61812">
        <ele>684.6</ele>
        <time>2025-09-17T15:38:50Z</time>
      </trkpt>
      <trkpt lat="44.18145" lon="2.61787">
        <ele>685.08</ele>
        <time>2025-09-17T15:38:31Z</time>
      </trkpt>
      <trkpt lat="44.18164" lon="2.61771">
        <ele>687.48</ele>
        <time>2025-09-17T15:38:14Z</time>
      </trkpt>
      <trkpt lat="44.18185" lon="2.6175">
        <ele>687.96</ele>
        <time>2025-09-17T15:37:55Z</time>
      </trkpt>
      <trkpt lat="44.18202" lon="2.61725">
        <ele>690.36</ele>
        <time>2025-09-17T15:37:36Z</time>
      </trkpt>
      <trkpt lat="44.18214" lon="2.61704">
        <ele>690.84</ele>
        <time>2025-09-17T15:37:21Z</time>
      </trkpt>
      <trkpt lat="44.18221" lon="2.61675">
        <ele>691.33</ele>
        <time>2025-09-17T15:37:05Z</time>
      </trkpt>
      <trkpt lat="44.1823" lon="2.61647">
        <ele>694.21</ele>
        <time>2025-09-17T15:36:49Z</time>
      </trkpt>
      <trkpt lat="44.18239" lon="2.61624">
        <ele>695.17</ele>
        <time>2025-09-17T15:36:36Z</time>
      </trkpt>
      <trkpt lat="44.18247" lon="2.61596">
        <ele>695.65</ele>
        <time>2025-09-17T15:36:19Z</time>
      </trkpt>
      <trkpt lat="44.18255" lon="2.61568">
        <ele>696.61</ele>
        <time>2025-09-17T15:36:03Z</time>
      </trkpt>
      <trkpt lat="44.18273" lon="2.61543">
        <ele>697.57</ele>
        <time>2025-09-17T15:35:45Z</time>
      </trkpt>
      <trkpt lat="44.1829" lon="2.61524">
        <ele>698.05</ele>
        <time>2025-09-17T15:35:28Z</time>
      </trkpt>
      <trkpt lat="44.18311" lon="2.6151">
        <ele>700.46</ele>
        <time>2025-09-17T15:35:11Z</time>
      </trkpt>
      <trkpt lat="44.18326" lon="2.61492">
        <ele>700.94</ele>
        <time>2025-09-17T15:34:55Z</time>
      </trkpt>
      <trkpt lat="44.18343" lon="2.61477">
        <ele>700.94</ele>
        <time>2025-09-17T15:34:40Z</time>
      </trkpt>
      <trkpt lat="44.18361" lon="2.61464">
        <ele>702.38</ele>
        <time>2025-09-17T15:34:24Z</time>
      </trkpt>
      <trkpt lat="44.18384" lon="2.61446">
        <ele>702.86</ele>
        <time>2025-09-17T15:34:04Z</time>
      </trkpt>
      <trkpt lat="44.18407" lon="2.61419">
        <ele>703.34</ele>
        <time>2025-09-17T15:33:42Z</time>
      </trkpt>
      <trkpt lat="44.18426" lon="2.61391">
        <ele>704.3</ele>
        <time>2025-09-17T15:33:23Z</time>
      </trkpt>
      <trkpt lat="44.1844" lon="2.6136">
        <ele>705.26</ele>
        <time>2025-09-17T15:33:03Z</time>
      </trkpt>
      <trkpt lat="44.18454" lon="2.6133">
        <ele>707.19</ele>
        <time>2025-09-17T15:32:45Z</time>
      </trkpt>
      <trkpt lat="44.18477" lon="2.61303">
        <ele>709.11</ele>
        <time>2025-09-17T15:32:24Z</time>
      </trkpt>
      <trkpt lat="44.18498" lon="2.6129">
        <ele>710.55</ele>
        <time>2025-09-17T15:32:06Z</time>
      </trkpt>
      <trkpt lat="44.18516" lon="2.61277">
        <ele>711.03</ele>
        <time>2025-09-17T15:31:50Z</time>
      </trkpt>
      <trkpt lat="44.18536" lon="2.61263">
        <ele>712.47</ele>
        <time>2025-09-17T15:31:32Z</time>
      </trkpt>
      <trkpt lat="44.18555" lon="2.6125">
        <ele>712.47</ele>
        <time>2025-09-17T15:31:15Z</time>
      </trkpt>
      <trkpt lat="44.18577" lon="2.61236">
        <ele>711.51</ele>
        <time>2025-09-17T15:30:57Z</time>
      </trkpt>
      <trkpt lat="44.18599" lon="2.61222">
        <ele>710.07</ele>
        <time>2025-09-17T15:30:39Z</time>
      </trkpt>
      <trkpt lat="44.18619" lon="2.61207">
        <ele>708.63</ele>
        <time>2025-09-17T15:30:23Z</time>
      </trkpt>
      <trkpt lat="44.18643" lon="2.61191">
        <ele>708.15</ele>
        <time>2025-09-17T15:30:03Z</time>
      </trkpt>
      <trkpt lat="44.18664" lon="2.61177">
        <ele>708.63</ele>
        <time>2025-09-17T15:29:46Z</time>
      </trkpt>
      <trkpt lat="44.18689" lon="2.61162">
        <ele>706.23</ele>
        <time>2025-09-17T15:29:29Z</time>
      </trkpt>
      <trkpt lat="44.18709" lon="2.6115">
        <ele>704.78</ele>
        <time>2025-09-17T15:29:14Z</time>
      </trkpt>
      <trkpt lat="44.18731" lon="2.61146">
        <ele>704.78</ele>
        <time>2025-09-17T15:28:56Z</time>
      </trkpt>
      <trkpt lat="44.18758" lon="2.61144">
        <ele>703.34</ele>
        <time>2025-09-17T15:28:35Z</time>
      </trkpt>
      <trkpt lat="44.18781" lon="2.61144">
        <ele>701.9</ele>
        <time>2025-09-17T15:28:18Z</time>
      </trkpt>
      <trkpt lat="44.18807" lon="2.61147">
        <ele>699.98</ele>
        <time>2025-09-17T15:28:02Z</time>
      </trkpt>
      <trkpt lat="44.18829" lon="2.61148">
        <ele>698.53</ele>
        <time>2025-09-17T15:27:45Z</time>
      </trkpt>
      <trkpt lat="44.18851" lon="2.61146">
        <ele>699.98</ele>
        <time>2025-09-17T15:27:28Z</time>
      </trkpt>
      <trkpt lat="44.18871" lon="2.61144">
        <ele>699.98</ele>
        <time>2025-09-17T15:27:09Z</time>
      </trkpt>
      <trkpt lat="44.18873" lon="2.61145">
        <ele>700.46</ele>
        <time>2025-09-17T15:27:00Z</time>
      </trkpt>
      <trkpt lat="44.18873" lon="2.61138">
        <ele>700.46</ele>
        <time>2025-09-17T15:26:44Z</time>
      </trkpt>
      <trkpt lat="44.18865" lon="2.61141">
        <ele>700.94</ele>
        <time>2025-09-17T15:26:36Z</time>
      </trkpt>
      <trkpt lat="44.18868" lon="2.61144">
        <ele>700.94</ele>
        <time>2025-09-17T15:26:26Z</time>
      </trkpt>
      <trkpt lat="44.18893" lon="2.61135">
        <ele>704.78</ele>
        <time>2025-09-17T15:26:07Z</time>
      </trkpt>
      <trkpt lat="44.18924" lon="2.61133">
        <ele>708.63</ele>
        <time>2025-09-17T15:25:49Z</time>
      </trkpt>
      <trkpt lat="44.18947" lon="2.61133">
        <ele>709.11</ele>
        <time>2025-09-17T15:25:33Z</time>
      </trkpt>
      <trkpt lat="44.18979" lon="2.61125">
        <ele>716.32</ele>
        <time>2025-09-17T15:25:16Z</time>
      </trkpt>
      <trkpt lat="44.18999" lon="2.61125">
        <ele>719.2</ele>
        <time>2025-09-17T15:25:02Z</time>
      </trkpt>
      <trkpt lat="44.19007" lon="2.61121">
        <ele>723.05</ele>
        <time>2025-09-17T15:24:58Z</time>
      </trkpt>
      <trkpt lat="44.19013" lon="2.61117">
        <ele>724.97</ele>
        <time>2025-09-17T15:24:55Z</time>
      </trkpt>
      <trkpt lat="44.19036" lon="2.61108">
        <ele>730.74</ele>
        <time>2025-09-17T15:24:40Z</time>
      </trkpt>
      <trkpt lat="44.1904" lon="2.61107">
        <ele>731.22</ele>
        <time>2025-09-17T15:24:39Z</time>
      </trkpt>
      <trkpt lat="44.19055" lon="2.61112">
        <ele>730.26</ele>
        <time>2025-09-17T15:24:26Z</time>
      </trkpt>
      <trkpt lat="44.19058" lon="2.61112">
        <ele>729.78</ele>
        <time>2025-09-17T15:24:24Z</time>
      </trkpt>
      <trkpt lat="44.19061" lon="2.61113">
        <ele>728.82</ele>
        <time>2025-09-17T15:24:20Z</time>
      </trkpt>
      <trkpt lat="44.1907" lon="2.61109">
        <ele>726.41</ele>
        <time>2025-09-17T15:24:08Z</time>
      </trkpt>
      <trkpt lat="44.1908" lon="2.61095">
        <ele>719.2</ele>
        <time>2025-09-17T15:23:53Z</time>
      </trkpt>
      <trkpt lat="44.19092" lon="2.61082">
        <ele>719.68</ele>
        <time>2025-09-17T15:23:42Z</time>
      </trkpt>
      <trkpt lat="44.19114" lon="2.61058">
        <ele>717.28</ele>
        <time>2025-09-17T15:23:25Z</time>
      </trkpt>
      <trkpt lat="44.19139" lon="2.61053">
        <ele>704.78</ele>
        <time>2025-09-17T15:23:07Z</time>
      </trkpt>
      <trkpt lat="44.19141" lon="2.61052">
        <ele>703.82</ele>
        <time>2025-09-17T15:23:05Z</time>
      </trkpt>
      <trkpt lat="44.19161" lon="2.61041">
        <ele>699.02</ele>
        <time>2025-09-17T15:22:49Z</time>
      </trkpt>
      <trkpt lat="44.19166" lon="2.61037">
        <ele>699.02</ele>
        <time>2025-09-17T15:22:45Z</time>
      </trkpt>
      <trkpt lat="44.19185" lon="2.61024">
        <ele>698.53</ele>
        <time>2025-09-17T15:22:30Z</time>
      </trkpt>
      <trkpt lat="44.19206" lon="2.61011">
        <ele>698.53</ele>
        <time>2025-09-17T15:22:13Z</time>
      </trkpt>
      <trkpt lat="44.19221" lon="2.61004">
        <ele>699.02</ele>
        <time>2025-09-17T15:22:01Z</time>
      </trkpt>
      <trkpt lat="44.19224" lon="2.61002">
        <ele>698.05</ele>
        <time>2025-09-17T15:21:46Z</time>
      </trkpt>
      <trkpt lat="44.19247" lon="2.60989">
        <ele>698.05</ele>
        <time>2025-09-17T15:21:28Z</time>
      </trkpt>
      <trkpt lat="44.19269" lon="2.60976">
        <ele>697.57</ele>
        <time>2025-09-17T15:21:11Z</time>
      </trkpt>
      <trkpt lat="44.19283" lon="2.60969">
        <ele>696.13</ele>
        <time>2025-09-17T15:21:01Z</time>
      </trkpt>
      <trkpt lat="44.193" lon="2.60961">
        <ele>691.81</ele>
        <time>2025-09-17T15:20:46Z</time>
      </trkpt>
      <trkpt lat="44.19323" lon="2.6095">
        <ele>689.4</ele>
        <time>2025-09-17T15:20:28Z</time>
      </trkpt>
      <trkpt lat="44.19348" lon="2.60941">
        <ele>685.56</ele>
        <time>2025-09-17T15:20:10Z</time>
      </trkpt>
      <trkpt lat="44.19365" lon="2.60933">
        <ele>682.67</ele>
        <time>2025-09-17T15:19:55Z</time>
      </trkpt>
      <trkpt lat="44.19381" lon="2.60922">
        <ele>679.79</ele>
        <time>2025-09-17T15:19:40Z</time>
      </trkpt>
      <trkpt lat="44.19397" lon="2.60911">
        <ele>679.31</ele>
        <time>2025-09-17T15:19:25Z</time>
      </trkpt>
      <trkpt lat="44.19409" lon="2.60891">
        <ele>680.27</ele>
        <time>2025-09-17T15:19:09Z</time>
      </trkpt>
      <trkpt lat="44.19413" lon="2.60846">
        <ele>676.91</ele>
        <time>2025-09-17T15:18:49Z</time>
      </trkpt>
      <trkpt lat="44.1941" lon="2.6083">
        <ele>674.98</ele>
        <time>2025-09-17T15:18:36Z</time>
      </trkpt>
      <trkpt lat="44.19419" lon="2.60822">
        <ele>673.54</ele>
        <time>2025-09-17T15:18:23Z</time>
      </trkpt>
      <trkpt lat="44.19429" lon="2.60819">
        <ele>672.1</ele>
        <time>2025-09-17T15:18:10Z</time>
      </trkpt>
      <trkpt lat="44.19445" lon="2.60825">
        <ele>669.22</ele>
        <time>2025-09-17T15:17:55Z</time>
      </trkpt>
      <trkpt lat="44.19465" lon="2.60845">
        <ele>663.93</ele>
        <time>2025-09-17T15:17:35Z</time>
      </trkpt>
      <trkpt lat="44.1948" lon="2.60868">
        <ele>658.64</ele>
        <time>2025-09-17T15:17:15Z</time>
      </trkpt>
      <trkpt lat="44.19498" lon="2.60885">
        <ele>655.76</ele>
        <time>2025-09-17T15:16:57Z</time>
      </trkpt>
      <trkpt lat="44.19512" lon="2.60904">
        <ele>652.87</ele>
        <time>2025-09-17T15:16:39Z</time>
      </trkpt>
      <trkpt lat="44.19514" lon="2.60914">
        <ele>651.91</ele>
        <time>2025-09-17T15:16:25Z</time>
      </trkpt>
      <trkpt lat="44.19518" lon="2.60923">
        <ele>649.51</ele>
        <time>2025-09-17T15:16:09Z</time>
      </trkpt>
      <trkpt lat="44.19519" lon="2.60931">
        <ele>648.07</ele>
        <time>2025-09-17T15:16:04Z</time>
      </trkpt>
      <trkpt lat="44.19522" lon="2.60936">
        <ele>647.59</ele>
        <time>2025-09-17T15:16:00Z</time>
      </trkpt>
      <trkpt lat="44.19522" lon="2.60937">
        <ele>647.1</ele>
        <time>2025-09-17T15:15:49Z</time>
      </trkpt>
      <trkpt lat="44.19525" lon="2.60941">
        <ele>645.66</ele>
        <time>2025-09-17T15:15:30Z</time>
      </trkpt>
      <trkpt lat="44.19523" lon="2.60944">
        <ele>646.62</ele>
        <time>2025-09-17T15:15:07Z</time>
      </trkpt>
      <trkpt lat="44.19526" lon="2.60945">
        <ele>647.1</ele>
        <time>2025-09-17T15:14:48Z</time>
      </trkpt>
      <trkpt lat="44.19523" lon="2.60941">
        <ele>645.18</ele>
        <time>2025-09-17T15:14:28Z</time>
      </trkpt>
      <trkpt lat="44.19523" lon="2.60938">
        <ele>645.18</ele>
        <time>2025-09-17T15:13:57Z</time>
      </trkpt>
      <trkpt lat="44.19527" lon="2.60932">
        <ele>647.1</ele>
        <time>2025-09-17T15:13:32Z</time>
      </trkpt>
      <trkpt lat="44.19528" lon="2.60933">
        <ele>647.1</ele>
        <time>2025-09-17T15:13:12Z</time>
      </trkpt>
      <trkpt lat="44.19522" lon="2.60925">
        <ele>649.51</ele>
        <time>2025-09-17T15:12:54Z</time>
      </trkpt>
      <trkpt lat="44.19522" lon="2.6093">
        <ele>649.03</ele>
        <time>2025-09-17T15:12:37Z</time>
      </trkpt>
      <trkpt lat="44.19529" lon="2.60942">
        <ele>647.1</ele>
        <time>2025-09-17T15:12:22Z</time>
      </trkpt>
      <trkpt lat="44.19546" lon="2.60936">
        <ele>641.82</ele>
        <time>2025-09-17T15:12:05Z</time>
      </trkpt>
      <trkpt lat="44.19549" lon="2.60928">
        <ele>640.86</ele>
        <time>2025-09-17T15:11:47Z</time>
      </trkpt>
      <trkpt lat="44.19552" lon="2.60922">
        <ele>638.93</ele>
        <time>2025-09-17T15:11:25Z</time>
      </trkpt>
      <trkpt lat="44.19551" lon="2.6092">
        <ele>637.97</ele>
        <time>2025-09-17T15:10:51Z</time>
      </trkpt>
      <trkpt lat="44.19552" lon="2.60917">
        <ele>637.49</ele>
        <time>2025-09-17T15:10:26Z</time>
      </trkpt>
      <trkpt lat="44.19553" lon="2.60909">
        <ele>637.01</ele>
        <time>2025-09-17T15:10:12Z</time>
      </trkpt>
      <trkpt lat="44.19555" lon="2.60909">
        <ele>639.41</ele>
        <time>2025-09-17T15:09:44Z</time>
      </trkpt>
      <trkpt lat="44.19555" lon="2.60911">
        <ele>640.86</ele>
        <time>2025-09-17T15:09:21Z</time>
      </trkpt>
      <trkpt lat="44.19557" lon="2.6091">
        <ele>642.3</ele>
        <time>2025-09-17T15:09:01Z</time>
      </trkpt>
      <trkpt lat="44.19557" lon="2.60914">
        <ele>639.41</ele>
        <time>2025-09-17T15:08:40Z</time>
      </trkpt>
      <trkpt lat="44.19556" lon="2.60914">
        <ele>638.45</ele>
        <time>2025-09-17T15:08:19Z</time>
      </trkpt>
      <trkpt lat="44.19557" lon="2.60913">
        <ele>637.49</ele>
        <time>2025-09-17T15:07:55Z</time>
      </trkpt>
      <trkpt lat="44.19558" lon="2.60912">
        <ele>635.09</ele>
        <time>2025-09-17T15:07:32Z</time>
      </trkpt>
      <trkpt lat="44.1956" lon="2.60913">
        <ele>634.13</ele>
        <time>2025-09-17T15:07:11Z</time>
      </trkpt>
      <trkpt lat="44.19563" lon="2.60911">
        <ele>634.61</ele>
        <time>2025-09-17T15:06:51Z</time>
      </trkpt>
      <trkpt lat="44.19567" lon="2.60911">
        <ele>635.57</ele>
        <time>2025-09-17T15:06:25Z</time>
      </trkpt>
      <trkpt lat="44.1957" lon="2.6091">
        <ele>637.49</ele>
        <time>2025-09-17T15:06:04Z</time>
      </trkpt>
      <trkpt lat="44.19575" lon="2.60908">
        <ele>637.97</ele>
        <time>2025-09-17T15:05:35Z</time>
      </trkpt>
      <trkpt lat="44.19578" lon="2.60906">
        <ele>629.8</ele>
        <time>2025-09-17T15:05:08Z</time>
      </trkpt>
      <trkpt lat="44.19582" lon="2.60905">
        <ele>627.88</ele>
        <time>2025-09-17T15:04:34Z</time>
      </trkpt>
      <trkpt lat="44.19583" lon="2.60898">
        <ele>625.47</ele>
        <time>2025-09-17T15:04:15Z</time>
      </trkpt>
      <trkpt lat="44.19587" lon="2.60894">
        <ele>619.71</ele>
        <time>2025-09-17T15:03:58Z</time>
      </trkpt>
      <trkpt lat="44.1959" lon="2.60884">
        <ele>622.11</ele>
        <time>2025-09-17T15:03:40Z</time>
      </trkpt>
      <trkpt lat="44.19592" lon="2.60882">
        <ele>624.03</ele>
        <time>2025-09-17T15:03:07Z</time>
      </trkpt>
      <trkpt lat="44.19587" lon="2.60889">
        <ele>624.99</ele>
        <time>2025-09-17T15:02:46Z</time>
      </trkpt>
      <trkpt lat="44.19584" lon="2.60904">
        <ele>624.99</ele>
        <time>2025-09-17T15:02:29Z</time>
      </trkpt>
      <trkpt lat="44.1958" lon="2.6092">
        <ele>624.51</ele>
        <time>2025-09-17T15:02:10Z</time>
      </trkpt>
      <trkpt lat="44.19579" lon="2.60928">
        <ele>625.47</ele>
        <time>2025-09-17T15:01:49Z</time>
      </trkpt>
      <trkpt lat="44.19582" lon="2.6093">
        <ele>627.4</ele>
        <time>2025-09-17T15:01:30Z</time>
      </trkpt>
      <trkpt lat="44.19581" lon="2.6093">
        <ele>630.28</ele>
        <time>2025-09-17T15:01:12Z</time>
      </trkpt>
      <trkpt lat="44.19584" lon="2.60937">
        <ele>632.68</ele>
        <time>2025-09-17T15:00:51Z</time>
      </trkpt>
      <trkpt lat="44.19587" lon="2.60935">
        <ele>630.76</ele>
        <time>2025-09-17T15:00:30Z</time>
      </trkpt>
      <trkpt lat="44.19589" lon="2.60935">
        <ele>630.76</ele>
        <time>2025-09-17T15:00:10Z</time>
      </trkpt>
      <trkpt lat="44.19588" lon="2.60931">
        <ele>629.8</ele>
        <time>2025-09-17T14:59:54Z</time>
      </trkpt>
      <trkpt lat="44.19589" lon="2.60933">
        <ele>629.8</ele>
        <time>2025-09-17T14:59:43Z</time>
      </trkpt>
      <trkpt lat="44.19588" lon="2.60938">
        <ele>631.72</ele>
        <time>2025-09-17T14:59:32Z</time>
      </trkpt>
      <trkpt lat="44.19589" lon="2.60942">
        <ele>631.72</ele>
        <time>2025-09-17T14:59:29Z</time>
      </trkpt>
      <trkpt lat="44.19591" lon="2.60938">
        <ele>631.24</ele>
        <time>2025-09-17T14:59:18Z</time>
      </trkpt>
      <trkpt lat="44.19591" lon="2.60932">
        <ele>630.76</ele>
        <time>2025-09-17T14:59:03Z</time>
      </trkpt>
      <trkpt lat="44.19589" lon="2.60927">
        <ele>630.28</ele>
        <time>2025-09-17T14:58:36Z</time>
      </trkpt>
      <trkpt lat="44.19584" lon="2.60926">
        <ele>630.76</ele>
        <time>2025-09-17T14:58:14Z</time>
      </trkpt>
      <trkpt lat="44.19585" lon="2.60928">
        <ele>629.32</ele>
        <time>2025-09-17T14:58:00Z</time>
      </trkpt>
      <trkpt lat="44.19586" lon="2.60928">
        <ele>628.84</ele>
        <time>2025-09-17T14:57:44Z</time>
      </trkpt>
      <trkpt lat="44.19585" lon="2.60927">
        <ele>630.76</ele>
        <time>2025-09-17T14:57:27Z</time>
      </trkpt>
      <trkpt lat="44.19583" lon="2.60923">
        <ele>630.28</ele>
        <time>2025-09-17T14:57:08Z</time>
      </trkpt>
      <trkpt lat="44.19584" lon="2.60923">
        <ele>630.28</ele>
        <time>2025-09-17T14:56:55Z</time>
      </trkpt>
      <trkpt lat="44.19582" lon="2.60924">
        <ele>631.24</ele>
        <time>2025-09-17T14:56:37Z</time>
      </trkpt>
      <trkpt lat="44.19585" lon="2.60925">
        <ele>632.68</ele>
        <time>2025-09-17T14:56:21Z</time>
      </trkpt>
      <trkpt lat="44.19589" lon="2.60928">
        <ele>633.17</ele>
        <time>2025-09-17T14:56:09Z</time>
      </trkpt>
      <trkpt lat="44.1959" lon="2.60924">
        <ele>634.13</ele>
        <time>2025-09-17T14:55:50Z</time>
      </trkpt>
      <trkpt lat="44.19592" lon="2.60919">
        <ele>633.65</ele>
        <time>2025-09-17T14:55:25Z</time>
      </trkpt>
      <trkpt lat="44.19593" lon="2.60919">
        <ele>637.01</ele>
        <time>2025-09-17T14:55:07Z</time>
      </trkpt>
      <trkpt lat="44.19592" lon="2.60919">
        <ele>638.93</ele>
        <time>2025-09-17T14:54:45Z</time>
      </trkpt>
      <trkpt lat="44.19592" lon="2.60917">
        <ele>640.38</ele>
        <time>2025-09-17T14:54:31Z</time>
      </trkpt>
      <trkpt lat="44.19592" lon="2.60918">
        <ele>640.86</ele>
        <time>2025-09-17T14:54:23Z</time>
      </trkpt>
      <trkpt lat="44.19595" lon="2.60917">
        <ele>640.86</ele>
        <time>2025-09-17T14:53:58Z</time>
      </trkpt>
      <trkpt lat="44.19593" lon="2.60912">
        <ele>640.86</ele>
        <time>2025-09-17T14:53:35Z</time>
      </trkpt>
      <trkpt lat="44.19595" lon="2.60908">
        <ele>642.3</ele>
        <time>2025-09-17T14:53:14Z</time>
      </trkpt>
      <trkpt lat="44.19596" lon="2.60908">
        <ele>645.18</ele>
        <time>2025-09-17T14:52:54Z</time>
      </trkpt>
      <trkpt lat="44.19601" lon="2.60894">
        <ele>651.43</ele>
        <time>2025-09-17T14:52:34Z</time>
      </trkpt>
      <trkpt lat="44.19612" lon="2.60878">
        <ele>653.35</ele>
        <time>2025-09-17T14:52:17Z</time>
      </trkpt>
      <trkpt lat="44.19613" lon="2.60861">
        <ele>650.47</ele>
        <time>2025-09-17T14:52:03Z</time>
      </trkpt>
      <trkpt lat="44.19613" lon="2.60851">
        <ele>649.51</ele>
        <time>2025-09-17T14:51:55Z</time>
      </trkpt>
      <trkpt lat="44.19618" lon="2.60827">
        <ele>646.14</ele>
        <time>2025-09-17T14:51:40Z</time>
      </trkpt>
      <trkpt lat="44.19633" lon="2.608">
        <ele>645.18</ele>
        <time>2025-09-17T14:51:28Z</time>
      </trkpt>
      <trkpt lat="44.19641" lon="2.60777">
        <ele>640.38</ele>
        <time>2025-09-17T14:51:15Z</time>
      </trkpt>
      <trkpt lat="44.19644" lon="2.60758">
        <ele>633.17</ele>
        <time>2025-09-17T14:51:00Z</time>
      </trkpt>
      <trkpt lat="44.19648" lon="2.60752">
        <ele>631.72</ele>
        <time>2025-09-17T14:50:54Z</time>
      </trkpt>
      <trkpt lat="44.19662" lon="2.60733">
        <ele>632.2</ele>
        <time>2025-09-17T14:50:40Z</time>
      </trkpt>
      <trkpt lat="44.19677" lon="2.60714">
        <ele>634.61</ele>
        <time>2025-09-17T14:50:23Z</time>
      </trkpt>
      <trkpt lat="44.1969" lon="2.60694">
        <ele>627.88</ele>
        <time>2025-09-17T14:50:07Z</time>
      </trkpt>
      <trkpt lat="44.19695" lon="2.60678">
        <ele>625.96</ele>
        <time>2025-09-17T14:49:52Z</time>
      </trkpt>
      <trkpt lat="44.19698" lon="2.60672">
        <ele>625.96</ele>
        <time>2025-09-17T14:49:44Z</time>
      </trkpt>
      <trkpt lat="44.19697" lon="2.6067">
        <ele>627.88</ele>
        <time>2025-09-17T14:49:24Z</time>
      </trkpt>
      <trkpt lat="44.19693" lon="2.60673">
        <ele>627.4</ele>
        <time>2025-09-17T14:49:06Z</time>
      </trkpt>
      <trkpt lat="44.19692" lon="2.60675">
        <ele>628.84</ele>
        <time>2025-09-17T14:48:38Z</time>
      </trkpt>
      <trkpt lat="44.19694" lon="2.60674">
        <ele>628.84</ele>
        <time>2025-09-17T14:48:13Z</time>
      </trkpt>
      <trkpt lat="44.19695" lon="2.60671">
        <ele>627.4</ele>
        <time>2025-09-17T14:47:49Z</time>
      </trkpt>
      <trkpt lat="44.19691" lon="2.60681">
        <ele>630.28</ele>
        <time>2025-09-17T14:47:35Z</time>
      </trkpt>
      <trkpt lat="44.1969" lon="2.60684">
        <ele>630.28</ele>
        <time>2025-09-17T14:47:34Z</time>
      </trkpt>
      <trkpt lat="44.19689" lon="2.60685">
        <ele>630.28</ele>
        <time>2025-09-17T14:47:33Z</time>
      </trkpt>
      <trkpt lat="44.1969" lon="2.60693">
        <ele>631.72</ele>
        <time>2025-09-17T14:47:21Z</time>
      </trkpt>
      <trkpt lat="44.19698" lon="2.60692">
        <ele>633.17</ele>
        <time>2025-09-17T14:47:06Z</time>
      </trkpt>
      <trkpt lat="44.19701" lon="2.6069">
        <ele>633.17</ele>
        <time>2025-09-17T14:47:03Z</time>
      </trkpt>
      <trkpt lat="44.19712" lon="2.60698">
        <ele>633.65</ele>
        <time>2025-09-17T14:46:47Z</time>
      </trkpt>
      <trkpt lat="44.19719" lon="2.60712">
        <ele>631.24</ele>
        <time>2025-09-17T14:46:33Z</time>
      </trkpt>
      <trkpt lat="44.19726" lon="2.60728">
        <ele>630.28</ele>
        <time>2025-09-17T14:46:20Z</time>
      </trkpt>
      <trkpt lat="44.19731" lon="2.60744">
        <ele>632.2</ele>
        <time>2025-09-17T14:46:06Z</time>
      </trkpt>
      <trkpt lat="44.19732" lon="2.60761">
        <ele>637.97</ele>
        <time>2025-09-17T14:45:50Z</time>
      </trkpt>
      <trkpt lat="44.1974" lon="2.6078">
        <ele>645.18</ele>
        <time>2025-09-17T14:45:37Z</time>
      </trkpt>
      <trkpt lat="44.19749" lon="2.60801">
        <ele>650.47</ele>
        <time>2025-09-17T14:45:24Z</time>
      </trkpt>
      <trkpt lat="44.19761" lon="2.60826">
        <ele>655.76</ele>
        <time>2025-09-17T14:45:09Z</time>
      </trkpt>
      <trkpt lat="44.19774" lon="2.60854">
        <ele>664.41</ele>
        <time>2025-09-17T14:44:52Z</time>
      </trkpt>
      <trkpt lat="44.19783" lon="2.60889">
        <ele>674.5</ele>
        <time>2025-09-17T14:44:35Z</time>
      </trkpt>
      <trkpt lat="44.19792" lon="2.60931">
        <ele>685.56</ele>
        <time>2025-09-17T14:44:18Z</time>
      </trkpt>
      <trkpt lat="44.198" lon="2.60945">
        <ele>687.96</ele>
        <time>2025-09-17T14:44:07Z</time>
      </trkpt>
      <trkpt lat="44.19801" lon="2.60947">
        <ele>687.96</ele>
        <time>2025-09-17T14:44:06Z</time>
      </trkpt>
      <trkpt lat="44.19807" lon="2.60968">
        <ele>687</ele>
        <time>2025-09-17T14:43:55Z</time>
      </trkpt>
      <trkpt lat="44.19819" lon="2.60991">
        <ele>678.83</ele>
        <time>2025-09-17T14:43:40Z</time>
      </trkpt>
      <trkpt lat="44.19834" lon="2.61014">
        <ele>669.7</ele>
        <time>2025-09-17T14:43:25Z</time>
      </trkpt>
      <trkpt lat="44.19846" lon="2.61034">
        <ele>665.37</ele>
        <time>2025-09-17T14:43:09Z</time>
      </trkpt>
      <trkpt lat="44.19849" lon="2.61041">
        <ele>665.37</ele>
        <time>2025-09-17T14:43:04Z</time>
      </trkpt>
      <trkpt lat="44.1986" lon="2.61068">
        <ele>666.33</ele>
        <time>2025-09-17T14:42:48Z</time>
      </trkpt>
      <trkpt lat="44.19873" lon="2.61103">
        <ele>666.81</ele>
        <time>2025-09-17T14:42:30Z</time>
      </trkpt>
      <trkpt lat="44.19882" lon="2.61135">
        <ele>667.77</ele>
        <time>2025-09-17T14:42:13Z</time>
      </trkpt>
      <trkpt lat="44.19889" lon="2.61166">
        <ele>669.22</ele>
        <time>2025-09-17T14:41:57Z</time>
      </trkpt>
      <trkpt lat="44.19896" lon="2.61187">
        <ele>669.7</ele>
        <time>2025-09-17T14:41:44Z</time>
      </trkpt>
      <trkpt lat="44.199" lon="2.61201">
        <ele>674.02</ele>
        <time>2025-09-17T14:41:27Z</time>
      </trkpt>
      <trkpt lat="44.19905" lon="2.61237">
        <ele>676.91</ele>
        <time>2025-09-17T14:41:10Z</time>
      </trkpt>
      <trkpt lat="44.19912" lon="2.6127">
        <ele>677.39</ele>
        <time>2025-09-17T14:40:52Z</time>
      </trkpt>
      <trkpt lat="44.19919" lon="2.61295">
        <ele>677.39</ele>
        <time>2025-09-17T14:40:38Z</time>
      </trkpt>
      <trkpt lat="44.19924" lon="2.61306">
        <ele>677.87</ele>
        <time>2025-09-17T14:40:23Z</time>
      </trkpt>
      <trkpt lat="44.19927" lon="2.61309">
        <ele>678.83</ele>
        <time>2025-09-17T14:40:18Z</time>
      </trkpt>
      <trkpt lat="44.19927" lon="2.6131">
        <ele>679.31</ele>
        <time>2025-09-17T14:40:17Z</time>
      </trkpt>
      <trkpt lat="44.19927" lon="2.61312">
        <ele>679.79</ele>
        <time>2025-09-17T14:40:16Z</time>
      </trkpt>
      <trkpt lat="44.19927" lon="2.61314">
        <ele>679.79</ele>
        <time>2025-09-17T14:40:15Z</time>
      </trkpt>
      <trkpt lat="44.19927" lon="2.61316">
        <ele>680.27</ele>
        <time>2025-09-17T14:40:14Z</time>
      </trkpt>
      <trkpt lat="44.19927" lon="2.61317">
        <ele>680.75</ele>
        <time>2025-09-17T14:40:13Z</time>
      </trkpt>
      <trkpt lat="44.19927" lon="2.61319">
        <ele>680.75</ele>
        <time>2025-09-17T14:40:12Z</time>
      </trkpt>
      <trkpt lat="44.19927" lon="2.61321">
        <ele>681.23</ele>
        <time>2025-09-17T14:40:11Z</time>
      </trkpt>
      <trkpt lat="44.19922" lon="2.61352">
        <ele>681.71</ele>
        <time>2025-09-17T14:39:57Z</time>
      </trkpt>
      <trkpt lat="44.19921" lon="2.61362">
        <ele>682.19</ele>
        <time>2025-09-17T14:39:52Z</time>
      </trkpt>
      <trkpt lat="44.19917" lon="2.61382">
        <ele>686.04</ele>
        <time>2025-09-17T14:39:37Z</time>
      </trkpt>
      <trkpt lat="44.19907" lon="2.61405">
        <ele>687.48</ele>
        <time>2025-09-17T14:39:21Z</time>
      </trkpt>
      <trkpt lat="44.19892" lon="2.61425">
        <ele>690.84</ele>
        <time>2025-09-17T14:39:04Z</time>
      </trkpt>
      <trkpt lat="44.19881" lon="2.61452">
        <ele>693.25</ele>
        <time>2025-09-17T14:38:48Z</time>
      </trkpt>
      <trkpt lat="44.19872" lon="2.61475">
        <ele>695.17</ele>
        <time>2025-09-17T14:38:32Z</time>
      </trkpt>
      <trkpt lat="44.19866" lon="2.61496">
        <ele>694.21</ele>
        <time>2025-09-17T14:38:18Z</time>
      </trkpt>
      <trkpt lat="44.19866" lon="2.61498">
        <ele>694.21</ele>
        <time>2025-09-17T14:38:17Z</time>
      </trkpt>
      <trkpt lat="44.19871" lon="2.61509">
        <ele>695.65</ele>
        <time>2025-09-17T14:37:57Z</time>
      </trkpt>
      <trkpt lat="44.19869" lon="2.61498">
        <ele>694.69</ele>
        <time>2025-09-17T14:37:40Z</time>
      </trkpt>
      <trkpt lat="44.19869" lon="2.61497">
        <ele>694.69</ele>
        <time>2025-09-17T14:37:39Z</time>
      </trkpt>
      <trkpt lat="44.19868" lon="2.61496">
        <ele>694.69</ele>
        <time>2025-09-17T14:37:38Z</time>
      </trkpt>
      <trkpt lat="44.19865" lon="2.61498">
        <ele>693.73</ele>
        <time>2025-09-17T14:37:24Z</time>
      </trkpt>
      <trkpt lat="44.19867" lon="2.61514">
        <ele>696.61</ele>
        <time>2025-09-17T14:37:10Z</time>
      </trkpt>
      <trkpt lat="44.19867" lon="2.61517">
        <ele>697.09</ele>
        <time>2025-09-17T14:37:09Z</time>
      </trkpt>
      <trkpt lat="44.19868" lon="2.61519">
        <ele>697.09</ele>
        <time>2025-09-17T14:37:08Z</time>
      </trkpt>
      <trkpt lat="44.19868" lon="2.61541">
        <ele>698.53</ele>
        <time>2025-09-17T14:36:57Z</time>
      </trkpt>
      <trkpt lat="44.19875" lon="2.61572">
        <ele>699.5</ele>
        <time>2025-09-17T14:36:44Z</time>
      </trkpt>
      <trkpt lat="44.19881" lon="2.61595">
        <ele>701.9</ele>
        <time>2025-09-17T14:36:32Z</time>
      </trkpt>
      <trkpt lat="44.19887" lon="2.61626">
        <ele>705.26</ele>
        <time>2025-09-17T14:36:18Z</time>
      </trkpt>
      <trkpt lat="44.19896" lon="2.61653">
        <ele>708.63</ele>
        <time>2025-09-17T14:36:03Z</time>
      </trkpt>
      <trkpt lat="44.19906" lon="2.61684">
        <ele>708.63</ele>
        <time>2025-09-17T14:35:50Z</time>
      </trkpt>
      <trkpt lat="44.19911" lon="2.61714">
        <ele>708.15</ele>
        <time>2025-09-17T14:35:36Z</time>
      </trkpt>
      <trkpt lat="44.19918" lon="2.61745">
        <ele>708.63</ele>
        <time>2025-09-17T14:35:23Z</time>
      </trkpt>
      <trkpt lat="44.1992" lon="2.61776">
        <ele>710.07</ele>
        <time>2025-09-17T14:35:08Z</time>
      </trkpt>
      <trkpt lat="44.19916" lon="2.61808">
        <ele>708.15</ele>
        <time>2025-09-17T14:34:54Z</time>
      </trkpt>
      <trkpt lat="44.19909" lon="2.61836">
        <ele>706.71</ele>
        <time>2025-09-17T14:34:42Z</time>
      </trkpt>
      <trkpt lat="44.19902" lon="2.6186">
        <ele>707.19</ele>
        <time>2025-09-17T14:34:29Z</time>
      </trkpt>
      <trkpt lat="44.19894" lon="2.61895">
        <ele>707.67</ele>
        <time>2025-09-17T14:34:12Z</time>
      </trkpt>
      <trkpt lat="44.19885" lon="2.61928">
        <ele>708.15</ele>
        <time>2025-09-17T14:33:58Z</time>
      </trkpt>
      <trkpt lat="44.19878" lon="2.61955">
        <ele>709.11</ele>
        <time>2025-09-17T14:33:45Z</time>
      </trkpt>
      <trkpt lat="44.19868" lon="2.61986">
        <ele>710.07</ele>
        <time>2025-09-17T14:33:30Z</time>
      </trkpt>
      <trkpt lat="44.19858" lon="2.62016">
        <ele>712.47</ele>
        <time>2025-09-17T14:33:15Z</time>
      </trkpt>
      <trkpt lat="44.1985" lon="2.62048">
        <ele>715.36</ele>
        <time>2025-09-17T14:33:00Z</time>
      </trkpt>
      <trkpt lat="44.19845" lon="2.62077">
        <ele>714.88</ele>
        <time>2025-09-17T14:32:47Z</time>
      </trkpt>
      <trkpt lat="44.19837" lon="2.62107">
        <ele>715.36</ele>
        <time>2025-09-17T14:32:31Z</time>
      </trkpt>
      <trkpt lat="44.1983" lon="2.62135">
        <ele>716.32</ele>
        <time>2025-09-17T14:32:18Z</time>
      </trkpt>
      <trkpt lat="44.19821" lon="2.62165">
        <ele>718.24</ele>
        <time>2025-09-17T14:32:04Z</time>
      </trkpt>
      <trkpt lat="44.19806" lon="2.62198">
        <ele>721.13</ele>
        <time>2025-09-17T14:31:46Z</time>
      </trkpt>
      <trkpt lat="44.19796" lon="2.62227">
        <ele>724.01</ele>
        <time>2025-09-17T14:31:29Z</time>
      </trkpt>
      <trkpt lat="44.19791" lon="2.62258">
        <ele>724.97</ele>
        <time>2025-09-17T14:31:11Z</time>
      </trkpt>
      <trkpt lat="44.1979" lon="2.62292">
        <ele>723.53</ele>
        <time>2025-09-17T14:30:53Z</time>
      </trkpt>
      <trkpt lat="44.19789" lon="2.62329">
        <ele>724.01</ele>
        <time>2025-09-17T14:30:31Z</time>
      </trkpt>
      <trkpt lat="44.19793" lon="2.62367">
        <ele>724.49</ele>
        <time>2025-09-17T14:30:10Z</time>
      </trkpt>
      <trkpt lat="44.19798" lon="2.62405">
        <ele>724.01</ele>
        <time>2025-09-17T14:29:50Z</time>
      </trkpt>
      <trkpt lat="44.19807" lon="2.62438">
        <ele>728.82</ele>
        <time>2025-09-17T14:29:32Z</time>
      </trkpt>
      <trkpt lat="44.19811" lon="2.6247">
        <ele>731.7</ele>
        <time>2025-09-17T14:29:14Z</time>
      </trkpt>
      <trkpt lat="44.19814" lon="2.62508">
        <ele>735.55</ele>
        <time>2025-09-17T14:28:53Z</time>
      </trkpt>
      <trkpt lat="44.19816" lon="2.62547">
        <ele>744.68</ele>
        <time>2025-09-17T14:28:34Z</time>
      </trkpt>
      <trkpt lat="44.19817" lon="2.62582">
        <ele>747.56</ele>
        <time>2025-09-17T14:28:17Z</time>
      </trkpt>
      <trkpt lat="44.19824" lon="2.62616">
        <ele>744.2</ele>
        <time>2025-09-17T14:27:57Z</time>
      </trkpt>
      <trkpt lat="44.19831" lon="2.62649">
        <ele>739.87</ele>
        <time>2025-09-17T14:27:39Z</time>
      </trkpt>
      <trkpt lat="44.19839" lon="2.62692">
        <ele>736.03</ele>
        <time>2025-09-17T14:27:20Z</time>
      </trkpt>
      <trkpt lat="44.19849" lon="2.62716">
        <ele>729.78</ele>
        <time>2025-09-17T14:27:04Z</time>
      </trkpt>
      <trkpt lat="44.19857" lon="2.62742">
        <ele>727.37</ele>
        <time>2025-09-17T14:26:46Z</time>
      </trkpt>
      <trkpt lat="44.19866" lon="2.62767">
        <ele>725.93</ele>
        <time>2025-09-17T14:26:28Z</time>
      </trkpt>
      <trkpt lat="44.19874" lon="2.62795">
        <ele>726.41</ele>
        <time>2025-09-17T14:26:11Z</time>
      </trkpt>
      <trkpt lat="44.19883" lon="2.62829">
        <ele>726.41</ele>
        <time>2025-09-17T14:25:52Z</time>
      </trkpt>
      <trkpt lat="44.19883" lon="2.6283">
        <ele>726.41</ele>
        <time>2025-09-17T14:25:51Z</time>
      </trkpt>
      <trkpt lat="44.19884" lon="2.62832">
        <ele>726.41</ele>
        <time>2025-09-17T14:25:50Z</time>
      </trkpt>
      <trkpt lat="44.19884" lon="2.62834">
        <ele>726.41</ele>
        <time>2025-09-17T14:25:49Z</time>
      </trkpt>
      <trkpt lat="44.19884" lon="2.62836">
        <ele>726.41</ele>
        <time>2025-09-17T14:25:48Z</time>
      </trkpt>
      <trkpt lat="44.19886" lon="2.62839">
        <ele>726.41</ele>
        <time>2025-09-17T14:25:46Z</time>
      </trkpt>
      <trkpt lat="44.19887" lon="2.62839">
        <ele>726.41</ele>
        <time>2025-09-17T14:25:45Z</time>
      </trkpt>
      <trkpt lat="44.19888" lon="2.62839">
        <ele>726.41</ele>
        <time>2025-09-17T14:25:44Z</time>
      </trkpt>
      <trkpt lat="44.1989" lon="2.62839">
        <ele>726.41</ele>
        <time>2025-09-17T14:25:43Z</time>
      </trkpt>
      <trkpt lat="44.19891" lon="2.62839">
        <ele>726.41</ele>
        <time>2025-09-17T14:25:42Z</time>
      </trkpt>
      <trkpt lat="44.19899" lon="2.62841">
        <ele>727.37</ele>
        <time>2025-09-17T14:25:35Z</time>
      </trkpt>
      <trkpt lat="44.19914" lon="2.62865">
        <ele>729.3</ele>
        <time>2025-09-17T14:25:21Z</time>
      </trkpt>
      <trkpt lat="44.1993" lon="2.62883">
        <ele>729.78</ele>
        <time>2025-09-17T14:25:05Z</time>
      </trkpt>
      <trkpt lat="44.19943" lon="2.62907">
        <ele>731.22</ele>
        <time>2025-09-17T14:24:50Z</time>
      </trkpt>
      <trkpt lat="44.19958" lon="2.62934">
        <ele>732.66</ele>
        <time>2025-09-17T14:24:33Z</time>
      </trkpt>
      <trkpt lat="44.1997" lon="2.62963">
        <ele>732.66</ele>
        <time>2025-09-17T14:24:18Z</time>
      </trkpt>
      <trkpt lat="44.1998" lon="2.62987">
        <ele>732.66</ele>
        <time>2025-09-17T14:24:02Z</time>
      </trkpt>
      <trkpt lat="44.19981" lon="2.62988">
        <ele>732.66</ele>
        <time>2025-09-17T14:24:01Z</time>
      </trkpt>
      <trkpt lat="44.19983" lon="2.6299">
        <ele>732.66</ele>
        <time>2025-09-17T14:24:00Z</time>
      </trkpt>
      <trkpt lat="44.19997" lon="2.63002">
        <ele>733.62</ele>
        <time>2025-09-17T14:23:45Z</time>
      </trkpt>
      <trkpt lat="44.20017" lon="2.63014">
        <ele>734.58</ele>
        <time>2025-09-17T14:23:27Z</time>
      </trkpt>
      <trkpt lat="44.20018" lon="2.63014">
        <ele>734.58</ele>
        <time>2025-09-17T14:23:26Z</time>
      </trkpt>
      <trkpt lat="44.20031" lon="2.63025">
        <ele>735.07</ele>
        <time>2025-09-17T14:23:11Z</time>
      </trkpt>
      <trkpt lat="44.20032" lon="2.63026">
        <ele>735.55</ele>
        <time>2025-09-17T14:23:10Z</time>
      </trkpt>
      <trkpt lat="44.20034" lon="2.63028">
        <ele>735.55</ele>
        <time>2025-09-17T14:23:08Z</time>
      </trkpt>
      <trkpt lat="44.20035" lon="2.63029">
        <ele>736.03</ele>
        <time>2025-09-17T14:23:07Z</time>
      </trkpt>
      <trkpt lat="44.20035" lon="2.6303">
        <ele>736.03</ele>
        <time>2025-09-17T14:23:06Z</time>
      </trkpt>
      <trkpt lat="44.20039" lon="2.63052">
        <ele>736.03</ele>
        <time>2025-09-17T14:22:51Z</time>
      </trkpt>
      <trkpt lat="44.20039" lon="2.63053">
        <ele>736.03</ele>
        <time>2025-09-17T14:22:50Z</time>
      </trkpt>
      <trkpt lat="44.20039" lon="2.63055">
        <ele>736.03</ele>
        <time>2025-09-17T14:22:49Z</time>
      </trkpt>
      <trkpt lat="44.2004" lon="2.63056">
        <ele>735.55</ele>
        <time>2025-09-17T14:22:48Z</time>
      </trkpt>
      <trkpt lat="44.20038" lon="2.6308">
        <ele>734.1</ele>
        <time>2025-09-17T14:22:35Z</time>
      </trkpt>
      <trkpt lat="44.2004" lon="2.63082">
        <ele>734.1</ele>
        <time>2025-09-17T14:22:33Z</time>
      </trkpt>
      <trkpt lat="44.20041" lon="2.63082">
        <ele>734.1</ele>
        <time>2025-09-17T14:22:32Z</time>
      </trkpt>
      <trkpt lat="44.20041" lon="2.63083">
        <ele>734.1</ele>
        <time>2025-09-17T14:22:31Z</time>
      </trkpt>
      <trkpt lat="44.20042" lon="2.63084">
        <ele>734.1</ele>
        <time>2025-09-17T14:22:30Z</time>
      </trkpt>
      <trkpt lat="44.20043" lon="2.63086">
        <ele>734.1</ele>
        <time>2025-09-17T14:22:29Z</time>
      </trkpt>
      <trkpt lat="44.20044" lon="2.63087">
        <ele>734.1</ele>
        <time>2025-09-17T14:22:28Z</time>
      </trkpt>
      <trkpt lat="44.20045" lon="2.63088">
        <ele>734.1</ele>
        <time>2025-09-17T14:22:27Z</time>
      </trkpt>
      <trkpt lat="44.20046" lon="2.63089">
        <ele>734.1</ele>
        <time>2025-09-17T14:22:26Z</time>
      </trkpt>
      <trkpt lat="44.20047" lon="2.63089">
        <ele>734.1</ele>
        <time>2025-09-17T14:22:25Z</time>
      </trkpt>
      <trkpt lat="44.20048" lon="2.6309">
        <ele>734.1</ele>
        <time>2025-09-17T14:22:24Z</time>
      </trkpt>
      <trkpt lat="44.20051" lon="2.6309">
        <ele>734.1</ele>
        <time>2025-09-17T14:22:22Z</time>
      </trkpt>
      <trkpt lat="44.20052" lon="2.6309">
        <ele>734.1</ele>
        <time>2025-09-17T14:22:21Z</time>
      </trkpt>
      <trkpt lat="44.20053" lon="2.63089">
        <ele>734.1</ele>
        <time>2025-09-17T14:22:20Z</time>
      </trkpt>
      <trkpt lat="44.20075" lon="2.63082">
        <ele>735.07</ele>
        <time>2025-09-17T14:22:03Z</time>
      </trkpt>
      <trkpt lat="44.20095" lon="2.63077">
        <ele>735.07</ele>
        <time>2025-09-17T14:21:45Z</time>
      </trkpt>
      <trkpt lat="44.20111" lon="2.63073">
        <ele>736.99</ele>
        <time>2025-09-17T14:21:31Z</time>
      </trkpt>
      <trkpt lat="44.20113" lon="2.63072">
        <ele>737.47</ele>
        <time>2025-09-17T14:21:30Z</time>
      </trkpt>
      <trkpt lat="44.20118" lon="2.63073">
        <ele>737.95</ele>
        <time>2025-09-17T14:21:25Z</time>
      </trkpt>
      <trkpt lat="44.20138" lon="2.63082">
        <ele>736.99</ele>
        <time>2025-09-17T14:21:10Z</time>
      </trkpt>
      <trkpt lat="44.20155" lon="2.63099">
        <ele>735.07</ele>
        <time>2025-09-17T14:20:56Z</time>
      </trkpt>
      <trkpt lat="44.20156" lon="2.631">
        <ele>735.07</ele>
        <time>2025-09-17T14:20:55Z</time>
      </trkpt>
      <trkpt lat="44.20157" lon="2.63101">
        <ele>735.07</ele>
        <time>2025-09-17T14:20:54Z</time>
      </trkpt>
      <trkpt lat="44.20158" lon="2.63102">
        <ele>735.07</ele>
        <time>2025-09-17T14:20:53Z</time>
      </trkpt>
      <trkpt lat="44.2016" lon="2.63103">
        <ele>735.07</ele>
        <time>2025-09-17T14:20:52Z</time>
      </trkpt>
      <trkpt lat="44.20161" lon="2.63103">
        <ele>735.07</ele>
        <time>2025-09-17T14:20:51Z</time>
      </trkpt>
      <trkpt lat="44.20163" lon="2.63105">
        <ele>734.58</ele>
        <time>2025-09-17T14:20:49Z</time>
      </trkpt>
      <trkpt lat="44.20178" lon="2.63125">
        <ele>733.14</ele>
        <time>2025-09-17T14:20:34Z</time>
      </trkpt>
      <trkpt lat="44.20189" lon="2.63146">
        <ele>733.14</ele>
        <time>2025-09-17T14:20:20Z</time>
      </trkpt>
      <trkpt lat="44.20194" lon="2.63179">
        <ele>732.18</ele>
        <time>2025-09-17T14:20:02Z</time>
      </trkpt>
      <trkpt lat="44.20196" lon="2.63208">
        <ele>731.22</ele>
        <time>2025-09-17T14:19:47Z</time>
      </trkpt>
      <trkpt lat="44.20207" lon="2.63236">
        <ele>730.74</ele>
        <time>2025-09-17T14:19:30Z</time>
      </trkpt>
      <trkpt lat="44.20218" lon="2.63269">
        <ele>730.74</ele>
        <time>2025-09-17T14:19:12Z</time>
      </trkpt>
      <trkpt lat="44.20224" lon="2.63301">
        <ele>728.34</ele>
        <time>2025-09-17T14:18:55Z</time>
      </trkpt>
      <trkpt lat="44.20224" lon="2.6334">
        <ele>730.26</ele>
        <time>2025-09-17T14:18:40Z</time>
      </trkpt>
      <trkpt lat="44.20228" lon="2.63373">
        <ele>728.82</ele>
        <time>2025-09-17T14:18:22Z</time>
      </trkpt>
      <trkpt lat="44.20234" lon="2.63396">
        <ele>724.49</ele>
        <time>2025-09-17T14:18:07Z</time>
      </trkpt>
      <trkpt lat="44.20242" lon="2.63419">
        <ele>720.16</ele>
        <time>2025-09-17T14:17:52Z</time>
      </trkpt>
      <trkpt lat="44.20251" lon="2.63447">
        <ele>717.76</ele>
        <time>2025-09-17T14:17:37Z</time>
      </trkpt>
      <trkpt lat="44.20264" lon="2.63475">
        <ele>718.24</ele>
        <time>2025-09-17T14:17:20Z</time>
      </trkpt>
      <trkpt lat="44.20275" lon="2.63507">
        <ele>715.36</ele>
        <time>2025-09-17T14:17:01Z</time>
      </trkpt>
      <trkpt lat="44.20285" lon="2.63541">
        <ele>713.44</ele>
        <time>2025-09-17T14:16:43Z</time>
      </trkpt>
      <trkpt lat="44.20292" lon="2.63569">
        <ele>711.03</ele>
        <time>2025-09-17T14:16:26Z</time>
      </trkpt>
      <trkpt lat="44.20303" lon="2.63597">
        <ele>709.11</ele>
        <time>2025-09-17T14:16:10Z</time>
      </trkpt>
      <trkpt lat="44.20315" lon="2.63618">
        <ele>705.75</ele>
        <time>2025-09-17T14:15:54Z</time>
      </trkpt>
      <trkpt lat="44.20321" lon="2.63629">
        <ele>703.82</ele>
        <time>2025-09-17T14:15:45Z</time>
      </trkpt>
      <trkpt lat="44.20336" lon="2.63647">
        <ele>700.94</ele>
        <time>2025-09-17T14:15:28Z</time>
      </trkpt>
      <trkpt lat="44.20351" lon="2.63666">
        <ele>695.17</ele>
        <time>2025-09-17T14:15:11Z</time>
      </trkpt>
      <trkpt lat="44.20358" lon="2.63674">
        <ele>693.73</ele>
        <time>2025-09-17T14:15:01Z</time>
      </trkpt>
      <trkpt lat="44.20365" lon="2.63687">
        <ele>692.77</ele>
        <time>2025-09-17T14:14:47Z</time>
      </trkpt>
      <trkpt lat="44.20379" lon="2.63699">
        <ele>692.77</ele>
        <time>2025-09-17T14:14:33Z</time>
      </trkpt>
      <trkpt lat="44.20388" lon="2.63704">
        <ele>691.33</ele>
        <time>2025-09-17T14:14:05Z</time>
      </trkpt>
      <trkpt lat="44.20393" lon="2.63707">
        <ele>689.88</ele>
        <time>2025-09-17T14:13:49Z</time>
      </trkpt>
      <trkpt lat="44.20393" lon="2.6371">
        <ele>692.29</ele>
        <time>2025-09-17T14:13:21Z</time>
      </trkpt>
      <trkpt lat="44.20403" lon="2.6372">
        <ele>693.73</ele>
        <time>2025-09-17T14:13:07Z</time>
      </trkpt>
      <trkpt lat="44.20409" lon="2.63728">
        <ele>697.09</ele>
        <time>2025-09-17T14:12:43Z</time>
      </trkpt>
      <trkpt lat="44.2041" lon="2.63728">
        <ele>695.65</ele>
        <time>2025-09-17T14:12:23Z</time>
      </trkpt>
      <trkpt lat="44.20419" lon="2.63738">
        <ele>692.77</ele>
        <time>2025-09-17T14:12:03Z</time>
      </trkpt>
      <trkpt lat="44.20439" lon="2.63755">
        <ele>690.36</ele>
        <time>2025-09-17T14:11:47Z</time>
      </trkpt>
      <trkpt lat="44.20456" lon="2.63761">
        <ele>687.96</ele>
        <time>2025-09-17T14:11:35Z</time>
      </trkpt>
      <trkpt lat="44.20474" lon="2.63765">
        <ele>685.56</ele>
        <time>2025-09-17T14:11:22Z</time>
      </trkpt>
      <trkpt lat="44.20487" lon="2.63758">
        <ele>686.52</ele>
        <time>2025-09-17T14:11:10Z</time>
      </trkpt>
      <trkpt lat="44.20498" lon="2.63747">
        <ele>692.29</ele>
        <time>2025-09-17T14:10:56Z</time>
      </trkpt>
      <trkpt lat="44.20506" lon="2.63754">
        <ele>696.61</ele>
        <time>2025-09-17T14:10:49Z</time>
      </trkpt>
      <trkpt lat="44.20514" lon="2.63766">
        <ele>699.02</ele>
        <time>2025-09-17T14:10:41Z</time>
      </trkpt>
      <trkpt lat="44.20529" lon="2.63786">
        <ele>700.94</ele>
        <time>2025-09-17T14:10:25Z</time>
      </trkpt>
      <trkpt lat="44.20543" lon="2.63804">
        <ele>702.86</ele>
        <time>2025-09-17T14:10:10Z</time>
      </trkpt>
      <trkpt lat="44.20562" lon="2.63823">
        <ele>703.34</ele>
        <time>2025-09-17T14:09:52Z</time>
      </trkpt>
      <trkpt lat="44.20581" lon="2.63837">
        <ele>704.3</ele>
        <time>2025-09-17T14:09:35Z</time>
      </trkpt>
      <trkpt lat="44.206" lon="2.63851">
        <ele>704.78</ele>
        <time>2025-09-17T14:09:19Z</time>
      </trkpt>
      <trkpt lat="44.20622" lon="2.63868">
        <ele>704.78</ele>
        <time>2025-09-17T14:09:01Z</time>
      </trkpt>
      <trkpt lat="44.20645" lon="2.63885">
        <ele>705.75</ele>
        <time>2025-09-17T14:08:44Z</time>
      </trkpt>
      <trkpt lat="44.20662" lon="2.63895">
        <ele>709.59</ele>
        <time>2025-09-17T14:08:28Z</time>
      </trkpt>
      <trkpt lat="44.20681" lon="2.63903">
        <ele>712.95</ele>
        <time>2025-09-17T14:08:14Z</time>
      </trkpt>
      <trkpt lat="44.20697" lon="2.63919">
        <ele>714.88</ele>
        <time>2025-09-17T14:07:59Z</time>
      </trkpt>
      <trkpt lat="44.20698" lon="2.63921">
        <ele>714.88</ele>
        <time>2025-09-17T14:07:58Z</time>
      </trkpt>
      <trkpt lat="44.20699" lon="2.63923">
        <ele>714.88</ele>
        <time>2025-09-17T14:07:57Z</time>
      </trkpt>
      <trkpt lat="44.207" lon="2.63924">
        <ele>715.36</ele>
        <time>2025-09-17T14:07:56Z</time>
      </trkpt>
      <trkpt lat="44.20702" lon="2.63926">
        <ele>715.36</ele>
        <time>2025-09-17T14:07:55Z</time>
      </trkpt>
      <trkpt lat="44.20703" lon="2.63927">
        <ele>715.36</ele>
        <time>2025-09-17T14:07:54Z</time>
      </trkpt>
      <trkpt lat="44.20705" lon="2.63929">
        <ele>715.36</ele>
        <time>2025-09-17T14:07:51Z</time>
      </trkpt>
      <trkpt lat="44.20706" lon="2.6393">
        <ele>715.36</ele>
        <time>2025-09-17T14:07:50Z</time>
      </trkpt>
      <trkpt lat="44.20707" lon="2.63931">
        <ele>715.36</ele>
        <time>2025-09-17T14:07:49Z</time>
      </trkpt>
      <trkpt lat="44.20708" lon="2.63932">
        <ele>715.84</ele>
        <time>2025-09-17T14:07:48Z</time>
      </trkpt>
      <trkpt lat="44.2072" lon="2.63952">
        <ele>717.76</ele>
        <time>2025-09-17T14:07:36Z</time>
      </trkpt>
      <trkpt lat="44.20735" lon="2.63973">
        <ele>717.76</ele>
        <time>2025-09-17T14:07:20Z</time>
      </trkpt>
      <trkpt lat="44.20745" lon="2.63994">
        <ele>714.88</ele>
        <time>2025-09-17T14:07:06Z</time>
      </trkpt>
      <trkpt lat="44.20754" lon="2.64008">
        <ele>712.47</ele>
        <time>2025-09-17T14:06:53Z</time>
      </trkpt>
      <trkpt lat="44.20757" lon="2.64007">
        <ele>711.99</ele>
        <time>2025-09-17T14:06:38Z</time>
      </trkpt>
      <trkpt lat="44.20758" lon="2.64007">
        <ele>712.47</ele>
        <time>2025-09-17T14:06:27Z</time>
      </trkpt>
      <trkpt lat="44.20768" lon="2.64033">
        <ele>715.84</ele>
        <time>2025-09-17T14:06:14Z</time>
      </trkpt>
      <trkpt lat="44.20778" lon="2.64054">
        <ele>718.72</ele>
        <time>2025-09-17T14:05:59Z</time>
      </trkpt>
      <trkpt lat="44.20784" lon="2.64066">
        <ele>721.13</ele>
        <time>2025-09-17T14:05:44Z</time>
      </trkpt>
      <trkpt lat="44.20791" lon="2.64084">
        <ele>723.53</ele>
        <time>2025-09-17T14:05:29Z</time>
      </trkpt>
      <trkpt lat="44.20799" lon="2.64116">
        <ele>724.49</ele>
        <time>2025-09-17T14:05:10Z</time>
      </trkpt>
      <trkpt lat="44.20808" lon="2.64146">
        <ele>725.45</ele>
        <time>2025-09-17T14:04:52Z</time>
      </trkpt>
      <trkpt lat="44.20817" lon="2.64178">
        <ele>727.86</ele>
        <time>2025-09-17T14:04:35Z</time>
      </trkpt>
      <trkpt lat="44.20828" lon="2.64208">
        <ele>729.3</ele>
        <time>2025-09-17T14:04:18Z</time>
      </trkpt>
      <trkpt lat="44.20846" lon="2.64235">
        <ele>731.7</ele>
        <time>2025-09-17T14:03:59Z</time>
      </trkpt>
      <trkpt lat="44.20862" lon="2.64262">
        <ele>734.1</ele>
        <time>2025-09-17T14:03:41Z</time>
      </trkpt>
      <trkpt lat="44.20878" lon="2.64287">
        <ele>736.51</ele>
        <time>2025-09-17T14:03:25Z</time>
      </trkpt>
      <trkpt lat="44.2089" lon="2.64315">
        <ele>737.47</ele>
        <time>2025-09-17T14:03:08Z</time>
      </trkpt>
      <trkpt lat="44.20902" lon="2.64339">
        <ele>739.39</ele>
        <time>2025-09-17T14:02:52Z</time>
      </trkpt>
      <trkpt lat="44.20905" lon="2.64348">
        <ele>739.87</ele>
        <time>2025-09-17T14:02:46Z</time>
      </trkpt>
      <trkpt lat="44.20914" lon="2.64372">
        <ele>741.31</ele>
        <time>2025-09-17T14:02:32Z</time>
      </trkpt>
      <trkpt lat="44.20921" lon="2.64402">
        <ele>742.28</ele>
        <time>2025-09-17T14:02:17Z</time>
      </trkpt>
      <trkpt lat="44.20926" lon="2.64423">
        <ele>742.28</ele>
        <time>2025-09-17T14:01:59Z</time>
      </trkpt>
      <trkpt lat="44.20932" lon="2.64446">
        <ele>741.79</ele>
        <time>2025-09-17T14:01:45Z</time>
      </trkpt>
      <trkpt lat="44.20933" lon="2.64448">
        <ele>741.79</ele>
        <time>2025-09-17T14:01:44Z</time>
      </trkpt>
      <trkpt lat="44.20933" lon="2.6445">
        <ele>741.79</ele>
        <time>2025-09-17T14:01:43Z</time>
      </trkpt>
      <trkpt lat="44.20934" lon="2.64458">
        <ele>742.28</ele>
        <time>2025-09-17T14:01:35Z</time>
      </trkpt>
      <trkpt lat="44.20935" lon="2.6446">
        <ele>742.28</ele>
        <time>2025-09-17T14:01:34Z</time>
      </trkpt>
      <trkpt lat="44.20945" lon="2.64485">
        <ele>742.28</ele>
        <time>2025-09-17T14:01:17Z</time>
      </trkpt>
      <trkpt lat="44.20954" lon="2.64512">
        <ele>743.24</ele>
        <time>2025-09-17T14:00:59Z</time>
      </trkpt>
      <trkpt lat="44.20965" lon="2.64539">
        <ele>743.72</ele>
        <time>2025-09-17T14:00:43Z</time>
      </trkpt>
      <trkpt lat="44.20974" lon="2.64569">
        <ele>743.72</ele>
        <time>2025-09-17T14:00:29Z</time>
      </trkpt>
      <trkpt lat="44.2097" lon="2.64597">
        <ele>745.16</ele>
        <time>2025-09-17T14:00:14Z</time>
      </trkpt>
      <trkpt lat="44.20966" lon="2.64634">
        <ele>747.56</ele>
        <time>2025-09-17T13:59:58Z</time>
      </trkpt>
      <trkpt lat="44.20979" lon="2.64663">
        <ele>745.16</ele>
        <time>2025-09-17T13:59:42Z</time>
      </trkpt>
      <trkpt lat="44.21001" lon="2.64678">
        <ele>742.28</ele>
        <time>2025-09-17T13:59:23Z</time>
      </trkpt>
      <trkpt lat="44.21022" lon="2.64685">
        <ele>742.28</ele>
        <time>2025-09-17T13:59:06Z</time>
      </trkpt>
      <trkpt lat="44.21041" lon="2.64701">
        <ele>739.87</ele>
        <time>2025-09-17T13:58:49Z</time>
      </trkpt>
      <trkpt lat="44.21049" lon="2.64718">
        <ele>736.51</ele>
        <time>2025-09-17T13:58:36Z</time>
      </trkpt>
      <trkpt lat="44.21047" lon="2.64749">
        <ele>735.07</ele>
        <time>2025-09-17T13:58:19Z</time>
      </trkpt>
      <trkpt lat="44.21039" lon="2.64775">
        <ele>733.62</ele>
        <time>2025-09-17T13:58:04Z</time>
      </trkpt>
      <trkpt lat="44.21038" lon="2.64805">
        <ele>734.1</ele>
        <time>2025-09-17T13:57:48Z</time>
      </trkpt>
      <trkpt lat="44.21037" lon="2.64832">
        <ele>735.07</ele>
        <time>2025-09-17T13:57:32Z</time>
      </trkpt>
      <trkpt lat="44.21038" lon="2.64864">
        <ele>735.55</ele>
        <time>2025-09-17T13:57:16Z</time>
      </trkpt>
      <trkpt lat="44.2104" lon="2.64896">
        <ele>739.39</ele>
        <time>2025-09-17T13:56:59Z</time>
      </trkpt>
      <trkpt lat="44.21042" lon="2.64936">
        <ele>742.28</ele>
        <time>2025-09-17T13:56:40Z</time>
      </trkpt>
      <trkpt lat="44.21044" lon="2.64973">
        <ele>744.68</ele>
        <time>2025-09-17T13:56:21Z</time>
      </trkpt>
      <trkpt lat="44.21044" lon="2.6501">
        <ele>747.56</ele>
        <time>2025-09-17T13:56:02Z</time>
      </trkpt>
      <trkpt lat="44.21047" lon="2.65045">
        <ele>749.49</ele>
        <time>2025-09-17T13:55:44Z</time>
      </trkpt>
      <trkpt lat="44.2105" lon="2.6508">
        <ele>752.85</ele>
        <time>2025-09-17T13:55:26Z</time>
      </trkpt>
      <trkpt lat="44.21052" lon="2.65117">
        <ele>753.81</ele>
        <time>2025-09-17T13:55:08Z</time>
      </trkpt>
      <trkpt lat="44.21058" lon="2.65149">
        <ele>756.69</ele>
        <time>2025-09-17T13:54:51Z</time>
      </trkpt>
      <trkpt lat="44.21074" lon="2.65174">
        <ele>756.69</ele>
        <time>2025-09-17T13:54:33Z</time>
      </trkpt>
      <trkpt lat="44.21095" lon="2.65202">
        <ele>753.81</ele>
        <time>2025-09-17T13:54:11Z</time>
      </trkpt>
      <trkpt lat="44.21112" lon="2.65225">
        <ele>751.89</ele>
        <time>2025-09-17T13:53:52Z</time>
      </trkpt>
      <trkpt lat="44.21127" lon="2.65241">
        <ele>752.85</ele>
        <time>2025-09-17T13:53:35Z</time>
      </trkpt>
      <trkpt lat="44.21144" lon="2.65263">
        <ele>753.81</ele>
        <time>2025-09-17T13:53:18Z</time>
      </trkpt>
      <trkpt lat="44.21157" lon="2.65286">
        <ele>755.25</ele>
        <time>2025-09-17T13:53:02Z</time>
      </trkpt>
      <trkpt lat="44.2116" lon="2.65318">
        <ele>758.14</ele>
        <time>2025-09-17T13:52:46Z</time>
      </trkpt>
      <trkpt lat="44.21164" lon="2.65346">
        <ele>761.5</ele>
        <time>2025-09-17T13:52:31Z</time>
      </trkpt>
      <trkpt lat="44.21181" lon="2.65367">
        <ele>762.46</ele>
        <time>2025-09-17T13:52:14Z</time>
      </trkpt>
      <trkpt lat="44.212" lon="2.65366">
        <ele>762.46</ele>
        <time>2025-09-17T13:51:57Z</time>
      </trkpt>
      <trkpt lat="44.21201" lon="2.65366">
        <ele>762.46</ele>
        <time>2025-09-17T13:51:56Z</time>
      </trkpt>
      <trkpt lat="44.21203" lon="2.65366">
        <ele>762.46</ele>
        <time>2025-09-17T13:51:55Z</time>
      </trkpt>
      <trkpt lat="44.21204" lon="2.65366">
        <ele>762.46</ele>
        <time>2025-09-17T13:51:54Z</time>
      </trkpt>
      <trkpt lat="44.21205" lon="2.65367">
        <ele>762.46</ele>
        <time>2025-09-17T13:51:53Z</time>
      </trkpt>
      <trkpt lat="44.21206" lon="2.65367">
        <ele>762.46</ele>
        <time>2025-09-17T13:51:52Z</time>
      </trkpt>
      <trkpt lat="44.21211" lon="2.65366">
        <ele>761.98</ele>
        <time>2025-09-17T13:51:41Z</time>
      </trkpt>
      <trkpt lat="44.21232" lon="2.65349">
        <ele>760.54</ele>
        <time>2025-09-17T13:51:24Z</time>
      </trkpt>
      <trkpt lat="44.21251" lon="2.6534">
        <ele>761.98</ele>
        <time>2025-09-17T13:51:11Z</time>
      </trkpt>
      <trkpt lat="44.21273" lon="2.65326">
        <ele>763.9</ele>
        <time>2025-09-17T13:50:58Z</time>
      </trkpt>
      <trkpt lat="44.21275" lon="2.65325">
        <ele>764.39</ele>
        <time>2025-09-17T13:50:57Z</time>
      </trkpt>
      <trkpt lat="44.21276" lon="2.65324">
        <ele>764.39</ele>
        <time>2025-09-17T13:50:56Z</time>
      </trkpt>
      <trkpt lat="44.21291" lon="2.65319">
        <ele>766.79</ele>
        <time>2025-09-17T13:50:49Z</time>
      </trkpt>
      <trkpt lat="44.21312" lon="2.65316">
        <ele>766.31</ele>
        <time>2025-09-17T13:50:35Z</time>
      </trkpt>
      <trkpt lat="44.21316" lon="2.65315">
        <ele>766.31</ele>
        <time>2025-09-17T13:50:32Z</time>
      </trkpt>
      <trkpt lat="44.21317" lon="2.65314">
        <ele>766.31</ele>
        <time>2025-09-17T13:50:31Z</time>
      </trkpt>
      <trkpt lat="44.21322" lon="2.65314">
        <ele>766.31</ele>
        <time>2025-09-17T13:50:28Z</time>
      </trkpt>
      <trkpt lat="44.21348" lon="2.6531">
        <ele>765.83</ele>
        <time>2025-09-17T13:50:12Z</time>
      </trkpt>
      <trkpt lat="44.21364" lon="2.6531">
        <ele>766.31</ele>
        <time>2025-09-17T13:49:57Z</time>
      </trkpt>
      <trkpt lat="44.21391" lon="2.65311">
        <ele>765.35</ele>
        <time>2025-09-17T13:49:39Z</time>
      </trkpt>
      <trkpt lat="44.21416" lon="2.65307">
        <ele>763.42</ele>
        <time>2025-09-17T13:49:21Z</time>
      </trkpt>
      <trkpt lat="44.21439" lon="2.65314">
        <ele>765.35</ele>
        <time>2025-09-17T13:49:05Z</time>
      </trkpt>
      <trkpt lat="44.21466" lon="2.65325">
        <ele>767.75</ele>
        <time>2025-09-17T13:48:47Z</time>
      </trkpt>
      <trkpt lat="44.21467" lon="2.65326">
        <ele>768.23</ele>
        <time>2025-09-17T13:48:46Z</time>
      </trkpt>
      <trkpt lat="44.21468" lon="2.65326">
        <ele>768.23</ele>
        <time>2025-09-17T13:48:45Z</time>
      </trkpt>
      <trkpt lat="44.21469" lon="2.65326">
        <ele>768.23</ele>
        <time>2025-09-17T13:48:44Z</time>
      </trkpt>
      <trkpt lat="44.2147" lon="2.65326">
        <ele>768.23</ele>
        <time>2025-09-17T13:48:43Z</time>
      </trkpt>
      <trkpt lat="44.21472" lon="2.65326">
        <ele>768.23</ele>
        <time>2025-09-17T13:48:42Z</time>
      </trkpt>
      <trkpt lat="44.21477" lon="2.65343">
        <ele>770.15</ele>
        <time>2025-09-17T13:48:32Z</time>
      </trkpt>
      <trkpt lat="44.21478" lon="2.65373">
        <ele>769.67</ele>
        <time>2025-09-17T13:48:15Z</time>
      </trkpt>
      <trkpt lat="44.21475" lon="2.65401">
        <ele>770.15</ele>
        <time>2025-09-17T13:48:01Z</time>
      </trkpt>
      <trkpt lat="44.21472" lon="2.65434">
        <ele>769.19</ele>
        <time>2025-09-17T13:47:44Z</time>
      </trkpt>
      <trkpt lat="44.21472" lon="2.65439">
        <ele>769.19</ele>
        <time>2025-09-17T13:47:34Z</time>
      </trkpt>
      <trkpt lat="44.21472" lon="2.65443">
        <ele>770.15</ele>
        <time>2025-09-17T13:47:10Z</time>
      </trkpt>
      <trkpt lat="44.21484" lon="2.65453">
        <ele>765.83</ele>
        <time>2025-09-17T13:46:55Z</time>
      </trkpt>
      <trkpt lat="44.21488" lon="2.65453">
        <ele>765.83</ele>
        <time>2025-09-17T13:46:53Z</time>
      </trkpt>
      <trkpt lat="44.21504" lon="2.65452">
        <ele>759.58</ele>
        <time>2025-09-17T13:46:39Z</time>
      </trkpt>
      <trkpt lat="44.21525" lon="2.6545">
        <ele>754.77</ele>
        <time>2025-09-17T13:46:21Z</time>
      </trkpt>
      <trkpt lat="44.21543" lon="2.65446">
        <ele>750.45</ele>
        <time>2025-09-17T13:46:05Z</time>
      </trkpt>
      <trkpt lat="44.21562" lon="2.65443">
        <ele>744.68</ele>
        <time>2025-09-17T13:45:49Z</time>
      </trkpt>
      <trkpt lat="44.21579" lon="2.65442">
        <ele>742.28</ele>
        <time>2025-09-17T13:45:34Z</time>
      </trkpt>
      <trkpt lat="44.21586" lon="2.65442">
        <ele>740.35</ele>
        <time>2025-09-17T13:45:27Z</time>
      </trkpt>
      <trkpt lat="44.21603" lon="2.65442">
        <ele>736.51</ele>
        <time>2025-09-17T13:45:13Z</time>
      </trkpt>
      <trkpt lat="44.21628" lon="2.6543">
        <ele>724.97</ele>
        <time>2025-09-17T13:44:54Z</time>
      </trkpt>
      <trkpt lat="44.21645" lon="2.65416">
        <ele>719.68</ele>
        <time>2025-09-17T13:44:37Z</time>
      </trkpt>
      <trkpt lat="44.21655" lon="2.65417">
        <ele>718.24</ele>
        <time>2025-09-17T13:44:21Z</time>
      </trkpt>
      <trkpt lat="44.21672" lon="2.6542">
        <ele>716.32</ele>
        <time>2025-09-17T13:44:06Z</time>
      </trkpt>
      <trkpt lat="44.21689" lon="2.65418">
        <ele>714.4</ele>
        <time>2025-09-17T13:43:51Z</time>
      </trkpt>
      <trkpt lat="44.21707" lon="2.65416">
        <ele>715.36</ele>
        <time>2025-09-17T13:43:39Z</time>
      </trkpt>
      <trkpt lat="44.21719" lon="2.65412">
        <ele>715.36</ele>
        <time>2025-09-17T13:43:32Z</time>
      </trkpt>
      <trkpt lat="44.21734" lon="2.654">
        <ele>714.88</ele>
        <time>2025-09-17T13:43:18Z</time>
      </trkpt>
      <trkpt lat="44.21738" lon="2.6538">
        <ele>712.95</ele>
        <time>2025-09-17T13:43:02Z</time>
      </trkpt>
      <trkpt lat="44.21735" lon="2.65374">
        <ele>710.07</ele>
        <time>2025-09-17T13:42:57Z</time>
      </trkpt>
      <trkpt lat="44.21731" lon="2.6536">
        <ele>708.15</ele>
        <time>2025-09-17T13:42:42Z</time>
      </trkpt>
      <trkpt lat="44.21733" lon="2.65361">
        <ele>710.07</ele>
        <time>2025-09-17T13:42:12Z</time>
      </trkpt>
      <trkpt lat="44.21734" lon="2.65356">
        <ele>713.44</ele>
        <time>2025-09-17T13:41:52Z</time>
      </trkpt>
      <trkpt lat="44.21735" lon="2.65354">
        <ele>711.99</ele>
        <time>2025-09-17T13:41:33Z</time>
      </trkpt>
      <trkpt lat="44.21734" lon="2.65351">
        <ele>706.71</ele>
        <time>2025-09-17T13:41:12Z</time>
      </trkpt>
      <trkpt lat="44.21731" lon="2.65349">
        <ele>706.71</ele>
        <time>2025-09-17T13:40:56Z</time>
      </trkpt>
      <trkpt lat="44.2173" lon="2.65354">
        <ele>709.11</ele>
        <time>2025-09-17T13:40:39Z</time>
      </trkpt>
      <trkpt lat="44.21732" lon="2.65357">
        <ele>709.59</ele>
        <time>2025-09-17T13:40:38Z</time>
      </trkpt>
      <trkpt lat="44.21734" lon="2.6537">
        <ele>711.51</ele>
        <time>2025-09-17T13:40:28Z</time>
      </trkpt>
      <trkpt lat="44.21735" lon="2.65368">
        <ele>710.55</ele>
        <time>2025-09-17T13:40:07Z</time>
      </trkpt>
      <trkpt lat="44.21734" lon="2.65363">
        <ele>705.26</ele>
        <time>2025-09-17T13:39:42Z</time>
      </trkpt>
      <trkpt lat="44.21727" lon="2.65358">
        <ele>706.71</ele>
        <time>2025-09-17T13:39:21Z</time>
      </trkpt>
      <trkpt lat="44.21724" lon="2.65353">
        <ele>708.15</ele>
        <time>2025-09-17T13:38:59Z</time>
      </trkpt>
      <trkpt lat="44.21718" lon="2.65347">
        <ele>708.63</ele>
        <time>2025-09-17T13:38:43Z</time>
      </trkpt>
      <trkpt lat="44.2173" lon="2.65362">
        <ele>708.15</ele>
        <time>2025-09-17T13:38:03Z</time>
      </trkpt>
      <trkpt lat="44.21725" lon="2.65359">
        <ele>706.23</ele>
        <time>2025-09-17T13:37:33Z</time>
      </trkpt>
      <trkpt lat="44.21723" lon="2.65354">
        <ele>706.71</ele>
        <time>2025-09-17T13:37:05Z</time>
      </trkpt>
      <trkpt lat="44.21726" lon="2.65353">
        <ele>707.19</ele>
        <time>2025-09-17T13:36:40Z</time>
      </trkpt>
      <trkpt lat="44.21726" lon="2.65355">
        <ele>707.67</ele>
        <time>2025-09-17T13:36:13Z</time>
      </trkpt>
      <trkpt lat="44.21727" lon="2.65357">
        <ele>708.15</ele>
        <time>2025-09-17T13:35:51Z</time>
      </trkpt>
      <trkpt lat="44.21729" lon="2.65355">
        <ele>707.19</ele>
        <time>2025-09-17T13:35:31Z</time>
      </trkpt>
      <trkpt lat="44.21735" lon="2.65359">
        <ele>706.23</ele>
        <time>2025-09-17T13:35:13Z</time>
      </trkpt>
      <trkpt lat="44.21737" lon="2.65359">
        <ele>706.71</ele>
        <time>2025-09-17T13:34:51Z</time>
      </trkpt>
      <trkpt lat="44.21735" lon="2.65359">
        <ele>704.3</ele>
        <time>2025-09-17T13:34:30Z</time>
      </trkpt>
      <trkpt lat="44.21734" lon="2.65354">
        <ele>703.82</ele>
        <time>2025-09-17T13:34:16Z</time>
      </trkpt>
      <trkpt lat="44.21732" lon="2.65353">
        <ele>704.3</ele>
        <time>2025-09-17T13:34:02Z</time>
      </trkpt>
      <trkpt lat="44.2173" lon="2.65357">
        <ele>707.67</ele>
        <time>2025-09-17T13:33:47Z</time>
      </trkpt>
      <trkpt lat="44.21727" lon="2.65368">
        <ele>714.88</ele>
        <time>2025-09-17T13:33:32Z</time>
      </trkpt>
      <trkpt lat="44.21716" lon="2.65391">
        <ele>721.13</ele>
        <time>2025-09-17T13:33:16Z</time>
      </trkpt>
      <trkpt lat="44.2171" lon="2.65407">
        <ele>723.05</ele>
        <time>2025-09-17T13:33:00Z</time>
      </trkpt>
      <trkpt lat="44.21704" lon="2.65411">
        <ele>727.37</ele>
        <time>2025-09-17T13:32:36Z</time>
      </trkpt>
      <trkpt lat="44.21715" lon="2.6541">
        <ele>733.62</ele>
        <time>2025-09-17T13:32:02Z</time>
      </trkpt>
      <trkpt lat="44.21723" lon="2.65405">
        <ele>727.37</ele>
        <time>2025-09-17T13:31:26Z</time>
      </trkpt>
      <trkpt lat="44.21731" lon="2.65405">
        <ele>723.53</ele>
        <time>2025-09-17T13:31:09Z</time>
      </trkpt>
      <trkpt lat="44.21741" lon="2.65398">
        <ele>719.68</ele>
        <time>2025-09-17T13:30:54Z</time>
      </trkpt>
      <trkpt lat="44.21744" lon="2.65386">
        <ele>716.8</ele>
        <time>2025-09-17T13:30:40Z</time>
      </trkpt>
      <trkpt lat="44.21744" lon="2.65374">
        <ele>712.95</ele>
        <time>2025-09-17T13:30:29Z</time>
      </trkpt>
      <trkpt lat="44.21743" lon="2.6536">
        <ele>710.07</ele>
        <time>2025-09-17T13:30:15Z</time>
      </trkpt>
      <trkpt lat="44.21736" lon="2.65354">
        <ele>710.07</ele>
        <time>2025-09-17T13:29:55Z</time>
      </trkpt>
      <trkpt lat="44.21736" lon="2.65356">
        <ele>712.95</ele>
        <time>2025-09-17T13:29:40Z</time>
      </trkpt>
      <trkpt lat="44.21737" lon="2.65365">
        <ele>717.28</ele>
        <time>2025-09-17T13:29:18Z</time>
      </trkpt>
      <trkpt lat="44.21741" lon="2.65357">
        <ele>715.36</ele>
        <time>2025-09-17T13:28:52Z</time>
      </trkpt>
      <trkpt lat="44.21737" lon="2.65354">
        <ele>714.88</ele>
        <time>2025-09-17T13:28:34Z</time>
      </trkpt>
      <trkpt lat="44.2174" lon="2.65359">
        <ele>715.36</ele>
        <time>2025-09-17T13:28:11Z</time>
      </trkpt>
      <trkpt lat="44.21734" lon="2.65361">
        <ele>716.8</ele>
        <time>2025-09-17T13:27:53Z</time>
      </trkpt>
      <trkpt lat="44.21739" lon="2.65361">
        <ele>715.36</ele>
        <time>2025-09-17T13:27:32Z</time>
      </trkpt>
      <trkpt lat="44.21739" lon="2.65363">
        <ele>711.99</ele>
        <time>2025-09-17T13:27:14Z</time>
      </trkpt>
      <trkpt lat="44.21738" lon="2.65362">
        <ele>712.47</ele>
        <time>2025-09-17T13:26:54Z</time>
      </trkpt>
      <trkpt lat="44.21729" lon="2.6537">
        <ele>717.76</ele>
        <time>2025-09-17T13:26:38Z</time>
      </trkpt>
      <trkpt lat="44.21734" lon="2.65364">
        <ele>715.84</ele>
        <time>2025-09-17T13:26:13Z</time>
      </trkpt>
      <trkpt lat="44.21733" lon="2.65359">
        <ele>714.88</ele>
        <time>2025-09-17T13:25:48Z</time>
      </trkpt>
      <trkpt lat="44.21734" lon="2.65364">
        <ele>712.95</ele>
        <time>2025-09-17T13:25:24Z</time>
      </trkpt>
      <trkpt lat="44.21731" lon="2.65357">
        <ele>714.4</ele>
        <time>2025-09-17T13:25:06Z</time>
      </trkpt>
      <trkpt lat="44.2173" lon="2.65365">
        <ele>717.76</ele>
        <time>2025-09-17T13:24:48Z</time>
      </trkpt>
      <trkpt lat="44.21735" lon="2.65371">
        <ele>716.8</ele>
        <time>2025-09-17T13:24:31Z</time>
      </trkpt>
      <trkpt lat="44.21734" lon="2.65376">
        <ele>715.84</ele>
        <time>2025-09-17T13:24:09Z</time>
      </trkpt>
      <trkpt lat="44.21731" lon="2.65356">
        <ele>711.51</ele>
        <time>2025-09-17T13:23:44Z</time>
      </trkpt>
      <trkpt lat="44.21732" lon="2.65348">
        <ele>707.19</ele>
        <time>2025-09-17T13:23:23Z</time>
      </trkpt>
      <trkpt lat="44.21736" lon="2.65361">
        <ele>705.75</ele>
        <time>2025-09-17T13:22:49Z</time>
      </trkpt>
      <trkpt lat="44.21736" lon="2.65366">
        <ele>705.75</ele>
        <time>2025-09-17T13:22:30Z</time>
      </trkpt>
      <trkpt lat="44.21733" lon="2.65365">
        <ele>704.78</ele>
        <time>2025-09-17T13:22:11Z</time>
      </trkpt>
      <trkpt lat="44.21735" lon="2.65362">
        <ele>706.23</ele>
        <time>2025-09-17T13:21:57Z</time>
      </trkpt>
      <trkpt lat="44.21736" lon="2.65364">
        <ele>704.3</ele>
        <time>2025-09-17T13:21:41Z</time>
      </trkpt>
      <trkpt lat="44.21735" lon="2.65366">
        <ele>709.59</ele>
        <time>2025-09-17T13:21:26Z</time>
      </trkpt>
      <trkpt lat="44.21739" lon="2.65369">
        <ele>710.55</ele>
        <time>2025-09-17T13:21:11Z</time>
      </trkpt>
      <trkpt lat="44.21741" lon="2.65366">
        <ele>709.59</ele>
        <time>2025-09-17T13:20:51Z</time>
      </trkpt>
      <trkpt lat="44.21741" lon="2.65368">
        <ele>709.59</ele>
        <time>2025-09-17T13:20:34Z</time>
      </trkpt>
      <trkpt lat="44.21742" lon="2.6537">
        <ele>707.19</ele>
        <time>2025-09-17T13:20:06Z</time>
      </trkpt>
      <trkpt lat="44.21743" lon="2.65373">
        <ele>707.67</ele>
        <time>2025-09-17T13:19:44Z</time>
      </trkpt>
      <trkpt lat="44.21739" lon="2.65373">
        <ele>715.36</ele>
        <time>2025-09-17T13:19:15Z</time>
      </trkpt>
      <trkpt lat="44.21739" lon="2.65368">
        <ele>717.28</ele>
        <time>2025-09-17T13:18:57Z</time>
      </trkpt>
      <trkpt lat="44.21743" lon="2.65374">
        <ele>716.8</ele>
        <time>2025-09-17T13:18:45Z</time>
      </trkpt>
      <trkpt lat="44.21741" lon="2.65367">
        <ele>717.76</ele>
        <time>2025-09-17T13:18:27Z</time>
      </trkpt>
      <trkpt lat="44.21746" lon="2.65369">
        <ele>720.16</ele>
        <time>2025-09-17T13:18:09Z</time>
      </trkpt>
      <trkpt lat="44.21733" lon="2.6537">
        <ele>717.28</ele>
        <time>2025-09-17T13:17:39Z</time>
      </trkpt>
      <trkpt lat="44.21737" lon="2.65374">
        <ele>717.28</ele>
        <time>2025-09-17T13:17:12Z</time>
      </trkpt>
      <trkpt lat="44.21735" lon="2.65377">
        <ele>717.76</ele>
        <time>2025-09-17T13:16:46Z</time>
      </trkpt>
      <trkpt lat="44.21736" lon="2.65387">
        <ele>713.44</ele>
        <time>2025-09-17T13:16:12Z</time>
      </trkpt>
      <trkpt lat="44.21738" lon="2.65388">
        <ele>712.95</ele>
        <time>2025-09-17T13:15:42Z</time>
      </trkpt>
      <trkpt lat="44.21738" lon="2.65386">
        <ele>713.44</ele>
        <time>2025-09-17T13:15:15Z</time>
      </trkpt>
      <trkpt lat="44.21738" lon="2.65386">
        <ele>713.44</ele>
        <time>2025-09-17T13:14:52Z</time>
      </trkpt>
      <trkpt lat="44.2174" lon="2.65384">
        <ele>714.88</ele>
        <time>2025-09-17T13:14:21Z</time>
      </trkpt>
      <trkpt lat="44.21738" lon="2.65383">
        <ele>719.68</ele>
        <time>2025-09-17T13:13:47Z</time>
      </trkpt>
      <trkpt lat="44.21742" lon="2.65382">
        <ele>719.2</ele>
        <time>2025-09-17T13:13:10Z</time>
      </trkpt>
      <trkpt lat="44.21737" lon="2.65383">
        <ele>718.72</ele>
        <time>2025-09-17T13:12:35Z</time>
      </trkpt>
      <trkpt lat="44.2174" lon="2.65384">
        <ele>719.2</ele>
        <time>2025-09-17T13:12:06Z</time>
      </trkpt>
      <trkpt lat="44.2174" lon="2.65383">
        <ele>718.24</ele>
        <time>2025-09-17T13:11:33Z</time>
      </trkpt>
      <trkpt lat="44.21739" lon="2.6538">
        <ele>721.61</ele>
        <time>2025-09-17T13:11:04Z</time>
      </trkpt>
      <trkpt lat="44.21741" lon="2.65382">
        <ele>720.65</ele>
        <time>2025-09-17T13:10:29Z</time>
      </trkpt>
      <trkpt lat="44.21733" lon="2.65385">
        <ele>718.72</ele>
        <time>2025-09-17T13:10:02Z</time>
      </trkpt>
      <trkpt lat="44.2174" lon="2.65386">
        <ele>716.32</ele>
        <time>2025-09-17T13:09:25Z</time>
      </trkpt>
      <trkpt lat="44.21741" lon="2.65386">
        <ele>717.28</ele>
        <time>2025-09-17T13:08:58Z</time>
      </trkpt>
      <trkpt lat="44.21751" lon="2.6539">
        <ele>717.28</ele>
        <time>2025-09-17T13:08:31Z</time>
      </trkpt>
      <trkpt lat="44.21745" lon="2.65385">
        <ele>720.16</ele>
        <time>2025-09-17T13:08:04Z</time>
      </trkpt>
      <trkpt lat="44.2174" lon="2.6538">
        <ele>717.76</ele>
        <time>2025-09-17T13:07:35Z</time>
      </trkpt>
      <trkpt lat="44.21736" lon="2.65383">
        <ele>716.8</ele>
        <time>2025-09-17T13:07:06Z</time>
      </trkpt>
      <trkpt lat="44.2174" lon="2.65383">
        <ele>720.16</ele>
        <time>2025-09-17T13:06:36Z</time>
      </trkpt>
      <trkpt lat="44.21744" lon="2.65384">
        <ele>720.16</ele>
        <time>2025-09-17T13:06:08Z</time>
      </trkpt>
      <trkpt lat="44.21746" lon="2.65383">
        <ele>721.13</ele>
        <time>2025-09-17T13:05:44Z</time>
      </trkpt>
      <trkpt lat="44.21749" lon="2.65384">
        <ele>721.61</ele>
        <time>2025-09-17T13:05:03Z</time>
      </trkpt>
      <trkpt lat="44.21734" lon="2.65367">
        <ele>729.3</ele>
        <time>2025-09-17T13:04:34Z</time>
      </trkpt>
      <trkpt lat="44.21729" lon="2.65372">
        <ele>726.41</ele>
        <time>2025-09-17T13:04:00Z</time>
      </trkpt>
      <trkpt lat="44.21729" lon="2.65377">
        <ele>724.01</ele>
        <time>2025-09-17T13:03:30Z</time>
      </trkpt>
      <trkpt lat="44.21735" lon="2.65377">
        <ele>723.53</ele>
        <time>2025-09-17T13:02:58Z</time>
      </trkpt>
      <trkpt lat="44.21725" lon="2.65377">
        <ele>720.16</ele>
        <time>2025-09-17T13:02:18Z</time>
      </trkpt>
      <trkpt lat="44.21729" lon="2.65378">
        <ele>723.53</ele>
        <time>2025-09-17T13:01:44Z</time>
      </trkpt>
      <trkpt lat="44.21739" lon="2.65375">
        <ele>724.01</ele>
        <time>2025-09-17T13:01:11Z</time>
      </trkpt>
      <trkpt lat="44.21741" lon="2.6538">
        <ele>724.49</ele>
        <time>2025-09-17T13:00:36Z</time>
      </trkpt>
      <trkpt lat="44.21737" lon="2.65382">
        <ele>726.41</ele>
        <time>2025-09-17T13:00:07Z</time>
      </trkpt>
      <trkpt lat="44.21732" lon="2.65377">
        <ele>726.41</ele>
        <time>2025-09-17T12:59:29Z</time>
      </trkpt>
      <trkpt lat="44.21737" lon="2.65385">
        <ele>721.13</ele>
        <time>2025-09-17T12:58:57Z</time>
      </trkpt>
      <trkpt lat="44.21735" lon="2.65385">
        <ele>721.13</ele>
        <time>2025-09-17T12:58:21Z</time>
      </trkpt>
      <trkpt lat="44.21732" lon="2.65386">
        <ele>721.13</ele>
        <time>2025-09-17T12:57:48Z</time>
      </trkpt>
      <trkpt lat="44.21743" lon="2.65383">
        <ele>721.13</ele>
        <time>2025-09-17T12:57:15Z</time>
      </trkpt>
      <trkpt lat="44.21748" lon="2.65384">
        <ele>725.45</ele>
        <time>2025-09-17T12:56:45Z</time>
      </trkpt>
      <trkpt lat="44.21744" lon="2.65384">
        <ele>729.78</ele>
        <time>2025-09-17T12:56:07Z</time>
      </trkpt>
      <trkpt lat="44.21748" lon="2.65392">
        <ele>727.37</ele>
        <time>2025-09-17T12:55:39Z</time>
      </trkpt>
      <trkpt lat="44.21739" lon="2.65382">
        <ele>729.3</ele>
        <time>2025-09-17T12:55:06Z</time>
      </trkpt>
      <trkpt lat="44.21733" lon="2.65378">
        <ele>727.37</ele>
        <time>2025-09-17T12:54:33Z</time>
      </trkpt>
      <trkpt lat="44.21733" lon="2.65376">
        <ele>728.82</ele>
        <time>2025-09-17T12:54:03Z</time>
      </trkpt>
      <trkpt lat="44.21743" lon="2.65378">
        <ele>731.22</ele>
        <time>2025-09-17T12:53:33Z</time>
      </trkpt>
      <trkpt lat="44.21737" lon="2.65374">
        <ele>733.14</ele>
        <time>2025-09-17T12:52:59Z</time>
      </trkpt>
      <trkpt lat="44.21738" lon="2.65372">
        <ele>737.47</ele>
        <time>2025-09-17T12:52:30Z</time>
      </trkpt>
      <trkpt lat="44.21739" lon="2.65366">
        <ele>741.79</ele>
        <time>2025-09-17T12:51:59Z</time>
      </trkpt>
      <trkpt lat="44.21739" lon="2.65362">
        <ele>741.31</ele>
        <time>2025-09-17T12:51:28Z</time>
      </trkpt>
      <trkpt lat="44.21741" lon="2.65374">
        <ele>736.03</ele>
        <time>2025-09-17T12:50:59Z</time>
      </trkpt>
      <trkpt lat="44.2175" lon="2.65372">
        <ele>739.39</ele>
        <time>2025-09-17T12:50:23Z</time>
      </trkpt>
      <trkpt lat="44.21749" lon="2.65373">
        <ele>737.95</ele>
        <time>2025-09-17T12:49:57Z</time>
      </trkpt>
      <trkpt lat="44.21747" lon="2.65372">
        <ele>736.03</ele>
        <time>2025-09-17T12:49:27Z</time>
      </trkpt>
      <trkpt lat="44.2175" lon="2.65375">
        <ele>736.03</ele>
        <time>2025-09-17T12:48:54Z</time>
      </trkpt>
      <trkpt lat="44.21745" lon="2.65376">
        <ele>735.55</ele>
        <time>2025-09-17T12:48:29Z</time>
      </trkpt>
      <trkpt lat="44.21746" lon="2.6538">
        <ele>728.82</ele>
        <time>2025-09-17T12:47:52Z</time>
      </trkpt>
      <trkpt lat="44.21747" lon="2.65384">
        <ele>721.13</ele>
        <time>2025-09-17T12:47:18Z</time>
      </trkpt>
      <trkpt lat="44.21741" lon="2.6539">
        <ele>722.57</ele>
        <time>2025-09-17T12:46:57Z</time>
      </trkpt>
      <trkpt lat="44.21735" lon="2.65385">
        <ele>730.26</ele>
        <time>2025-09-17T12:46:39Z</time>
      </trkpt>
      <trkpt lat="44.21735" lon="2.65394">
        <ele>732.66</ele>
        <time>2025-09-17T12:45:58Z</time>
      </trkpt>
      <trkpt lat="44.21732" lon="2.65383">
        <ele>726.41</ele>
        <time>2025-09-17T12:45:23Z</time>
      </trkpt>
      <trkpt lat="44.21735" lon="2.6539">
        <ele>726.89</ele>
        <time>2025-09-17T12:44:51Z</time>
      </trkpt>
      <trkpt lat="44.21737" lon="2.65393">
        <ele>727.37</ele>
        <time>2025-09-17T12:44:25Z</time>
      </trkpt>
      <trkpt lat="44.21735" lon="2.65394">
        <ele>730.26</ele>
        <time>2025-09-17T12:43:49Z</time>
      </trkpt>
      <trkpt lat="44.21732" lon="2.65389">
        <ele>728.82</ele>
        <time>2025-09-17T12:43:09Z</time>
      </trkpt>
      <trkpt lat="44.21728" lon="2.65384">
        <ele>725.45</ele>
        <time>2025-09-17T12:42:18Z</time>
      </trkpt>
      <trkpt lat="44.21732" lon="2.65377">
        <ele>723.05</ele>
        <time>2025-09-17T12:41:43Z</time>
      </trkpt>
      <trkpt lat="44.21728" lon="2.65383">
        <ele>727.86</ele>
        <time>2025-09-17T12:40:59Z</time>
      </trkpt>
      <trkpt lat="44.21729" lon="2.65387">
        <ele>727.86</ele>
        <time>2025-09-17T12:40:22Z</time>
      </trkpt>
      <trkpt lat="44.2173" lon="2.65386">
        <ele>724.97</ele>
        <time>2025-09-17T12:39:54Z</time>
      </trkpt>
      <trkpt lat="44.2173" lon="2.65392">
        <ele>725.93</ele>
        <time>2025-09-17T12:39:15Z</time>
      </trkpt>
      <trkpt lat="44.21732" lon="2.6539">
        <ele>726.41</ele>
        <time>2025-09-17T12:38:33Z</time>
      </trkpt>
      <trkpt lat="44.21731" lon="2.65388">
        <ele>723.53</ele>
        <time>2025-09-17T12:37:56Z</time>
      </trkpt>
      <trkpt lat="44.21729" lon="2.65391">
        <ele>720.16</ele>
        <time>2025-09-17T12:37:22Z</time>
      </trkpt>
      <trkpt lat="44.2173" lon="2.65388">
        <ele>720.16</ele>
        <time>2025-09-17T12:36:50Z</time>
      </trkpt>
      <trkpt lat="44.21725" lon="2.65385">
        <ele>725.45</ele>
        <time>2025-09-17T12:36:17Z</time>
      </trkpt>
      <trkpt lat="44.21728" lon="2.6539">
        <ele>725.93</ele>
        <time>2025-09-17T12:35:47Z</time>
      </trkpt>
      <trkpt lat="44.21733" lon="2.65388">
        <ele>724.49</ele>
        <time>2025-09-17T12:35:08Z</time>
      </trkpt>
      <trkpt lat="44.21732" lon="2.65395">
        <ele>725.93</ele>
        <time>2025-09-17T12:34:33Z</time>
      </trkpt>
      <trkpt lat="44.21735" lon="2.65388">
        <ele>723.05</ele>
        <time>2025-09-17T12:33:49Z</time>
      </trkpt>
      <trkpt lat="44.21732" lon="2.65386">
        <ele>720.16</ele>
        <time>2025-09-17T12:33:09Z</time>
      </trkpt>
      <trkpt lat="44.21733" lon="2.65385">
        <ele>716.8</ele>
        <time>2025-09-17T12:32:41Z</time>
      </trkpt>
      <trkpt lat="44.21731" lon="2.65389">
        <ele>715.84</ele>
        <time>2025-09-17T12:32:08Z</time>
      </trkpt>
      <trkpt lat="44.21746" lon="2.65379">
        <ele>709.59</ele>
        <time>2025-09-17T12:31:43Z</time>
      </trkpt>
      <trkpt lat="44.21744" lon="2.65377">
        <ele>709.59</ele>
        <time>2025-09-17T12:31:14Z</time>
      </trkpt>
      <trkpt lat="44.21737" lon="2.65397">
        <ele>715.84</ele>
        <time>2025-09-17T12:31:00Z</time>
      </trkpt>
      <trkpt lat="44.21734" lon="2.65393">
        <ele>719.68</ele>
        <time>2025-09-17T12:30:45Z</time>
      </trkpt>
      <trkpt lat="44.21725" lon="2.654">
        <ele>720.65</ele>
        <time>2025-09-17T12:30:17Z</time>
      </trkpt>
      <trkpt lat="44.21729" lon="2.65396">
        <ele>719.2</ele>
        <time>2025-09-17T12:29:50Z</time>
      </trkpt>
      <trkpt lat="44.21732" lon="2.65391">
        <ele>720.16</ele>
        <time>2025-09-17T12:29:15Z</time>
      </trkpt>
      <trkpt lat="44.21734" lon="2.65388">
        <ele>721.61</ele>
        <time>2025-09-17T12:28:46Z</time>
      </trkpt>
      <trkpt lat="44.21732" lon="2.65388">
        <ele>723.05</ele>
        <time>2025-09-17T12:28:08Z</time>
      </trkpt>
      <trkpt lat="44.21726" lon="2.65396">
        <ele>720.16</ele>
        <time>2025-09-17T12:27:39Z</time>
      </trkpt>
      <trkpt lat="44.21731" lon="2.65391">
        <ele>719.2</ele>
        <time>2025-09-17T12:27:07Z</time>
      </trkpt>
      <trkpt lat="44.21742" lon="2.65383">
        <ele>721.13</ele>
        <time>2025-09-17T12:26:37Z</time>
      </trkpt>
      <trkpt lat="44.21737" lon="2.65381">
        <ele>725.45</ele>
        <time>2025-09-17T12:26:05Z</time>
      </trkpt>
      <trkpt lat="44.2173" lon="2.65388">
        <ele>728.82</ele>
        <time>2025-09-17T12:25:26Z</time>
      </trkpt>
      <trkpt lat="44.21723" lon="2.65387">
        <ele>727.37</ele>
        <time>2025-09-17T12:24:45Z</time>
      </trkpt>
      <trkpt lat="44.21724" lon="2.65386">
        <ele>724.49</ele>
        <time>2025-09-17T12:24:08Z</time>
      </trkpt>
      <trkpt lat="44.21728" lon="2.65386">
        <ele>724.97</ele>
        <time>2025-09-17T12:23:37Z</time>
      </trkpt>
      <trkpt lat="44.21724" lon="2.65393">
        <ele>724.97</ele>
        <time>2025-09-17T12:22:59Z</time>
      </trkpt>
      <trkpt lat="44.21732" lon="2.65381">
        <ele>724.01</ele>
        <time>2025-09-17T12:22:18Z</time>
      </trkpt>
      <trkpt lat="44.2173" lon="2.65387">
        <ele>723.05</ele>
        <time>2025-09-17T12:21:42Z</time>
      </trkpt>
      <trkpt lat="44.2173" lon="2.6539">
        <ele>724.01</ele>
        <time>2025-09-17T12:21:12Z</time>
      </trkpt>
      <trkpt lat="44.21728" lon="2.65399">
        <ele>724.97</ele>
        <time>2025-09-17T12:20:34Z</time>
      </trkpt>
      <trkpt lat="44.21724" lon="2.65394">
        <ele>721.61</ele>
        <time>2025-09-17T12:20:01Z</time>
      </trkpt>
      <trkpt lat="44.21722" lon="2.65402">
        <ele>725.45</ele>
        <time>2025-09-17T12:19:31Z</time>
      </trkpt>
      <trkpt lat="44.21726" lon="2.654">
        <ele>724.01</ele>
        <time>2025-09-17T12:18:59Z</time>
      </trkpt>
      <trkpt lat="44.21714" lon="2.65406">
        <ele>718.72</ele>
        <time>2025-09-17T12:18:32Z</time>
      </trkpt>
      <trkpt lat="44.21733" lon="2.65395">
        <ele>715.84</ele>
        <time>2025-09-17T12:17:56Z</time>
      </trkpt>
      <trkpt lat="44.21735" lon="2.6539">
        <ele>717.28</ele>
        <time>2025-09-17T12:17:25Z</time>
      </trkpt>
      <trkpt lat="44.21734" lon="2.65394">
        <ele>721.13</ele>
        <time>2025-09-17T12:16:56Z</time>
      </trkpt>
      <trkpt lat="44.21729" lon="2.65388">
        <ele>717.28</ele>
        <time>2025-09-17T12:16:16Z</time>
      </trkpt>
      <trkpt lat="44.21734" lon="2.65387">
        <ele>719.2</ele>
        <time>2025-09-17T12:15:43Z</time>
      </trkpt>
      <trkpt lat="44.2173" lon="2.65389">
        <ele>724.49</ele>
        <time>2025-09-17T12:15:09Z</time>
      </trkpt>
      <trkpt lat="44.21742" lon="2.65378">
        <ele>725.45</ele>
        <time>2025-09-17T12:14:34Z</time>
      </trkpt>
      <trkpt lat="44.21735" lon="2.65385">
        <ele>728.82</ele>
        <time>2025-09-17T12:14:04Z</time>
      </trkpt>
      <trkpt lat="44.21731" lon="2.65389">
        <ele>720.65</ele>
        <time>2025-09-17T12:13:33Z</time>
      </trkpt>
      <trkpt lat="44.21734" lon="2.65386">
        <ele>717.28</ele>
        <time>2025-09-17T12:13:01Z</time>
      </trkpt>
      <trkpt lat="44.21739" lon="2.65382">
        <ele>714.88</ele>
        <time>2025-09-17T12:12:32Z</time>
      </trkpt>
      <trkpt lat="44.21746" lon="2.65376">
        <ele>713.92</ele>
        <time>2025-09-17T12:12:07Z</time>
      </trkpt>
      <trkpt lat="44.21747" lon="2.65376">
        <ele>708.63</ele>
        <time>2025-09-17T12:11:46Z</time>
      </trkpt>
      <trkpt lat="44.21744" lon="2.65378">
        <ele>705.75</ele>
        <time>2025-09-17T12:11:25Z</time>
      </trkpt>
      <trkpt lat="44.21743" lon="2.65378">
        <ele>707.67</ele>
        <time>2025-09-17T12:11:00Z</time>
      </trkpt>
      <trkpt lat="44.2174" lon="2.65372">
        <ele>709.59</ele>
        <time>2025-09-17T12:10:46Z</time>
      </trkpt>
      <trkpt lat="44.21744" lon="2.65373">
        <ele>713.92</ele>
        <time>2025-09-17T12:10:20Z</time>
      </trkpt>
      <trkpt lat="44.21741" lon="2.65371">
        <ele>715.36</ele>
        <time>2025-09-17T12:10:02Z</time>
      </trkpt>
      <trkpt lat="44.2174" lon="2.65366">
        <ele>718.24</ele>
        <time>2025-09-17T12:09:48Z</time>
      </trkpt>
      <trkpt lat="44.21742" lon="2.65374">
        <ele>720.65</ele>
        <time>2025-09-17T12:09:27Z</time>
      </trkpt>
      <trkpt lat="44.21739" lon="2.65373">
        <ele>719.68</ele>
        <time>2025-09-17T12:09:02Z</time>
      </trkpt>
      <trkpt lat="44.21736" lon="2.65372">
        <ele>717.76</ele>
        <time>2025-09-17T12:08:48Z</time>
      </trkpt>
      <trkpt lat="44.21751" lon="2.65378">
        <ele>720.16</ele>
        <time>2025-09-17T12:08:20Z</time>
      </trkpt>
      <trkpt lat="44.21759" lon="2.65376">
        <ele>720.16</ele>
        <time>2025-09-17T12:07:49Z</time>
      </trkpt>
      <trkpt lat="44.21736" lon="2.65372">
        <ele>717.76</ele>
        <time>2025-09-17T12:07:21Z</time>
      </trkpt>
      <trkpt lat="44.21732" lon="2.6536">
        <ele>719.2</ele>
        <time>2025-09-17T12:07:04Z</time>
      </trkpt>
      <trkpt lat="44.21728" lon="2.65365">
        <ele>720.16</ele>
        <time>2025-09-17T12:06:46Z</time>
      </trkpt>
      <trkpt lat="44.21739" lon="2.65367">
        <ele>716.8</ele>
        <time>2025-09-17T12:06:31Z</time>
      </trkpt>
      <trkpt lat="44.21739" lon="2.65366">
        <ele>717.76</ele>
        <time>2025-09-17T12:06:12Z</time>
      </trkpt>
      <trkpt lat="44.21741" lon="2.65359">
        <ele>715.84</ele>
        <time>2025-09-17T12:05:49Z</time>
      </trkpt>
      <trkpt lat="44.21732" lon="2.65369">
        <ele>716.8</ele>
        <time>2025-09-17T12:05:37Z</time>
      </trkpt>
      <trkpt lat="44.21736" lon="2.65367">
        <ele>714.88</ele>
        <time>2025-09-17T12:05:15Z</time>
      </trkpt>
      <trkpt lat="44.21739" lon="2.65365">
        <ele>713.44</ele>
        <time>2025-09-17T12:05:01Z</time>
      </trkpt>
      <trkpt lat="44.21733" lon="2.65364">
        <ele>714.4</ele>
        <time>2025-09-17T12:04:46Z</time>
      </trkpt>
      <trkpt lat="44.2173" lon="2.65365">
        <ele>719.2</ele>
        <time>2025-09-17T12:04:26Z</time>
      </trkpt>
      <trkpt lat="44.21732" lon="2.65369">
        <ele>718.72</ele>
        <time>2025-09-17T12:04:10Z</time>
      </trkpt>
      <trkpt lat="44.21739" lon="2.65369">
        <ele>717.76</ele>
        <time>2025-09-17T12:03:49Z</time>
      </trkpt>
      <trkpt lat="44.21742" lon="2.65368">
        <ele>718.24</ele>
        <time>2025-09-17T12:03:34Z</time>
      </trkpt>
      <trkpt lat="44.21735" lon="2.6536">
        <ele>718.72</ele>
        <time>2025-09-17T12:03:16Z</time>
      </trkpt>
      <trkpt lat="44.2173" lon="2.65357">
        <ele>720.16</ele>
        <time>2025-09-17T12:03:01Z</time>
      </trkpt>
      <trkpt lat="44.2173" lon="2.65356">
        <ele>720.65</ele>
        <time>2025-09-17T12:02:44Z</time>
      </trkpt>
      <trkpt lat="44.21727" lon="2.65358">
        <ele>719.68</ele>
        <time>2025-09-17T12:02:23Z</time>
      </trkpt>
      <trkpt lat="44.21729" lon="2.65361">
        <ele>717.28</ele>
        <time>2025-09-17T12:02:05Z</time>
      </trkpt>
      <trkpt lat="44.21731" lon="2.65364">
        <ele>714.4</ele>
        <time>2025-09-17T12:01:50Z</time>
      </trkpt>
      <trkpt lat="44.21731" lon="2.65367">
        <ele>714.4</ele>
        <time>2025-09-17T12:01:30Z</time>
      </trkpt>
      <trkpt lat="44.21733" lon="2.65366">
        <ele>714.88</ele>
        <time>2025-09-17T12:01:16Z</time>
      </trkpt>
      <trkpt lat="44.21739" lon="2.65369">
        <ele>717.28</ele>
        <time>2025-09-17T12:00:59Z</time>
      </trkpt>
      <trkpt lat="44.21735" lon="2.65358">
        <ele>718.72</ele>
        <time>2025-09-17T12:00:47Z</time>
      </trkpt>
      <trkpt lat="44.21736" lon="2.6536">
        <ele>720.65</ele>
        <time>2025-09-17T12:00:24Z</time>
      </trkpt>
      <trkpt lat="44.21739" lon="2.65365">
        <ele>723.53</ele>
        <time>2025-09-17T12:00:12Z</time>
      </trkpt>
      <trkpt lat="44.21739" lon="2.65369">
        <ele>726.41</ele>
        <time>2025-09-17T11:59:53Z</time>
      </trkpt>
      <trkpt lat="44.21737" lon="2.65367">
        <ele>724.97</ele>
        <time>2025-09-17T11:59:29Z</time>
      </trkpt>
      <trkpt lat="44.21738" lon="2.65368">
        <ele>726.89</ele>
        <time>2025-09-17T11:59:09Z</time>
      </trkpt>
      <trkpt lat="44.21744" lon="2.65356">
        <ele>729.3</ele>
        <time>2025-09-17T11:58:44Z</time>
      </trkpt>
      <trkpt lat="44.21742" lon="2.65351">
        <ele>729.3</ele>
        <time>2025-09-17T11:58:24Z</time>
      </trkpt>
      <trkpt lat="44.21739" lon="2.65347">
        <ele>730.74</ele>
        <time>2025-09-17T11:58:01Z</time>
      </trkpt>
      <trkpt lat="44.21734" lon="2.65348">
        <ele>729.78</ele>
        <time>2025-09-17T11:57:40Z</time>
      </trkpt>
      <trkpt lat="44.21729" lon="2.6537">
        <ele>725.93</ele>
        <time>2025-09-17T11:57:26Z</time>
      </trkpt>
      <trkpt lat="44.21735" lon="2.65389">
        <ele>725.45</ele>
        <time>2025-09-17T11:57:09Z</time>
      </trkpt>
      <trkpt lat="44.21741" lon="2.65385">
        <ele>723.53</ele>
        <time>2025-09-17T11:56:49Z</time>
      </trkpt>
      <trkpt lat="44.21749" lon="2.65369">
        <ele>727.86</ele>
        <time>2025-09-17T11:56:34Z</time>
      </trkpt>
      <trkpt lat="44.21761" lon="2.65355">
        <ele>730.74</ele>
        <time>2025-09-17T11:56:21Z</time>
      </trkpt>
      <trkpt lat="44.21775" lon="2.65334">
        <ele>730.74</ele>
        <time>2025-09-17T11:56:05Z</time>
      </trkpt>
      <trkpt lat="44.21794" lon="2.65312">
        <ele>731.22</ele>
        <time>2025-09-17T11:55:48Z</time>
      </trkpt>
      <trkpt lat="44.21815" lon="2.65297">
        <ele>731.22</ele>
        <time>2025-09-17T11:55:31Z</time>
      </trkpt>
      <trkpt lat="44.21832" lon="2.65284">
        <ele>732.66</ele>
        <time>2025-09-17T11:55:15Z</time>
      </trkpt>
      <trkpt lat="44.21857" lon="2.65277">
        <ele>742.28</ele>
        <time>2025-09-17T11:55:01Z</time>
      </trkpt>
      <trkpt lat="44.21886" lon="2.65273">
        <ele>748.04</ele>
        <time>2025-09-17T11:54:44Z</time>
      </trkpt>
      <trkpt lat="44.21911" lon="2.65265">
        <ele>749.97</ele>
        <time>2025-09-17T11:54:27Z</time>
      </trkpt>
      <trkpt lat="44.21939" lon="2.65253">
        <ele>752.37</ele>
        <time>2025-09-17T11:54:11Z</time>
      </trkpt>
      <trkpt lat="44.21941" lon="2.65252">
        <ele>752.37</ele>
        <time>2025-09-17T11:54:10Z</time>
      </trkpt>
      <trkpt lat="44.21952" lon="2.65245">
        <ele>751.41</ele>
        <time>2025-09-17T11:54:02Z</time>
      </trkpt>
      <trkpt lat="44.2197" lon="2.65226">
        <ele>755.25</ele>
        <time>2025-09-17T11:53:48Z</time>
      </trkpt>
      <trkpt lat="44.21984" lon="2.65204">
        <ele>758.62</ele>
        <time>2025-09-17T11:53:33Z</time>
      </trkpt>
      <trkpt lat="44.21985" lon="2.65202">
        <ele>758.62</ele>
        <time>2025-09-17T11:53:32Z</time>
      </trkpt>
      <trkpt lat="44.2199" lon="2.65195">
        <ele>758.14</ele>
        <time>2025-09-17T11:53:27Z</time>
      </trkpt>
      <trkpt lat="44.21995" lon="2.65183">
        <ele>759.58</ele>
        <time>2025-09-17T11:53:17Z</time>
      </trkpt>
      <trkpt lat="44.22004" lon="2.65176">
        <ele>762.46</ele>
        <time>2025-09-17T11:53:11Z</time>
      </trkpt>
      <trkpt lat="44.22028" lon="2.65168">
        <ele>766.31</ele>
        <time>2025-09-17T11:52:56Z</time>
      </trkpt>
      <trkpt lat="44.22049" lon="2.65153">
        <ele>771.11</ele>
        <time>2025-09-17T11:52:40Z</time>
      </trkpt>
      <trkpt lat="44.22063" lon="2.65138">
        <ele>771.6</ele>
        <time>2025-09-17T11:52:27Z</time>
      </trkpt>
      <trkpt lat="44.22088" lon="2.65138">
        <ele>774</ele>
        <time>2025-09-17T11:52:08Z</time>
      </trkpt>
      <trkpt lat="44.22111" lon="2.65139">
        <ele>776.88</ele>
        <time>2025-09-17T11:51:54Z</time>
      </trkpt>
      <trkpt lat="44.22144" lon="2.65148">
        <ele>781.21</ele>
        <time>2025-09-17T11:51:33Z</time>
      </trkpt>
      <trkpt lat="44.22166" lon="2.65152">
        <ele>785.05</ele>
        <time>2025-09-17T11:51:19Z</time>
      </trkpt>
      <trkpt lat="44.22192" lon="2.65142">
        <ele>786.98</ele>
        <time>2025-09-17T11:51:02Z</time>
      </trkpt>
      <trkpt lat="44.22193" lon="2.65141">
        <ele>786.98</ele>
        <time>2025-09-17T11:51:01Z</time>
      </trkpt>
      <trkpt lat="44.22195" lon="2.65141">
        <ele>786.5</ele>
        <time>2025-09-17T11:51:00Z</time>
      </trkpt>
      <trkpt lat="44.222" lon="2.65139">
        <ele>786.02</ele>
        <time>2025-09-17T11:50:57Z</time>
      </trkpt>
      <trkpt lat="44.22228" lon="2.65129">
        <ele>785.53</ele>
        <time>2025-09-17T11:50:39Z</time>
      </trkpt>
      <trkpt lat="44.2226" lon="2.65124">
        <ele>789.38</ele>
        <time>2025-09-17T11:50:19Z</time>
      </trkpt>
      <trkpt lat="44.22263" lon="2.65124">
        <ele>789.86</ele>
        <time>2025-09-17T11:50:16Z</time>
      </trkpt>
      <trkpt lat="44.2228" lon="2.65136">
        <ele>790.82</ele>
        <time>2025-09-17T11:49:59Z</time>
      </trkpt>
      <trkpt lat="44.22303" lon="2.65157">
        <ele>791.78</ele>
        <time>2025-09-17T11:49:41Z</time>
      </trkpt>
      <trkpt lat="44.22324" lon="2.65177">
        <ele>792.26</ele>
        <time>2025-09-17T11:49:23Z</time>
      </trkpt>
      <trkpt lat="44.22349" lon="2.65197">
        <ele>791.78</ele>
        <time>2025-09-17T11:49:03Z</time>
      </trkpt>
      <trkpt lat="44.22373" lon="2.65208">
        <ele>794.19</ele>
        <time>2025-09-17T11:48:47Z</time>
      </trkpt>
      <trkpt lat="44.22392" lon="2.65226">
        <ele>795.63</ele>
        <time>2025-09-17T11:48:31Z</time>
      </trkpt>
      <trkpt lat="44.22394" lon="2.65228">
        <ele>795.63</ele>
        <time>2025-09-17T11:48:30Z</time>
      </trkpt>
      <trkpt lat="44.22394" lon="2.65229">
        <ele>795.63</ele>
        <time>2025-09-17T11:48:29Z</time>
      </trkpt>
      <trkpt lat="44.22395" lon="2.65231">
        <ele>795.63</ele>
        <time>2025-09-17T11:48:26Z</time>
      </trkpt>
      <trkpt lat="44.22395" lon="2.65236">
        <ele>795.63</ele>
        <time>2025-09-17T11:48:14Z</time>
      </trkpt>
      <trkpt lat="44.22394" lon="2.65236">
        <ele>795.15</ele>
        <time>2025-09-17T11:48:13Z</time>
      </trkpt>
      <trkpt lat="44.22392" lon="2.65237">
        <ele>795.15</ele>
        <time>2025-09-17T11:48:12Z</time>
      </trkpt>
      <trkpt lat="44.22391" lon="2.65239">
        <ele>795.15</ele>
        <time>2025-09-17T11:48:11Z</time>
      </trkpt>
      <trkpt lat="44.22391" lon="2.65241">
        <ele>795.15</ele>
        <time>2025-09-17T11:48:10Z</time>
      </trkpt>
      <trkpt lat="44.22393" lon="2.65246">
        <ele>794.67</ele>
        <time>2025-09-17T11:47:59Z</time>
      </trkpt>
      <trkpt lat="44.22389" lon="2.65245">
        <ele>795.15</ele>
        <time>2025-09-17T11:47:43Z</time>
      </trkpt>
      <trkpt lat="44.2239" lon="2.65246">
        <ele>795.15</ele>
        <time>2025-09-17T11:47:21Z</time>
      </trkpt>
      <trkpt lat="44.22393" lon="2.65246">
        <ele>796.59</ele>
        <time>2025-09-17T11:47:02Z</time>
      </trkpt>
      <trkpt lat="44.22394" lon="2.65246">
        <ele>795.63</ele>
        <time>2025-09-17T11:46:40Z</time>
      </trkpt>
      <trkpt lat="44.22393" lon="2.65247">
        <ele>794.19</ele>
        <time>2025-09-17T11:46:22Z</time>
      </trkpt>
      <trkpt lat="44.22406" lon="2.65233">
        <ele>795.15</ele>
        <time>2025-09-17T11:46:07Z</time>
      </trkpt>
      <trkpt lat="44.22431" lon="2.65213">
        <ele>797.07</ele>
        <time>2025-09-17T11:45:47Z</time>
      </trkpt>
      <trkpt lat="44.22455" lon="2.65197">
        <ele>797.55</ele>
        <time>2025-09-17T11:45:29Z</time>
      </trkpt>
      <trkpt lat="44.2248" lon="2.65195">
        <ele>799.47</ele>
        <time>2025-09-17T11:45:11Z</time>
      </trkpt>
      <trkpt lat="44.22501" lon="2.65197">
        <ele>801.4</ele>
        <time>2025-09-17T11:44:58Z</time>
      </trkpt>
      <trkpt lat="44.22529" lon="2.65208">
        <ele>803.32</ele>
        <time>2025-09-17T11:44:37Z</time>
      </trkpt>
      <trkpt lat="44.22556" lon="2.65216">
        <ele>805.72</ele>
        <time>2025-09-17T11:44:18Z</time>
      </trkpt>
      <trkpt lat="44.22578" lon="2.65223">
        <ele>807.64</ele>
        <time>2025-09-17T11:44:02Z</time>
      </trkpt>
      <trkpt lat="44.22599" lon="2.65228">
        <ele>807.64</ele>
        <time>2025-09-17T11:43:46Z</time>
      </trkpt>
      <trkpt lat="44.22624" lon="2.65233">
        <ele>809.09</ele>
        <time>2025-09-17T11:43:27Z</time>
      </trkpt>
      <trkpt lat="44.22648" lon="2.65237">
        <ele>809.57</ele>
        <time>2025-09-17T11:43:09Z</time>
      </trkpt>
      <trkpt lat="44.22673" lon="2.65242">
        <ele>811.49</ele>
        <time>2025-09-17T11:42:51Z</time>
      </trkpt>
      <trkpt lat="44.22695" lon="2.65247">
        <ele>811.49</ele>
        <time>2025-09-17T11:42:35Z</time>
      </trkpt>
      <trkpt lat="44.22714" lon="2.65255">
        <ele>812.93</ele>
        <time>2025-09-17T11:42:20Z</time>
      </trkpt>
      <trkpt lat="44.22741" lon="2.65267">
        <ele>815.34</ele>
        <time>2025-09-17T11:42:01Z</time>
      </trkpt>
      <trkpt lat="44.22765" lon="2.65275">
        <ele>816.3</ele>
        <time>2025-09-17T11:41:44Z</time>
      </trkpt>
      <trkpt lat="44.22789" lon="2.65276">
        <ele>817.26</ele>
        <time>2025-09-17T11:41:30Z</time>
      </trkpt>
      <trkpt lat="44.22813" lon="2.65279">
        <ele>817.74</ele>
        <time>2025-09-17T11:41:16Z</time>
      </trkpt>
      <trkpt lat="44.22833" lon="2.6528">
        <ele>817.26</ele>
        <time>2025-09-17T11:41:00Z</time>
      </trkpt>
      <trkpt lat="44.22851" lon="2.65287">
        <ele>817.26</ele>
        <time>2025-09-17T11:40:47Z</time>
      </trkpt>
      <trkpt lat="44.22874" lon="2.653">
        <ele>817.74</ele>
        <time>2025-09-17T11:40:31Z</time>
      </trkpt>
      <trkpt lat="44.22897" lon="2.65316">
        <ele>819.18</ele>
        <time>2025-09-17T11:40:15Z</time>
      </trkpt>
      <trkpt lat="44.22919" lon="2.65326">
        <ele>819.66</ele>
        <time>2025-09-17T11:40:00Z</time>
      </trkpt>
      <trkpt lat="44.22944" lon="2.65335">
        <ele>821.1</ele>
        <time>2025-09-17T11:39:44Z</time>
      </trkpt>
      <trkpt lat="44.22969" lon="2.65341">
        <ele>821.58</ele>
        <time>2025-09-17T11:39:29Z</time>
      </trkpt>
      <trkpt lat="44.2299" lon="2.65341">
        <ele>821.58</ele>
        <time>2025-09-17T11:39:16Z</time>
      </trkpt>
      <trkpt lat="44.23017" lon="2.65342">
        <ele>820.14</ele>
        <time>2025-09-17T11:39:01Z</time>
      </trkpt>
      <trkpt lat="44.23038" lon="2.6534">
        <ele>820.14</ele>
        <time>2025-09-17T11:38:46Z</time>
      </trkpt>
      <trkpt lat="44.23061" lon="2.65335">
        <ele>818.7</ele>
        <time>2025-09-17T11:38:31Z</time>
      </trkpt>
      <trkpt lat="44.23077" lon="2.65332">
        <ele>820.62</ele>
        <time>2025-09-17T11:38:22Z</time>
      </trkpt>
      <trkpt lat="44.2308" lon="2.65333">
        <ele>821.1</ele>
        <time>2025-09-17T11:38:21Z</time>
      </trkpt>
      <trkpt lat="44.23082" lon="2.65333">
        <ele>821.1</ele>
        <time>2025-09-17T11:38:20Z</time>
      </trkpt>
      <trkpt lat="44.23083" lon="2.65334">
        <ele>821.1</ele>
        <time>2025-09-17T11:38:19Z</time>
      </trkpt>
      <trkpt lat="44.23084" lon="2.65333">
        <ele>821.1</ele>
        <time>2025-09-17T11:38:18Z</time>
      </trkpt>
      <trkpt lat="44.23085" lon="2.65332">
        <ele>821.1</ele>
        <time>2025-09-17T11:38:17Z</time>
      </trkpt>
      <trkpt lat="44.23087" lon="2.65331">
        <ele>821.1</ele>
        <time>2025-09-17T11:38:16Z</time>
      </trkpt>
      <trkpt lat="44.23091" lon="2.65331">
        <ele>821.1</ele>
        <time>2025-09-17T11:38:14Z</time>
      </trkpt>
      <trkpt lat="44.23089" lon="2.65332">
        <ele>820.62</ele>
        <time>2025-09-17T11:38:07Z</time>
      </trkpt>
      <trkpt lat="44.2309" lon="2.65332">
        <ele>820.62</ele>
        <time>2025-09-17T11:38:06Z</time>
      </trkpt>
      <trkpt lat="44.23091" lon="2.65333">
        <ele>821.1</ele>
        <time>2025-09-17T11:38:05Z</time>
      </trkpt>
      <trkpt lat="44.23092" lon="2.65333">
        <ele>821.1</ele>
        <time>2025-09-17T11:38:04Z</time>
      </trkpt>
      <trkpt lat="44.23095" lon="2.65333">
        <ele>821.1</ele>
        <time>2025-09-17T11:38:02Z</time>
      </trkpt>
      <trkpt lat="44.23096" lon="2.65332">
        <ele>821.1</ele>
        <time>2025-09-17T11:38:01Z</time>
      </trkpt>
      <trkpt lat="44.23099" lon="2.65331">
        <ele>821.58</ele>
        <time>2025-09-17T11:37:59Z</time>
      </trkpt>
      <trkpt lat="44.2312" lon="2.65326">
        <ele>822.06</ele>
        <time>2025-09-17T11:37:43Z</time>
      </trkpt>
      <trkpt lat="44.23139" lon="2.65325">
        <ele>824.47</ele>
        <time>2025-09-17T11:37:29Z</time>
      </trkpt>
      <trkpt lat="44.23158" lon="2.65323">
        <ele>825.43</ele>
        <time>2025-09-17T11:37:13Z</time>
      </trkpt>
      <trkpt lat="44.23177" lon="2.65322">
        <ele>825.43</ele>
        <time>2025-09-17T11:36:58Z</time>
      </trkpt>
      <trkpt lat="44.2319" lon="2.65322">
        <ele>824.95</ele>
        <time>2025-09-17T11:36:46Z</time>
      </trkpt>
      <trkpt lat="44.23208" lon="2.65327">
        <ele>824.47</ele>
        <time>2025-09-17T11:36:31Z</time>
      </trkpt>
      <trkpt lat="44.23232" lon="2.65328">
        <ele>823.99</ele>
        <time>2025-09-17T11:36:14Z</time>
      </trkpt>
      <trkpt lat="44.2326" lon="2.65335">
        <ele>823.03</ele>
        <time>2025-09-17T11:35:55Z</time>
      </trkpt>
      <trkpt lat="44.23284" lon="2.65341">
        <ele>822.06</ele>
        <time>2025-09-17T11:35:38Z</time>
      </trkpt>
      <trkpt lat="44.23308" lon="2.65344">
        <ele>822.06</ele>
        <time>2025-09-17T11:35:22Z</time>
      </trkpt>
      <trkpt lat="44.23311" lon="2.65366">
        <ele>823.51</ele>
        <time>2025-09-17T11:35:07Z</time>
      </trkpt>
      <trkpt lat="44.23298" lon="2.65403">
        <ele>822.55</ele>
        <time>2025-09-17T11:34:50Z</time>
      </trkpt>
      <trkpt lat="44.23287" lon="2.65434">
        <ele>823.51</ele>
        <time>2025-09-17T11:34:34Z</time>
      </trkpt>
      <trkpt lat="44.2328" lon="2.65454">
        <ele>823.99</ele>
        <time>2025-09-17T11:34:19Z</time>
      </trkpt>
      <trkpt lat="44.23266" lon="2.65479">
        <ele>824.95</ele>
        <time>2025-09-17T11:34:05Z</time>
      </trkpt>
      <trkpt lat="44.23254" lon="2.65501">
        <ele>826.39</ele>
        <time>2025-09-17T11:33:51Z</time>
      </trkpt>
      <trkpt lat="44.23241" lon="2.65533">
        <ele>827.35</ele>
        <time>2025-09-17T11:33:35Z</time>
      </trkpt>
      <trkpt lat="44.23229" lon="2.65564">
        <ele>826.39</ele>
        <time>2025-09-17T11:33:19Z</time>
      </trkpt>
      <trkpt lat="44.23218" lon="2.65602">
        <ele>827.35</ele>
        <time>2025-09-17T11:33:03Z</time>
      </trkpt>
      <trkpt lat="44.23208" lon="2.6564">
        <ele>828.31</ele>
        <time>2025-09-17T11:32:44Z</time>
      </trkpt>
      <trkpt lat="44.23198" lon="2.65676">
        <ele>828.79</ele>
        <time>2025-09-17T11:32:28Z</time>
      </trkpt>
      <trkpt lat="44.2319" lon="2.65705">
        <ele>829.27</ele>
        <time>2025-09-17T11:32:13Z</time>
      </trkpt>
      <trkpt lat="44.23183" lon="2.65734">
        <ele>829.76</ele>
        <time>2025-09-17T11:31:59Z</time>
      </trkpt>
      <trkpt lat="44.23174" lon="2.65765">
        <ele>828.79</ele>
        <time>2025-09-17T11:31:44Z</time>
      </trkpt>
      <trkpt lat="44.23164" lon="2.65795">
        <ele>827.35</ele>
        <time>2025-09-17T11:31:28Z</time>
      </trkpt>
      <trkpt lat="44.23163" lon="2.65796">
        <ele>827.35</ele>
        <time>2025-09-17T11:31:27Z</time>
      </trkpt>
      <trkpt lat="44.23163" lon="2.65799">
        <ele>826.39</ele>
        <time>2025-09-17T11:31:25Z</time>
      </trkpt>
      <trkpt lat="44.23151" lon="2.65824">
        <ele>826.87</ele>
        <time>2025-09-17T11:31:10Z</time>
      </trkpt>
      <trkpt lat="44.23134" lon="2.65854">
        <ele>826.39</ele>
        <time>2025-09-17T11:30:53Z</time>
      </trkpt>
      <trkpt lat="44.2312" lon="2.65876">
        <ele>826.87</ele>
        <time>2025-09-17T11:30:37Z</time>
      </trkpt>
      <trkpt lat="44.23108" lon="2.65896">
        <ele>826.39</ele>
        <time>2025-09-17T11:30:22Z</time>
      </trkpt>
      <trkpt lat="44.23094" lon="2.65918">
        <ele>826.39</ele>
        <time>2025-09-17T11:30:06Z</time>
      </trkpt>
      <trkpt lat="44.23079" lon="2.65932">
        <ele>825.91</ele>
        <time>2025-09-17T11:29:50Z</time>
      </trkpt>
      <trkpt lat="44.23076" lon="2.65932">
        <ele>825.43</ele>
        <time>2025-09-17T11:29:46Z</time>
      </trkpt>
      <trkpt lat="44.23075" lon="2.65931">
        <ele>825.43</ele>
        <time>2025-09-17T11:29:45Z</time>
      </trkpt>
      <trkpt lat="44.23073" lon="2.65931">
        <ele>825.43</ele>
        <time>2025-09-17T11:29:44Z</time>
      </trkpt>
      <trkpt lat="44.23064" lon="2.65944">
        <ele>824.47</ele>
        <time>2025-09-17T11:29:36Z</time>
      </trkpt>
      <trkpt lat="44.23051" lon="2.65967">
        <ele>823.99</ele>
        <time>2025-09-17T11:29:23Z</time>
      </trkpt>
      <trkpt lat="44.23028" lon="2.65999">
        <ele>822.55</ele>
        <time>2025-09-17T11:29:02Z</time>
      </trkpt>
      <trkpt lat="44.23013" lon="2.66022">
        <ele>820.62</ele>
        <time>2025-09-17T11:28:48Z</time>
      </trkpt>
      <trkpt lat="44.22998" lon="2.66047">
        <ele>819.66</ele>
        <time>2025-09-17T11:28:33Z</time>
      </trkpt>
      <trkpt lat="44.22982" lon="2.66072">
        <ele>821.1</ele>
        <time>2025-09-17T11:28:17Z</time>
      </trkpt>
      <trkpt lat="44.22974" lon="2.66084">
        <ele>822.06</ele>
        <time>2025-09-17T11:28:10Z</time>
      </trkpt>
      <trkpt lat="44.22956" lon="2.66111">
        <ele>822.55</ele>
        <time>2025-09-17T11:27:53Z</time>
      </trkpt>
      <trkpt lat="44.22941" lon="2.66135">
        <ele>821.58</ele>
        <time>2025-09-17T11:27:39Z</time>
      </trkpt>
      <trkpt lat="44.22922" lon="2.66163">
        <ele>821.58</ele>
        <time>2025-09-17T11:27:23Z</time>
      </trkpt>
      <trkpt lat="44.22903" lon="2.66185">
        <ele>820.62</ele>
        <time>2025-09-17T11:27:06Z</time>
      </trkpt>
      <trkpt lat="44.2289" lon="2.6621">
        <ele>821.58</ele>
        <time>2025-09-17T11:26:50Z</time>
      </trkpt>
      <trkpt lat="44.22874" lon="2.66229">
        <ele>821.1</ele>
        <time>2025-09-17T11:26:36Z</time>
      </trkpt>
      <trkpt lat="44.22858" lon="2.66244">
        <ele>820.62</ele>
        <time>2025-09-17T11:26:24Z</time>
      </trkpt>
      <trkpt lat="44.2284" lon="2.66268">
        <ele>818.22</ele>
        <time>2025-09-17T11:26:08Z</time>
      </trkpt>
      <trkpt lat="44.22834" lon="2.66274">
        <ele>815</ele>
      </trkpt>
      <trkpt lat="44.22829" lon="2.6628">
        <ele>814.8</ele>
      </trkpt>
      <trkpt lat="44.22825" lon="2.66286">
        <ele>814.6</ele>
      </trkpt>
      <trkpt lat="44.22824" lon="2.66286">
        <ele>814.6</ele>
      </trkpt>
      <trkpt lat="44.22815" lon="2.66298">
        <ele>814.6</ele>
      </trkpt>
      <trkpt lat="44.22806" lon="2.66309">
        <ele>814.7</ele>
        <extensions>
          <visugpx:TrkExtension xmlns:visugpx="https://www.visugpx.com/editgpx/">
            <visugpx:node>2</visugpx:node>
            </visugpx:TrkExtension>
        </extensions>
      </trkpt>
      <trkpt lat="44.22803" lon="2.66314">
        <ele>821.1</ele>
        <time>2025-09-17T11:18:05Z</time>
        <extensions>
          <visugpx:TrkExtension xmlns:visugpx="https://www.visugpx.com/editgpx/">
            <visugpx:node>1</visugpx:node>
            </visugpx:TrkExtension>
        </extensions>
      </trkpt>
      <trkpt lat="44.22782" lon="2.66347">
        <ele>820.14</ele>
        <time>2025-09-17T11:17:44Z</time>
      </trkpt>
      <trkpt lat="44.22781" lon="2.66348">
        <ele>820.14</ele>
        <time>2025-09-17T11:17:43Z</time>
      </trkpt>
      <trkpt lat="44.2278" lon="2.6635">
        <ele>820.14</ele>
        <time>2025-09-17T11:17:42Z</time>
      </trkpt>
      <trkpt lat="44.22779" lon="2.66351">
        <ele>820.62</ele>
        <time>2025-09-17T11:17:41Z</time>
      </trkpt>
      <trkpt lat="44.22778" lon="2.66353">
        <ele>820.62</ele>
        <time>2025-09-17T11:17:40Z</time>
      </trkpt>
      <trkpt lat="44.22777" lon="2.66354">
        <ele>820.62</ele>
        <time>2025-09-17T11:17:39Z</time>
      </trkpt>
      <trkpt lat="44.22776" lon="2.66355">
        <ele>821.1</ele>
        <time>2025-09-17T11:17:38Z</time>
      </trkpt>
      <trkpt lat="44.22775" lon="2.66356">
        <ele>821.1</ele>
        <time>2025-09-17T11:17:37Z</time>
      </trkpt>
      <trkpt lat="44.22775" lon="2.66363">
        <ele>821.1</ele>
        <time>2025-09-17T11:17:25Z</time>
      </trkpt>
      <trkpt lat="44.22766" lon="2.66399">
        <ele>821.1</ele>
        <time>2025-09-17T11:17:06Z</time>
      </trkpt>
      <trkpt lat="44.22758" lon="2.66437">
        <ele>822.06</ele>
        <time>2025-09-17T11:16:47Z</time>
      </trkpt>
      <trkpt lat="44.22749" lon="2.66479">
        <ele>823.51</ele>
        <time>2025-09-17T11:16:25Z</time>
      </trkpt>
      <trkpt lat="44.22743" lon="2.66512">
        <ele>824.95</ele>
        <time>2025-09-17T11:16:08Z</time>
      </trkpt>
      <trkpt lat="44.22737" lon="2.66547">
        <ele>825.43</ele>
        <time>2025-09-17T11:15:50Z</time>
      </trkpt>
      <trkpt lat="44.22731" lon="2.66578">
        <ele>825.91</ele>
        <time>2025-09-17T11:15:34Z</time>
      </trkpt>
      <trkpt lat="44.22725" lon="2.66605">
        <ele>829.27</ele>
        <time>2025-09-17T11:15:18Z</time>
      </trkpt>
      <trkpt lat="44.22721" lon="2.66633">
        <ele>831.68</ele>
        <time>2025-09-17T11:15:03Z</time>
      </trkpt>
      <trkpt lat="44.22718" lon="2.66663">
        <ele>832.64</ele>
        <time>2025-09-17T11:14:48Z</time>
      </trkpt>
      <trkpt lat="44.22715" lon="2.66695">
        <ele>834.08</ele>
        <time>2025-09-17T11:14:32Z</time>
      </trkpt>
      <trkpt lat="44.22715" lon="2.66697">
        <ele>834.56</ele>
        <time>2025-09-17T11:14:31Z</time>
      </trkpt>
      <trkpt lat="44.22715" lon="2.66699">
        <ele>834.56</ele>
        <time>2025-09-17T11:14:30Z</time>
      </trkpt>
      <trkpt lat="44.22715" lon="2.667">
        <ele>834.56</ele>
        <time>2025-09-17T11:14:29Z</time>
      </trkpt>
      <trkpt lat="44.22715" lon="2.66702">
        <ele>834.56</ele>
        <time>2025-09-17T11:14:28Z</time>
      </trkpt>
      <trkpt lat="44.22715" lon="2.66705">
        <ele>834.56</ele>
        <time>2025-09-17T11:14:27Z</time>
      </trkpt>
      <trkpt lat="44.22714" lon="2.66707">
        <ele>834.56</ele>
        <time>2025-09-17T11:14:26Z</time>
      </trkpt>
      <trkpt lat="44.22714" lon="2.66709">
        <ele>834.56</ele>
        <time>2025-09-17T11:14:25Z</time>
      </trkpt>
      <trkpt lat="44.22713" lon="2.66711">
        <ele>835.04</ele>
        <time>2025-09-17T11:14:24Z</time>
      </trkpt>
      <trkpt lat="44.22713" lon="2.66713">
        <ele>835.04</ele>
        <time>2025-09-17T11:14:23Z</time>
      </trkpt>
      <trkpt lat="44.22712" lon="2.6674">
        <ele>835.52</ele>
        <time>2025-09-17T11:14:06Z</time>
      </trkpt>
      <trkpt lat="44.22706" lon="2.66776">
        <ele>839.37</ele>
        <time>2025-09-17T11:13:47Z</time>
      </trkpt>
      <trkpt lat="44.22702" lon="2.6681">
        <ele>842.73</ele>
        <time>2025-09-17T11:13:31Z</time>
      </trkpt>
      <trkpt lat="44.22699" lon="2.66837">
        <ele>844.18</ele>
        <time>2025-09-17T11:13:18Z</time>
      </trkpt>
      <trkpt lat="44.22698" lon="2.66857">
        <ele>845.62</ele>
        <time>2025-09-17T11:13:08Z</time>
      </trkpt>
      <trkpt lat="44.22695" lon="2.66886">
        <ele>848.02</ele>
        <time>2025-09-17T11:12:53Z</time>
      </trkpt>
      <trkpt lat="44.22693" lon="2.66915">
        <ele>848.98</ele>
        <time>2025-09-17T11:12:36Z</time>
      </trkpt>
      <trkpt lat="44.22693" lon="2.66945">
        <ele>850.42</ele>
        <time>2025-09-17T11:12:21Z</time>
      </trkpt>
      <trkpt lat="44.22691" lon="2.66983">
        <ele>851.87</ele>
        <time>2025-09-17T11:12:02Z</time>
      </trkpt>
      <trkpt lat="44.22691" lon="2.67015">
        <ele>851.38</ele>
        <time>2025-09-17T11:11:47Z</time>
      </trkpt>
      <trkpt lat="44.2269" lon="2.67049">
        <ele>850.9</ele>
        <time>2025-09-17T11:11:30Z</time>
      </trkpt>
      <trkpt lat="44.22689" lon="2.67085">
        <ele>851.87</ele>
        <time>2025-09-17T11:11:12Z</time>
      </trkpt>
      <trkpt lat="44.22688" lon="2.67116">
        <ele>853.79</ele>
        <time>2025-09-17T11:10:55Z</time>
      </trkpt>
      <trkpt lat="44.22689" lon="2.67148">
        <ele>854.75</ele>
        <time>2025-09-17T11:10:38Z</time>
      </trkpt>
      <trkpt lat="44.22696" lon="2.67185">
        <ele>855.71</ele>
        <time>2025-09-17T11:10:19Z</time>
      </trkpt>
      <trkpt lat="44.22702" lon="2.67214">
        <ele>855.23</ele>
        <time>2025-09-17T11:10:03Z</time>
      </trkpt>
      <trkpt lat="44.22713" lon="2.67246">
        <ele>856.19</ele>
        <time>2025-09-17T11:09:45Z</time>
      </trkpt>
      <trkpt lat="44.22722" lon="2.67279">
        <ele>855.71</ele>
        <time>2025-09-17T11:09:28Z</time>
      </trkpt>
      <trkpt lat="44.22728" lon="2.67309">
        <ele>855.23</ele>
        <time>2025-09-17T11:09:12Z</time>
      </trkpt>
      <trkpt lat="44.22732" lon="2.67342">
        <ele>854.75</ele>
        <time>2025-09-17T11:08:55Z</time>
      </trkpt>
      <trkpt lat="44.22733" lon="2.67374">
        <ele>855.71</ele>
        <time>2025-09-17T11:08:39Z</time>
      </trkpt>
      <trkpt lat="44.22733" lon="2.67406">
        <ele>854.27</ele>
        <time>2025-09-17T11:08:24Z</time>
      </trkpt>
      <trkpt lat="44.2273" lon="2.67439">
        <ele>854.27</ele>
        <time>2025-09-17T11:08:07Z</time>
      </trkpt>
      <trkpt lat="44.22725" lon="2.67475">
        <ele>853.31</ele>
        <time>2025-09-17T11:07:48Z</time>
      </trkpt>
      <trkpt lat="44.22723" lon="2.67509">
        <ele>854.75</ele>
        <time>2025-09-17T11:07:31Z</time>
      </trkpt>
      <trkpt lat="44.2272" lon="2.67542">
        <ele>858.59</ele>
        <time>2025-09-17T11:07:15Z</time>
      </trkpt>
      <trkpt lat="44.22714" lon="2.67582">
        <ele>861</ele>
        <time>2025-09-17T11:06:56Z</time>
      </trkpt>
      <trkpt lat="44.22707" lon="2.67612">
        <ele>861.96</ele>
        <time>2025-09-17T11:06:39Z</time>
      </trkpt>
      <trkpt lat="44.22697" lon="2.67641">
        <ele>861.96</ele>
        <time>2025-09-17T11:06:24Z</time>
      </trkpt>
      <trkpt lat="44.22678" lon="2.67675">
        <ele>864.36</ele>
        <time>2025-09-17T11:06:04Z</time>
      </trkpt>
      <trkpt lat="44.22661" lon="2.67709">
        <ele>865.8</ele>
        <time>2025-09-17T11:05:45Z</time>
      </trkpt>
      <trkpt lat="44.2266" lon="2.67711">
        <ele>865.8</ele>
        <time>2025-09-17T11:05:44Z</time>
      </trkpt>
      <trkpt lat="44.22659" lon="2.67713">
        <ele>866.29</ele>
        <time>2025-09-17T11:05:43Z</time>
      </trkpt>
      <trkpt lat="44.22659" lon="2.67715">
        <ele>866.77</ele>
        <time>2025-09-17T11:05:42Z</time>
      </trkpt>
      <trkpt lat="44.22658" lon="2.67717">
        <ele>866.77</ele>
        <time>2025-09-17T11:05:41Z</time>
      </trkpt>
      <trkpt lat="44.22656" lon="2.67719">
        <ele>866.77</ele>
        <time>2025-09-17T11:05:40Z</time>
      </trkpt>
      <trkpt lat="44.22655" lon="2.6772">
        <ele>866.77</ele>
        <time>2025-09-17T11:05:39Z</time>
      </trkpt>
      <trkpt lat="44.22651" lon="2.67726">
        <ele>867.25</ele>
        <time>2025-09-17T11:05:36Z</time>
      </trkpt>
      <trkpt lat="44.22645" lon="2.67741">
        <ele>867.73</ele>
        <time>2025-09-17T11:05:27Z</time>
      </trkpt>
      <trkpt lat="44.22633" lon="2.67766">
        <ele>868.21</ele>
        <time>2025-09-17T11:05:15Z</time>
      </trkpt>
      <trkpt lat="44.22619" lon="2.67797">
        <ele>867.73</ele>
        <time>2025-09-17T11:04:58Z</time>
      </trkpt>
      <trkpt lat="44.22605" lon="2.67823">
        <ele>865.8</ele>
        <time>2025-09-17T11:04:43Z</time>
      </trkpt>
      <trkpt lat="44.22585" lon="2.67849">
        <ele>865.32</ele>
        <time>2025-09-17T11:04:27Z</time>
      </trkpt>
      <trkpt lat="44.22565" lon="2.67871">
        <ele>865.32</ele>
        <time>2025-09-17T11:04:11Z</time>
      </trkpt>
      <trkpt lat="44.22545" lon="2.67889">
        <ele>865.8</ele>
        <time>2025-09-17T11:03:57Z</time>
      </trkpt>
      <trkpt lat="44.22528" lon="2.67913">
        <ele>867.25</ele>
        <time>2025-09-17T11:03:43Z</time>
      </trkpt>
      <trkpt lat="44.22513" lon="2.67939">
        <ele>869.17</ele>
        <time>2025-09-17T11:03:29Z</time>
      </trkpt>
      <trkpt lat="44.22493" lon="2.6796">
        <ele>869.17</ele>
        <time>2025-09-17T11:03:12Z</time>
      </trkpt>
      <trkpt lat="44.22492" lon="2.6796">
        <ele>869.17</ele>
        <time>2025-09-17T11:03:11Z</time>
      </trkpt>
      <trkpt lat="44.2249" lon="2.67961">
        <ele>869.65</ele>
        <time>2025-09-17T11:03:10Z</time>
      </trkpt>
      <trkpt lat="44.22485" lon="2.67964">
        <ele>870.13</ele>
        <time>2025-09-17T11:03:06Z</time>
      </trkpt>
      <trkpt lat="44.22467" lon="2.67984">
        <ele>871.09</ele>
        <time>2025-09-17T11:02:51Z</time>
      </trkpt>
      <trkpt lat="44.22448" lon="2.68016">
        <ele>871.57</ele>
        <time>2025-09-17T11:02:33Z</time>
      </trkpt>
      <trkpt lat="44.22438" lon="2.68046">
        <ele>872.53</ele>
        <time>2025-09-17T11:02:19Z</time>
      </trkpt>
      <trkpt lat="44.22428" lon="2.68079">
        <ele>871.57</ele>
        <time>2025-09-17T11:02:02Z</time>
      </trkpt>
      <trkpt lat="44.22424" lon="2.68112">
        <ele>869.65</ele>
        <time>2025-09-17T11:01:46Z</time>
      </trkpt>
      <trkpt lat="44.2242" lon="2.68142">
        <ele>864.36</ele>
        <time>2025-09-17T11:01:28Z</time>
      </trkpt>
      <trkpt lat="44.2241" lon="2.68172">
        <ele>860.04</ele>
        <time>2025-09-17T11:01:10Z</time>
      </trkpt>
      <trkpt lat="44.22394" lon="2.68195">
        <ele>856.67</ele>
        <time>2025-09-17T11:00:55Z</time>
      </trkpt>
      <trkpt lat="44.22381" lon="2.68216">
        <ele>852.83</ele>
        <time>2025-09-17T11:00:42Z</time>
      </trkpt>
      <trkpt lat="44.22367" lon="2.68234">
        <ele>849.94</ele>
        <time>2025-09-17T11:00:29Z</time>
      </trkpt>
      <trkpt lat="44.22362" lon="2.68241">
        <ele>851.87</ele>
        <time>2025-09-17T11:00:10Z</time>
      </trkpt>
      <trkpt lat="44.2236" lon="2.68243">
        <ele>852.35</ele>
        <time>2025-09-17T10:59:57Z</time>
      </trkpt>
      <trkpt lat="44.22351" lon="2.68256">
        <ele>848.5</ele>
        <time>2025-09-17T10:59:43Z</time>
      </trkpt>
      <trkpt lat="44.22351" lon="2.68257">
        <ele>848.02</ele>
        <time>2025-09-17T10:59:42Z</time>
      </trkpt>
      <trkpt lat="44.22331" lon="2.68269">
        <ele>844.18</ele>
        <time>2025-09-17T10:59:26Z</time>
      </trkpt>
      <trkpt lat="44.22315" lon="2.68277">
        <ele>840.33</ele>
        <time>2025-09-17T10:59:11Z</time>
      </trkpt>
      <trkpt lat="44.22295" lon="2.68292">
        <ele>836.96</ele>
        <time>2025-09-17T10:58:54Z</time>
      </trkpt>
      <trkpt lat="44.22294" lon="2.68294">
        <ele>836.96</ele>
        <time>2025-09-17T10:58:53Z</time>
      </trkpt>
      <trkpt lat="44.22293" lon="2.68295">
        <ele>836.96</ele>
        <time>2025-09-17T10:58:52Z</time>
      </trkpt>
      <trkpt lat="44.22277" lon="2.68302">
        <ele>834.56</ele>
        <time>2025-09-17T10:58:36Z</time>
      </trkpt>
      <trkpt lat="44.22251" lon="2.68298">
        <ele>830.72</ele>
        <time>2025-09-17T10:58:19Z</time>
      </trkpt>
      <trkpt lat="44.22243" lon="2.68297">
        <ele>830.24</ele>
        <time>2025-09-17T10:58:12Z</time>
      </trkpt>
      <trkpt lat="44.22239" lon="2.68297">
        <ele>830.24</ele>
        <time>2025-09-17T10:58:09Z</time>
      </trkpt>
      <trkpt lat="44.22232" lon="2.68294">
        <ele>830.72</ele>
        <time>2025-09-17T10:57:51Z</time>
      </trkpt>
      <trkpt lat="44.22231" lon="2.68298">
        <ele>830.72</ele>
        <time>2025-09-17T10:57:32Z</time>
      </trkpt>
      <trkpt lat="44.22226" lon="2.68302">
        <ele>830.72</ele>
        <time>2025-09-17T10:57:12Z</time>
      </trkpt>
      <trkpt lat="44.22227" lon="2.68301">
        <ele>831.2</ele>
        <time>2025-09-17T10:56:38Z</time>
      </trkpt>
      <trkpt lat="44.22227" lon="2.683">
        <ele>831.2</ele>
        <time>2025-09-17T10:56:11Z</time>
      </trkpt>
      <trkpt lat="44.22227" lon="2.683">
        <ele>829.27</ele>
        <time>2025-09-17T10:55:45Z</time>
      </trkpt>
      <trkpt lat="44.22228" lon="2.68301">
        <ele>829.76</ele>
        <time>2025-09-17T10:55:27Z</time>
      </trkpt>
      <trkpt lat="44.22226" lon="2.68311">
        <ele>828.79</ele>
        <time>2025-09-17T10:55:16Z</time>
      </trkpt>
      <trkpt lat="44.22229" lon="2.6834">
        <ele>827.35</ele>
        <time>2025-09-17T10:55:01Z</time>
      </trkpt>
      <trkpt lat="44.22232" lon="2.68376">
        <ele>825.43</ele>
        <time>2025-09-17T10:54:48Z</time>
      </trkpt>
      <trkpt lat="44.22234" lon="2.68403">
        <ele>823.51</ele>
        <time>2025-09-17T10:54:38Z</time>
      </trkpt>
      <trkpt lat="44.22227" lon="2.68428">
        <ele>820.14</ele>
        <time>2025-09-17T10:54:22Z</time>
      </trkpt>
      <trkpt lat="44.22214" lon="2.6845">
        <ele>817.74</ele>
        <time>2025-09-17T10:54:09Z</time>
      </trkpt>
      <trkpt lat="44.22194" lon="2.6848">
        <ele>816.3</ele>
        <time>2025-09-17T10:53:54Z</time>
      </trkpt>
      <trkpt lat="44.22175" lon="2.68511">
        <ele>815.34</ele>
        <time>2025-09-17T10:53:39Z</time>
      </trkpt>
      <trkpt lat="44.22162" lon="2.6853">
        <ele>812.93</ele>
        <time>2025-09-17T10:53:28Z</time>
      </trkpt>
      <trkpt lat="44.22143" lon="2.68553">
        <ele>809.57</ele>
        <time>2025-09-17T10:53:11Z</time>
      </trkpt>
      <trkpt lat="44.22123" lon="2.68566">
        <ele>806.68</ele>
        <time>2025-09-17T10:52:56Z</time>
      </trkpt>
      <trkpt lat="44.22106" lon="2.68573">
        <ele>803.8</ele>
        <time>2025-09-17T10:52:45Z</time>
      </trkpt>
      <trkpt lat="44.22088" lon="2.68584">
        <ele>798.99</ele>
        <time>2025-09-17T10:52:32Z</time>
      </trkpt>
      <trkpt lat="44.22073" lon="2.68597">
        <ele>797.07</ele>
        <time>2025-09-17T10:52:21Z</time>
      </trkpt>
      <trkpt lat="44.22051" lon="2.68599">
        <ele>794.19</ele>
        <time>2025-09-17T10:52:08Z</time>
      </trkpt>
      <trkpt lat="44.2205" lon="2.68599">
        <ele>794.19</ele>
        <time>2025-09-17T10:52:07Z</time>
      </trkpt>
      <trkpt lat="44.22043" lon="2.68597">
        <ele>793.22</ele>
        <time>2025-09-17T10:52:00Z</time>
      </trkpt>
      <trkpt lat="44.22044" lon="2.68597">
        <ele>791.78</ele>
        <time>2025-09-17T10:51:35Z</time>
      </trkpt>
      <trkpt lat="44.22043" lon="2.68599">
        <ele>791.78</ele>
        <time>2025-09-17T10:51:22Z</time>
      </trkpt>
      <trkpt lat="44.22032" lon="2.68595">
        <ele>789.86</ele>
        <time>2025-09-17T10:51:10Z</time>
      </trkpt>
      <trkpt lat="44.22018" lon="2.68603">
        <ele>788.9</ele>
        <time>2025-09-17T10:50:58Z</time>
      </trkpt>
      <trkpt lat="44.22024" lon="2.68617">
        <ele>786.98</ele>
        <time>2025-09-17T10:50:49Z</time>
      </trkpt>
      <trkpt lat="44.22044" lon="2.68639">
        <ele>786.5</ele>
        <time>2025-09-17T10:50:34Z</time>
      </trkpt>
      <trkpt lat="44.22062" lon="2.68658">
        <ele>785.53</ele>
        <time>2025-09-17T10:50:21Z</time>
      </trkpt>
      <trkpt lat="44.22078" lon="2.68677">
        <ele>784.09</ele>
        <time>2025-09-17T10:50:08Z</time>
      </trkpt>
      <trkpt lat="44.22093" lon="2.68696">
        <ele>783.13</ele>
        <time>2025-09-17T10:49:57Z</time>
      </trkpt>
      <trkpt lat="44.22107" lon="2.68714">
        <ele>782.17</ele>
        <time>2025-09-17T10:49:45Z</time>
      </trkpt>
      <trkpt lat="44.22124" lon="2.68743">
        <ele>779.77</ele>
        <time>2025-09-17T10:49:32Z</time>
      </trkpt>
      <trkpt lat="44.22138" lon="2.6877">
        <ele>778.81</ele>
        <time>2025-09-17T10:49:16Z</time>
      </trkpt>
      <trkpt lat="44.22151" lon="2.68803">
        <ele>775.92</ele>
        <time>2025-09-17T10:49:01Z</time>
      </trkpt>
      <trkpt lat="44.2217" lon="2.68828">
        <ele>773.04</ele>
        <time>2025-09-17T10:48:48Z</time>
      </trkpt>
      <trkpt lat="44.22177" lon="2.68836">
        <ele>772.08</ele>
        <time>2025-09-17T10:48:36Z</time>
      </trkpt>
      <trkpt lat="44.22192" lon="2.6886">
        <ele>770.63</ele>
        <time>2025-09-17T10:48:22Z</time>
      </trkpt>
      <trkpt lat="44.2221" lon="2.68885">
        <ele>768.71</ele>
        <time>2025-09-17T10:48:08Z</time>
      </trkpt>
      <trkpt lat="44.22221" lon="2.68901">
        <ele>769.19</ele>
        <time>2025-09-17T10:47:57Z</time>
      </trkpt>
      <trkpt lat="44.2224" lon="2.68926">
        <ele>769.19</ele>
        <time>2025-09-17T10:47:41Z</time>
      </trkpt>
      <trkpt lat="44.22258" lon="2.68941">
        <ele>770.63</ele>
        <time>2025-09-17T10:47:30Z</time>
      </trkpt>
      <trkpt lat="44.22276" lon="2.68946">
        <ele>770.15</ele>
        <time>2025-09-17T10:47:16Z</time>
      </trkpt>
      <trkpt lat="44.22278" lon="2.68947">
        <ele>770.15</ele>
        <time>2025-09-17T10:47:15Z</time>
      </trkpt>
      <trkpt lat="44.2228" lon="2.68947">
        <ele>770.63</ele>
        <time>2025-09-17T10:47:14Z</time>
      </trkpt>
      <trkpt lat="44.22282" lon="2.68948">
        <ele>770.63</ele>
        <time>2025-09-17T10:47:13Z</time>
      </trkpt>
      <trkpt lat="44.22284" lon="2.68949">
        <ele>770.63</ele>
        <time>2025-09-17T10:47:12Z</time>
      </trkpt>
      <trkpt lat="44.223" lon="2.68954">
        <ele>770.63</ele>
        <time>2025-09-17T10:47:00Z</time>
      </trkpt>
      <trkpt lat="44.22325" lon="2.68963">
        <ele>772.08</ele>
        <time>2025-09-17T10:46:45Z</time>
      </trkpt>
      <trkpt lat="44.22345" lon="2.68969">
        <ele>772.56</ele>
        <time>2025-09-17T10:46:31Z</time>
      </trkpt>
      <trkpt lat="44.22368" lon="2.68974">
        <ele>772.08</ele>
        <time>2025-09-17T10:46:18Z</time>
      </trkpt>
      <trkpt lat="44.22388" lon="2.68979">
        <ele>771.6</ele>
        <time>2025-09-17T10:46:04Z</time>
      </trkpt>
      <trkpt lat="44.22411" lon="2.68983">
        <ele>769.67</ele>
        <time>2025-09-17T10:45:49Z</time>
      </trkpt>
      <trkpt lat="44.22434" lon="2.68984">
        <ele>766.31</ele>
        <time>2025-09-17T10:45:35Z</time>
      </trkpt>
      <trkpt lat="44.22455" lon="2.68973">
        <ele>761.98</ele>
        <time>2025-09-17T10:45:22Z</time>
      </trkpt>
      <trkpt lat="44.22473" lon="2.68956">
        <ele>762.46</ele>
        <time>2025-09-17T10:45:09Z</time>
      </trkpt>
      <trkpt lat="44.22474" lon="2.68954">
        <ele>762.46</ele>
        <time>2025-09-17T10:45:08Z</time>
      </trkpt>
      <trkpt lat="44.22476" lon="2.68952">
        <ele>762.94</ele>
        <time>2025-09-17T10:45:07Z</time>
      </trkpt>
      <trkpt lat="44.22482" lon="2.6893">
        <ele>762.94</ele>
        <time>2025-09-17T10:44:57Z</time>
      </trkpt>
      <trkpt lat="44.22478" lon="2.68897">
        <ele>760.54</ele>
        <time>2025-09-17T10:44:45Z</time>
      </trkpt>
      <trkpt lat="44.22478" lon="2.68868">
        <ele>760.06</ele>
        <time>2025-09-17T10:44:30Z</time>
      </trkpt>
      <trkpt lat="44.22479" lon="2.68866">
        <ele>759.58</ele>
        <time>2025-09-17T10:44:29Z</time>
      </trkpt>
      <trkpt lat="44.22479" lon="2.68864">
        <ele>759.58</ele>
        <time>2025-09-17T10:44:28Z</time>
      </trkpt>
      <trkpt lat="44.2248" lon="2.6886">
        <ele>760.06</ele>
        <time>2025-09-17T10:44:25Z</time>
      </trkpt>
      <trkpt lat="44.225" lon="2.68844">
        <ele>759.58</ele>
        <time>2025-09-17T10:44:07Z</time>
      </trkpt>
      <trkpt lat="44.22521" lon="2.68843">
        <ele>759.1</ele>
        <time>2025-09-17T10:43:51Z</time>
      </trkpt>
      <trkpt lat="44.2254" lon="2.68857">
        <ele>756.69</ele>
        <time>2025-09-17T10:43:33Z</time>
      </trkpt>
      <trkpt lat="44.22541" lon="2.68858">
        <ele>756.69</ele>
        <time>2025-09-17T10:43:32Z</time>
      </trkpt>
      <trkpt lat="44.22541" lon="2.68859">
        <ele>756.69</ele>
        <time>2025-09-17T10:43:31Z</time>
      </trkpt>
      <trkpt lat="44.22545" lon="2.68864">
        <ele>756.21</ele>
        <time>2025-09-17T10:43:27Z</time>
      </trkpt>
      <trkpt lat="44.22564" lon="2.68878">
        <ele>755.25</ele>
        <time>2025-09-17T10:43:11Z</time>
      </trkpt>
      <trkpt lat="44.22581" lon="2.68891">
        <ele>755.25</ele>
        <time>2025-09-17T10:42:56Z</time>
      </trkpt>
      <trkpt lat="44.22598" lon="2.68907">
        <ele>754.29</ele>
        <time>2025-09-17T10:42:42Z</time>
      </trkpt>
      <trkpt lat="44.22618" lon="2.68921">
        <ele>753.33</ele>
        <time>2025-09-17T10:42:24Z</time>
      </trkpt>
      <trkpt lat="44.22638" lon="2.68937">
        <ele>750.45</ele>
        <time>2025-09-17T10:42:06Z</time>
      </trkpt>
      <trkpt lat="44.22658" lon="2.68951">
        <ele>751.41</ele>
        <time>2025-09-17T10:41:49Z</time>
      </trkpt>
      <trkpt lat="44.22676" lon="2.68966">
        <ele>750.93</ele>
        <time>2025-09-17T10:41:33Z</time>
      </trkpt>
      <trkpt lat="44.227" lon="2.68973">
        <ele>750.93</ele>
        <time>2025-09-17T10:41:17Z</time>
      </trkpt>
      <trkpt lat="44.22728" lon="2.68982">
        <ele>749</ele>
        <time>2025-09-17T10:40:57Z</time>
      </trkpt>
      <trkpt lat="44.22745" lon="2.68987">
        <ele>747.08</ele>
        <time>2025-09-17T10:40:44Z</time>
      </trkpt>
      <trkpt lat="44.22764" lon="2.68995">
        <ele>745.64</ele>
        <time>2025-09-17T10:40:30Z</time>
      </trkpt>
      <trkpt lat="44.22782" lon="2.69007">
        <ele>745.64</ele>
        <time>2025-09-17T10:40:16Z</time>
      </trkpt>
      <trkpt lat="44.22799" lon="2.69022">
        <ele>745.16</ele>
        <time>2025-09-17T10:40:02Z</time>
      </trkpt>
      <trkpt lat="44.22819" lon="2.6904">
        <ele>745.16</ele>
        <time>2025-09-17T10:39:45Z</time>
      </trkpt>
      <trkpt lat="44.22837" lon="2.69063">
        <ele>746.6</ele>
        <time>2025-09-17T10:39:27Z</time>
      </trkpt>
      <trkpt lat="44.22853" lon="2.69085">
        <ele>747.08</ele>
        <time>2025-09-17T10:39:12Z</time>
      </trkpt>
      <trkpt lat="44.2287" lon="2.69107">
        <ele>746.12</ele>
        <time>2025-09-17T10:38:57Z</time>
      </trkpt>
      <trkpt lat="44.22885" lon="2.69128">
        <ele>744.2</ele>
        <time>2025-09-17T10:38:42Z</time>
      </trkpt>
      <trkpt lat="44.22899" lon="2.6915">
        <ele>744.68</ele>
        <time>2025-09-17T10:38:28Z</time>
      </trkpt>
      <trkpt lat="44.22915" lon="2.69169">
        <ele>742.28</ele>
        <time>2025-09-17T10:38:15Z</time>
      </trkpt>
      <trkpt lat="44.22932" lon="2.6919">
        <ele>739.39</ele>
        <time>2025-09-17T10:37:58Z</time>
      </trkpt>
      <trkpt lat="44.22951" lon="2.69216">
        <ele>738.43</ele>
        <time>2025-09-17T10:37:40Z</time>
      </trkpt>
      <trkpt lat="44.2297" lon="2.69245">
        <ele>736.03</ele>
        <time>2025-09-17T10:37:23Z</time>
      </trkpt>
      <trkpt lat="44.22986" lon="2.69263">
        <ele>733.62</ele>
        <time>2025-09-17T10:37:09Z</time>
      </trkpt>
      <trkpt lat="44.23007" lon="2.69266">
        <ele>727.86</ele>
        <time>2025-09-17T10:36:54Z</time>
      </trkpt>
      <trkpt lat="44.23018" lon="2.69254">
        <ele>729.78</ele>
        <time>2025-09-17T10:36:41Z</time>
      </trkpt>
      <trkpt lat="44.23032" lon="2.69233">
        <ele>729.78</ele>
        <time>2025-09-17T10:36:25Z</time>
      </trkpt>
      <trkpt lat="44.23055" lon="2.69236">
        <ele>728.82</ele>
        <time>2025-09-17T10:36:09Z</time>
      </trkpt>
      <trkpt lat="44.23075" lon="2.69254">
        <ele>728.34</ele>
        <time>2025-09-17T10:35:54Z</time>
      </trkpt>
      <trkpt lat="44.23083" lon="2.69277">
        <ele>731.7</ele>
        <time>2025-09-17T10:35:40Z</time>
      </trkpt>
      <trkpt lat="44.23083" lon="2.69279">
        <ele>732.18</ele>
        <time>2025-09-17T10:35:39Z</time>
      </trkpt>
      <trkpt lat="44.23083" lon="2.6928">
        <ele>732.18</ele>
        <time>2025-09-17T10:35:38Z</time>
      </trkpt>
      <trkpt lat="44.23082" lon="2.69282">
        <ele>732.18</ele>
        <time>2025-09-17T10:35:37Z</time>
      </trkpt>
      <trkpt lat="44.23082" lon="2.69284">
        <ele>732.18</ele>
        <time>2025-09-17T10:35:36Z</time>
      </trkpt>
      <trkpt lat="44.23081" lon="2.69289">
        <ele>732.18</ele>
        <time>2025-09-17T10:35:33Z</time>
      </trkpt>
      <trkpt lat="44.23074" lon="2.69322">
        <ele>732.66</ele>
        <time>2025-09-17T10:35:17Z</time>
      </trkpt>
      <trkpt lat="44.23073" lon="2.69324">
        <ele>732.66</ele>
        <time>2025-09-17T10:35:16Z</time>
      </trkpt>
      <trkpt lat="44.23073" lon="2.69325">
        <ele>732.66</ele>
        <time>2025-09-17T10:35:15Z</time>
      </trkpt>
      <trkpt lat="44.23072" lon="2.69327">
        <ele>732.66</ele>
        <time>2025-09-17T10:35:14Z</time>
      </trkpt>
      <trkpt lat="44.2307" lon="2.69336">
        <ele>733.14</ele>
        <time>2025-09-17T10:35:09Z</time>
      </trkpt>
      <trkpt lat="44.23065" lon="2.6937">
        <ele>735.55</ele>
        <time>2025-09-17T10:34:52Z</time>
      </trkpt>
      <trkpt lat="44.23062" lon="2.6941">
        <ele>737.47</ele>
        <time>2025-09-17T10:34:33Z</time>
      </trkpt>
      <trkpt lat="44.2306" lon="2.69446">
        <ele>739.87</ele>
        <time>2025-09-17T10:34:16Z</time>
      </trkpt>
      <trkpt lat="44.23055" lon="2.69476">
        <ele>741.79</ele>
        <time>2025-09-17T10:34:02Z</time>
      </trkpt>
      <trkpt lat="44.23051" lon="2.69504">
        <ele>743.24</ele>
        <time>2025-09-17T10:33:46Z</time>
      </trkpt>
      <trkpt lat="44.23052" lon="2.69546">
        <ele>746.12</ele>
        <time>2025-09-17T10:33:28Z</time>
      </trkpt>
      <trkpt lat="44.23053" lon="2.69587">
        <ele>748.52</ele>
        <time>2025-09-17T10:33:11Z</time>
      </trkpt>
      <trkpt lat="44.23056" lon="2.69594">
        <ele>748.52</ele>
        <time>2025-09-17T10:33:07Z</time>
      </trkpt>
      <trkpt lat="44.23069" lon="2.69619">
        <ele>750.93</ele>
        <time>2025-09-17T10:32:52Z</time>
      </trkpt>
      <trkpt lat="44.23081" lon="2.69646">
        <ele>755.25</ele>
        <time>2025-09-17T10:32:38Z</time>
      </trkpt>
      <trkpt lat="44.23088" lon="2.69661">
        <ele>757.66</ele>
        <time>2025-09-17T10:32:30Z</time>
      </trkpt>
      <trkpt lat="44.23099" lon="2.69686">
        <ele>757.66</ele>
        <time>2025-09-17T10:32:15Z</time>
      </trkpt>
      <trkpt lat="44.23108" lon="2.6971">
        <ele>757.66</ele>
        <time>2025-09-17T10:32:04Z</time>
      </trkpt>
      <trkpt lat="44.23109" lon="2.69712">
        <ele>757.18</ele>
        <time>2025-09-17T10:32:03Z</time>
      </trkpt>
      <trkpt lat="44.2311" lon="2.69714">
        <ele>757.18</ele>
        <time>2025-09-17T10:32:02Z</time>
      </trkpt>
      <trkpt lat="44.23111" lon="2.69716">
        <ele>757.18</ele>
        <time>2025-09-17T10:32:01Z</time>
      </trkpt>
      <trkpt lat="44.23111" lon="2.69718">
        <ele>756.69</ele>
        <time>2025-09-17T10:32:00Z</time>
      </trkpt>
      <trkpt lat="44.23111" lon="2.6972">
        <ele>756.69</ele>
        <time>2025-09-17T10:31:59Z</time>
      </trkpt>
      <trkpt lat="44.23118" lon="2.69729">
        <ele>757.66</ele>
        <time>2025-09-17T10:31:52Z</time>
      </trkpt>
      <trkpt lat="44.23131" lon="2.69752">
        <ele>757.18</ele>
        <time>2025-09-17T10:31:38Z</time>
      </trkpt>
      <trkpt lat="44.23146" lon="2.69771">
        <ele>758.62</ele>
        <time>2025-09-17T10:31:24Z</time>
      </trkpt>
      <trkpt lat="44.23167" lon="2.69783">
        <ele>758.14</ele>
        <time>2025-09-17T10:31:09Z</time>
      </trkpt>
      <trkpt lat="44.23168" lon="2.69783">
        <ele>758.14</ele>
        <time>2025-09-17T10:31:08Z</time>
      </trkpt>
      <trkpt lat="44.23186" lon="2.69794">
        <ele>758.14</ele>
        <time>2025-09-17T10:30:55Z</time>
      </trkpt>
      <trkpt lat="44.23201" lon="2.69806">
        <ele>758.62</ele>
        <time>2025-09-17T10:30:43Z</time>
      </trkpt>
      <trkpt lat="44.23203" lon="2.69808">
        <ele>758.62</ele>
        <time>2025-09-17T10:30:42Z</time>
      </trkpt>
      <trkpt lat="44.2321" lon="2.69818">
        <ele>760.54</ele>
        <time>2025-09-17T10:30:36Z</time>
      </trkpt>
      <trkpt lat="44.23224" lon="2.69842">
        <ele>761.98</ele>
        <time>2025-09-17T10:30:21Z</time>
      </trkpt>
      <trkpt lat="44.2324" lon="2.69871">
        <ele>763.42</ele>
        <time>2025-09-17T10:30:03Z</time>
      </trkpt>
      <trkpt lat="44.23245" lon="2.69879">
        <ele>763.9</ele>
        <time>2025-09-17T10:29:58Z</time>
      </trkpt>
      <trkpt lat="44.23249" lon="2.69884">
        <ele>763.9</ele>
        <time>2025-09-17T10:29:54Z</time>
      </trkpt>
      <trkpt lat="44.23268" lon="2.69908">
        <ele>768.23</ele>
        <time>2025-09-17T10:29:39Z</time>
      </trkpt>
      <trkpt lat="44.2329" lon="2.69919">
        <ele>771.11</ele>
        <time>2025-09-17T10:29:24Z</time>
      </trkpt>
      <trkpt lat="44.23299" lon="2.69917">
        <ele>771.6</ele>
        <time>2025-09-17T10:29:19Z</time>
      </trkpt>
      <trkpt lat="44.23303" lon="2.69915">
        <ele>771.6</ele>
        <time>2025-09-17T10:29:17Z</time>
      </trkpt>
      <trkpt lat="44.23323" lon="2.69908">
        <ele>772.56</ele>
        <time>2025-09-17T10:29:02Z</time>
      </trkpt>
      <trkpt lat="44.23342" lon="2.69907">
        <ele>773.52</ele>
        <time>2025-09-17T10:28:47Z</time>
      </trkpt>
      <trkpt lat="44.23351" lon="2.69913">
        <ele>774</ele>
        <time>2025-09-17T10:28:39Z</time>
      </trkpt>
      <trkpt lat="44.23357" lon="2.69918">
        <ele>774.96</ele>
        <time>2025-09-17T10:28:34Z</time>
      </trkpt>
      <trkpt lat="44.2337" lon="2.69938">
        <ele>777.36</ele>
        <time>2025-09-17T10:28:20Z</time>
      </trkpt>
      <trkpt lat="44.23381" lon="2.69973">
        <ele>777.36</ele>
        <time>2025-09-17T10:28:01Z</time>
      </trkpt>
      <trkpt lat="44.23395" lon="2.7">
        <ele>775.44</ele>
        <time>2025-09-17T10:27:46Z</time>
      </trkpt>
      <trkpt lat="44.2341" lon="2.70017">
        <ele>777.84</ele>
        <time>2025-09-17T10:27:31Z</time>
      </trkpt>
      <trkpt lat="44.23427" lon="2.70035">
        <ele>779.77</ele>
        <time>2025-09-17T10:27:16Z</time>
      </trkpt>
      <trkpt lat="44.23447" lon="2.70049">
        <ele>780.25</ele>
        <time>2025-09-17T10:27:01Z</time>
      </trkpt>
      <trkpt lat="44.23474" lon="2.7005">
        <ele>780.73</ele>
        <time>2025-09-17T10:26:45Z</time>
      </trkpt>
      <trkpt lat="44.23498" lon="2.70052">
        <ele>780.25</ele>
        <time>2025-09-17T10:26:29Z</time>
      </trkpt>
      <trkpt lat="44.23523" lon="2.70063">
        <ele>781.21</ele>
        <time>2025-09-17T10:26:12Z</time>
      </trkpt>
      <trkpt lat="44.23524" lon="2.70064">
        <ele>781.21</ele>
        <time>2025-09-17T10:26:11Z</time>
      </trkpt>
      <trkpt lat="44.23543" lon="2.70078">
        <ele>781.21</ele>
        <time>2025-09-17T10:25:56Z</time>
      </trkpt>
      <trkpt lat="44.23564" lon="2.70099">
        <ele>777.36</ele>
        <time>2025-09-17T10:25:39Z</time>
      </trkpt>
      <trkpt lat="44.23578" lon="2.70095">
        <ele>778.81</ele>
        <time>2025-09-17T10:25:26Z</time>
      </trkpt>
      <trkpt lat="44.23552" lon="2.70057">
        <ele>784.09</ele>
        <time>2025-09-17T10:25:02Z</time>
      </trkpt>
      <trkpt lat="44.23532" lon="2.70029">
        <ele>784.57</ele>
        <time>2025-09-17T10:24:42Z</time>
      </trkpt>
      <trkpt lat="44.23513" lon="2.70006">
        <ele>783.61</ele>
        <time>2025-09-17T10:24:25Z</time>
      </trkpt>
      <trkpt lat="44.23492" lon="2.69971">
        <ele>783.13</ele>
        <time>2025-09-17T10:24:05Z</time>
      </trkpt>
      <trkpt lat="44.23476" lon="2.69937">
        <ele>782.17</ele>
        <time>2025-09-17T10:23:46Z</time>
      </trkpt>
      <trkpt lat="44.23455" lon="2.69897">
        <ele>782.17</ele>
        <time>2025-09-17T10:23:24Z</time>
      </trkpt>
      <trkpt lat="44.23432" lon="2.69867">
        <ele>780.73</ele>
        <time>2025-09-17T10:23:06Z</time>
      </trkpt>
      <trkpt lat="44.23429" lon="2.69862">
        <ele>780.73</ele>
        <time>2025-09-17T10:23:03Z</time>
      </trkpt>
      <trkpt lat="44.2341" lon="2.69849">
        <ele>780.73</ele>
        <time>2025-09-17T10:22:48Z</time>
      </trkpt>
      <trkpt lat="44.23387" lon="2.69834">
        <ele>779.77</ele>
        <time>2025-09-17T10:22:33Z</time>
      </trkpt>
      <trkpt lat="44.23373" lon="2.69822">
        <ele>785.53</ele>
        <time>2025-09-17T10:22:19Z</time>
      </trkpt>
      <trkpt lat="44.23361" lon="2.69802">
        <ele>787.94</ele>
        <time>2025-09-17T10:22:03Z</time>
      </trkpt>
      <trkpt lat="44.23356" lon="2.69787">
        <ele>788.42</ele>
        <time>2025-09-17T10:21:54Z</time>
      </trkpt>
      <trkpt lat="44.2335" lon="2.6976">
        <ele>787.94</ele>
        <time>2025-09-17T10:21:37Z</time>
      </trkpt>
      <trkpt lat="44.2335" lon="2.69758">
        <ele>787.94</ele>
        <time>2025-09-17T10:21:36Z</time>
      </trkpt>
      <trkpt lat="44.23343" lon="2.69735">
        <ele>789.86</ele>
        <time>2025-09-17T10:21:25Z</time>
      </trkpt>
      <trkpt lat="44.23339" lon="2.69706">
        <ele>788.42</ele>
        <time>2025-09-17T10:21:07Z</time>
      </trkpt>
      <trkpt lat="44.2334" lon="2.69687">
        <ele>787.46</ele>
        <time>2025-09-17T10:20:49Z</time>
      </trkpt>
      <trkpt lat="44.23339" lon="2.69686">
        <ele>787.94</ele>
        <time>2025-09-17T10:20:26Z</time>
      </trkpt>
      <trkpt lat="44.23336" lon="2.69681">
        <ele>788.42</ele>
        <time>2025-09-17T10:20:10Z</time>
      </trkpt>
      <trkpt lat="44.23333" lon="2.69678">
        <ele>788.42</ele>
        <time>2025-09-17T10:19:57Z</time>
      </trkpt>
      <trkpt lat="44.23328" lon="2.69684">
        <ele>786.5</ele>
        <time>2025-09-17T10:19:45Z</time>
      </trkpt>
      <trkpt lat="44.23331" lon="2.69687">
        <ele>786.02</ele>
        <time>2025-09-17T10:19:22Z</time>
      </trkpt>
      <trkpt lat="44.23329" lon="2.69688">
        <ele>787.46</ele>
        <time>2025-09-17T10:19:04Z</time>
      </trkpt>
      <trkpt lat="44.23329" lon="2.69683">
        <ele>791.78</ele>
        <time>2025-09-17T10:18:51Z</time>
      </trkpt>
      <trkpt lat="44.23329" lon="2.69681">
        <ele>792.26</ele>
        <time>2025-09-17T10:18:50Z</time>
      </trkpt>
      <trkpt lat="44.23336" lon="2.69685">
        <ele>792.26</ele>
        <time>2025-09-17T10:18:40Z</time>
      </trkpt>
      <trkpt lat="44.23335" lon="2.69693">
        <ele>790.82</ele>
        <time>2025-09-17T10:18:29Z</time>
      </trkpt>
      <trkpt lat="44.23339" lon="2.69707">
        <ele>788.9</ele>
        <time>2025-09-17T10:18:13Z</time>
      </trkpt>
      <trkpt lat="44.2334" lon="2.6971">
        <ele>789.38</ele>
        <time>2025-09-17T10:18:07Z</time>
      </trkpt>
      <trkpt lat="44.23338" lon="2.6969">
        <ele>790.34</ele>
        <time>2025-09-17T10:17:56Z</time>
      </trkpt>
      <trkpt lat="44.23347" lon="2.69654">
        <ele>788.42</ele>
        <time>2025-09-17T10:17:38Z</time>
      </trkpt>
      <trkpt lat="44.23348" lon="2.69651">
        <ele>787.94</ele>
        <time>2025-09-17T10:17:37Z</time>
      </trkpt>
      <trkpt lat="44.23353" lon="2.69643">
        <ele>788.9</ele>
        <time>2025-09-17T10:17:31Z</time>
      </trkpt>
      <trkpt lat="44.23369" lon="2.69626">
        <ele>789.38</ele>
        <time>2025-09-17T10:17:16Z</time>
      </trkpt>
      <trkpt lat="44.23385" lon="2.69608">
        <ele>789.86</ele>
        <time>2025-09-17T10:17:01Z</time>
      </trkpt>
      <trkpt lat="44.23394" lon="2.69583">
        <ele>793.22</ele>
        <time>2025-09-17T10:16:45Z</time>
      </trkpt>
      <trkpt lat="44.23395" lon="2.6958">
        <ele>793.71</ele>
        <time>2025-09-17T10:16:44Z</time>
      </trkpt>
      <trkpt lat="44.23396" lon="2.69578">
        <ele>793.71</ele>
        <time>2025-09-17T10:16:43Z</time>
      </trkpt>
      <trkpt lat="44.23396" lon="2.69576">
        <ele>793.71</ele>
        <time>2025-09-17T10:16:42Z</time>
      </trkpt>
      <trkpt lat="44.23397" lon="2.69574">
        <ele>793.71</ele>
        <time>2025-09-17T10:16:41Z</time>
      </trkpt>
      <trkpt lat="44.23398" lon="2.69572">
        <ele>793.71</ele>
        <time>2025-09-17T10:16:40Z</time>
      </trkpt>
      <trkpt lat="44.23399" lon="2.69571">
        <ele>793.71</ele>
        <time>2025-09-17T10:16:39Z</time>
      </trkpt>
      <trkpt lat="44.23399" lon="2.69569">
        <ele>794.19</ele>
        <time>2025-09-17T10:16:38Z</time>
      </trkpt>
      <trkpt lat="44.23402" lon="2.69562">
        <ele>793.71</ele>
        <time>2025-09-17T10:16:32Z</time>
      </trkpt>
      <trkpt lat="44.23403" lon="2.69556">
        <ele>792.26</ele>
        <time>2025-09-17T10:16:21Z</time>
      </trkpt>
      <trkpt lat="44.23405" lon="2.69557">
        <ele>790.82</ele>
        <time>2025-09-17T10:16:13Z</time>
      </trkpt>
      <trkpt lat="44.23409" lon="2.69555">
        <ele>787.94</ele>
        <time>2025-09-17T10:16:04Z</time>
      </trkpt>
      <trkpt lat="44.23423" lon="2.69555">
        <ele>788.42</ele>
        <time>2025-09-17T10:15:51Z</time>
      </trkpt>
      <trkpt lat="44.2344" lon="2.69561">
        <ele>790.34</ele>
        <time>2025-09-17T10:15:35Z</time>
      </trkpt>
      <trkpt lat="44.23458" lon="2.69569">
        <ele>791.3</ele>
        <time>2025-09-17T10:15:20Z</time>
      </trkpt>
      <trkpt lat="44.23476" lon="2.69578">
        <ele>793.71</ele>
        <time>2025-09-17T10:15:03Z</time>
      </trkpt>
      <trkpt lat="44.23492" lon="2.69585">
        <ele>796.11</ele>
        <time>2025-09-17T10:14:47Z</time>
      </trkpt>
      <trkpt lat="44.23506" lon="2.69591">
        <ele>797.55</ele>
        <time>2025-09-17T10:14:32Z</time>
      </trkpt>
      <trkpt lat="44.23516" lon="2.69597">
        <ele>795.63</ele>
        <time>2025-09-17T10:14:19Z</time>
      </trkpt>
      <trkpt lat="44.2352" lon="2.69593">
        <ele>794.19</ele>
        <time>2025-09-17T10:13:57Z</time>
      </trkpt>
      <trkpt lat="44.23518" lon="2.69587">
        <ele>792.74</ele>
        <time>2025-09-17T10:13:36Z</time>
      </trkpt>
      <trkpt lat="44.23519" lon="2.69589">
        <ele>789.86</ele>
        <time>2025-09-17T10:13:19Z</time>
      </trkpt>
      <trkpt lat="44.23518" lon="2.69586">
        <ele>788.42</ele>
        <time>2025-09-17T10:13:00Z</time>
      </trkpt>
      <trkpt lat="44.23512" lon="2.69587">
        <ele>790.34</ele>
        <time>2025-09-17T10:12:44Z</time>
      </trkpt>
      <trkpt lat="44.2351" lon="2.6958">
        <ele>791.78</ele>
        <time>2025-09-17T10:12:26Z</time>
      </trkpt>
      <trkpt lat="44.23509" lon="2.69582">
        <ele>794.19</ele>
        <time>2025-09-17T10:12:08Z</time>
      </trkpt>
      <trkpt lat="44.23509" lon="2.69583">
        <ele>795.63</ele>
        <time>2025-09-17T10:11:31Z</time>
      </trkpt>
      <trkpt lat="44.23508" lon="2.69579">
        <ele>794.67</ele>
        <time>2025-09-17T10:11:15Z</time>
      </trkpt>
      <trkpt lat="44.2351" lon="2.69589">
        <ele>795.15</ele>
        <time>2025-09-17T10:10:57Z</time>
      </trkpt>
      <trkpt lat="44.23517" lon="2.69596">
        <ele>793.22</ele>
        <time>2025-09-17T10:10:43Z</time>
      </trkpt>
      <trkpt lat="44.23526" lon="2.69598">
        <ele>791.3</ele>
        <time>2025-09-17T10:10:29Z</time>
      </trkpt>
      <trkpt lat="44.23531" lon="2.69597">
        <ele>791.3</ele>
        <time>2025-09-17T10:10:08Z</time>
      </trkpt>
      <trkpt lat="44.23552" lon="2.69599">
        <ele>789.86</ele>
        <time>2025-09-17T10:09:54Z</time>
      </trkpt>
      <trkpt lat="44.23575" lon="2.69604">
        <ele>788.42</ele>
        <time>2025-09-17T10:09:42Z</time>
      </trkpt>
      <trkpt lat="44.23577" lon="2.69604">
        <ele>788.42</ele>
        <time>2025-09-17T10:09:41Z</time>
      </trkpt>
      <trkpt lat="44.2358" lon="2.69605">
        <ele>788.42</ele>
        <time>2025-09-17T10:09:40Z</time>
      </trkpt>
      <trkpt lat="44.23594" lon="2.6961">
        <ele>790.34</ele>
        <time>2025-09-17T10:09:32Z</time>
      </trkpt>
      <trkpt lat="44.23596" lon="2.69611">
        <ele>790.82</ele>
        <time>2025-09-17T10:09:31Z</time>
      </trkpt>
      <trkpt lat="44.23608" lon="2.6961">
        <ele>797.07</ele>
        <time>2025-09-17T10:09:22Z</time>
      </trkpt>
      <trkpt lat="44.23624" lon="2.69605">
        <ele>805.72</ele>
        <time>2025-09-17T10:09:11Z</time>
      </trkpt>
      <trkpt lat="44.23638" lon="2.69605">
        <ele>811.01</ele>
        <time>2025-09-17T10:09:01Z</time>
      </trkpt>
      <trkpt lat="44.23639" lon="2.69605">
        <ele>811.01</ele>
        <time>2025-09-17T10:09:00Z</time>
      </trkpt>
      <trkpt lat="44.23641" lon="2.69606">
        <ele>811.01</ele>
        <time>2025-09-17T10:08:59Z</time>
      </trkpt>
      <trkpt lat="44.23643" lon="2.69607">
        <ele>811.01</ele>
        <time>2025-09-17T10:08:58Z</time>
      </trkpt>
      <trkpt lat="44.23644" lon="2.69609">
        <ele>811.01</ele>
        <time>2025-09-17T10:08:57Z</time>
      </trkpt>
      <trkpt lat="44.23664" lon="2.69624">
        <ele>810.05</ele>
        <time>2025-09-17T10:08:44Z</time>
      </trkpt>
      <trkpt lat="44.23686" lon="2.69639">
        <ele>809.57</ele>
        <time>2025-09-17T10:08:29Z</time>
      </trkpt>
      <trkpt lat="44.2369" lon="2.69642">
        <ele>809.57</ele>
        <time>2025-09-17T10:08:28Z</time>
      </trkpt>
      <trkpt lat="44.23706" lon="2.69651">
        <ele>809.57</ele>
        <time>2025-09-17T10:08:21Z</time>
      </trkpt>
      <trkpt lat="44.23737" lon="2.69665">
        <ele>809.57</ele>
        <time>2025-09-17T10:08:04Z</time>
      </trkpt>
      <trkpt lat="44.23753" lon="2.69663">
        <ele>808.13</ele>
        <time>2025-09-17T10:07:49Z</time>
      </trkpt>
      <trkpt lat="44.23765" lon="2.69665">
        <ele>812.45</ele>
        <time>2025-09-17T10:07:35Z</time>
      </trkpt>
      <trkpt lat="44.2378" lon="2.69667">
        <ele>817.26</ele>
        <time>2025-09-17T10:07:21Z</time>
      </trkpt>
      <trkpt lat="44.23799" lon="2.69681">
        <ele>822.06</ele>
        <time>2025-09-17T10:07:06Z</time>
      </trkpt>
      <trkpt lat="44.23805" lon="2.6968">
        <ele>820.14</ele>
        <time>2025-09-17T10:06:36Z</time>
      </trkpt>
      <trkpt lat="44.23805" lon="2.69681">
        <ele>820.14</ele>
        <time>2025-09-17T10:06:13Z</time>
      </trkpt>
      <trkpt lat="44.23807" lon="2.69681">
        <ele>819.66</ele>
        <time>2025-09-17T10:05:56Z</time>
      </trkpt>
      <trkpt lat="44.23809" lon="2.69681">
        <ele>821.1</ele>
        <time>2025-09-17T10:05:38Z</time>
      </trkpt>
      <trkpt lat="44.23809" lon="2.69678">
        <ele>820.14</ele>
        <time>2025-09-17T10:05:15Z</time>
      </trkpt>
      <trkpt lat="44.23808" lon="2.69678">
        <ele>822.55</ele>
        <time>2025-09-17T10:04:40Z</time>
      </trkpt>
      <trkpt lat="44.23806" lon="2.69674">
        <ele>826.39</ele>
        <time>2025-09-17T10:04:12Z</time>
      </trkpt>
      <trkpt lat="44.23804" lon="2.69678">
        <ele>823.99</ele>
        <time>2025-09-17T10:03:49Z</time>
      </trkpt>
      <trkpt lat="44.238" lon="2.69671">
        <ele>825.91</ele>
        <time>2025-09-17T10:03:28Z</time>
      </trkpt>
      <trkpt lat="44.238" lon="2.69671">
        <ele>825.91</ele>
        <time>2025-09-17T10:03:00Z</time>
      </trkpt>
      <trkpt lat="44.23802" lon="2.69671">
        <ele>822.06</ele>
        <time>2025-09-17T10:02:22Z</time>
      </trkpt>
      <trkpt lat="44.23799" lon="2.69678">
        <ele>823.03</ele>
        <time>2025-09-17T10:01:51Z</time>
      </trkpt>
      <trkpt lat="44.23802" lon="2.69683">
        <ele>824.95</ele>
        <time>2025-09-17T10:01:32Z</time>
      </trkpt>
      <trkpt lat="44.23807" lon="2.69687">
        <ele>822.55</ele>
        <time>2025-09-17T10:01:14Z</time>
      </trkpt>
      <trkpt lat="44.23808" lon="2.69688">
        <ele>822.06</ele>
        <time>2025-09-17T10:01:13Z</time>
      </trkpt>
      <trkpt lat="44.2381" lon="2.69688">
        <ele>822.06</ele>
        <time>2025-09-17T10:01:12Z</time>
      </trkpt>
      <trkpt lat="44.23811" lon="2.69689">
        <ele>821.58</ele>
        <time>2025-09-17T10:01:11Z</time>
      </trkpt>
      <trkpt lat="44.23812" lon="2.6969">
        <ele>821.58</ele>
        <time>2025-09-17T10:01:10Z</time>
      </trkpt>
      <trkpt lat="44.23815" lon="2.69691">
        <ele>821.58</ele>
        <time>2025-09-17T10:01:08Z</time>
      </trkpt>
      <trkpt lat="44.23821" lon="2.69695">
        <ele>821.58</ele>
        <time>2025-09-17T10:00:44Z</time>
      </trkpt>
      <trkpt lat="44.23822" lon="2.69697">
        <ele>823.03</ele>
        <time>2025-09-17T10:00:16Z</time>
      </trkpt>
      <trkpt lat="44.23835" lon="2.69708">
        <ele>826.87</ele>
        <time>2025-09-17T10:00:02Z</time>
      </trkpt>
      <trkpt lat="44.23854" lon="2.6972">
        <ele>829.27</ele>
        <time>2025-09-17T09:59:50Z</time>
      </trkpt>
      <trkpt lat="44.23873" lon="2.69732">
        <ele>832.16</ele>
        <time>2025-09-17T09:59:39Z</time>
      </trkpt>
      <trkpt lat="44.23895" lon="2.69742">
        <ele>832.16</ele>
        <time>2025-09-17T09:59:26Z</time>
      </trkpt>
      <trkpt lat="44.23917" lon="2.69755">
        <ele>832.16</ele>
        <time>2025-09-17T09:59:14Z</time>
      </trkpt>
      <trkpt lat="44.23938" lon="2.69765">
        <ele>831.68</ele>
        <time>2025-09-17T09:59:00Z</time>
      </trkpt>
      <trkpt lat="44.23956" lon="2.69782">
        <ele>832.64</ele>
        <time>2025-09-17T09:58:45Z</time>
      </trkpt>
      <trkpt lat="44.23979" lon="2.69796">
        <ele>833.6</ele>
        <time>2025-09-17T09:58:32Z</time>
      </trkpt>
      <trkpt lat="44.24002" lon="2.69809">
        <ele>834.08</ele>
        <time>2025-09-17T09:58:19Z</time>
      </trkpt>
      <trkpt lat="44.2402" lon="2.69821">
        <ele>833.6</ele>
        <time>2025-09-17T09:58:08Z</time>
      </trkpt>
      <trkpt lat="44.24044" lon="2.69834">
        <ele>836</ele>
        <time>2025-09-17T09:57:55Z</time>
      </trkpt>
      <trkpt lat="44.24066" lon="2.69846">
        <ele>836.48</ele>
        <time>2025-09-17T09:57:42Z</time>
      </trkpt>
      <trkpt lat="44.24082" lon="2.69856">
        <ele>837.45</ele>
        <time>2025-09-17T09:57:31Z</time>
      </trkpt>
      <trkpt lat="44.24102" lon="2.69867">
        <ele>838.89</ele>
        <time>2025-09-17T09:57:20Z</time>
      </trkpt>
      <trkpt lat="44.24121" lon="2.69881">
        <ele>839.37</ele>
        <time>2025-09-17T09:57:09Z</time>
      </trkpt>
      <trkpt lat="44.24142" lon="2.69894">
        <ele>839.37</ele>
        <time>2025-09-17T09:56:57Z</time>
      </trkpt>
      <trkpt lat="44.24144" lon="2.69895">
        <ele>839.37</ele>
        <time>2025-09-17T09:56:56Z</time>
      </trkpt>
      <trkpt lat="44.24146" lon="2.69897">
        <ele>839.37</ele>
        <time>2025-09-17T09:56:55Z</time>
      </trkpt>
      <trkpt lat="44.24148" lon="2.69898">
        <ele>839.37</ele>
        <time>2025-09-17T09:56:54Z</time>
      </trkpt>
      <trkpt lat="44.24149" lon="2.69899">
        <ele>839.37</ele>
        <time>2025-09-17T09:56:53Z</time>
      </trkpt>
      <trkpt lat="44.24151" lon="2.699">
        <ele>839.37</ele>
        <time>2025-09-17T09:56:52Z</time>
      </trkpt>
      <trkpt lat="44.24152" lon="2.69901">
        <ele>839.37</ele>
        <time>2025-09-17T09:56:51Z</time>
      </trkpt>
      <trkpt lat="44.24153" lon="2.69902">
        <ele>839.37</ele>
        <time>2025-09-17T09:56:50Z</time>
      </trkpt>
      <trkpt lat="44.24154" lon="2.69903">
        <ele>839.37</ele>
        <time>2025-09-17T09:56:49Z</time>
      </trkpt>
      <trkpt lat="44.24155" lon="2.69904">
        <ele>839.37</ele>
        <time>2025-09-17T09:56:48Z</time>
      </trkpt>
      <trkpt lat="44.24159" lon="2.69906">
        <ele>838.89</ele>
        <time>2025-09-17T09:56:46Z</time>
      </trkpt>
      <trkpt lat="44.24181" lon="2.6992">
        <ele>839.37</ele>
        <time>2025-09-17T09:56:33Z</time>
      </trkpt>
      <trkpt lat="44.24201" lon="2.69931">
        <ele>840.81</ele>
        <time>2025-09-17T09:56:21Z</time>
      </trkpt>
      <trkpt lat="44.24225" lon="2.69943">
        <ele>842.25</ele>
        <time>2025-09-17T09:56:08Z</time>
      </trkpt>
      <trkpt lat="44.2425" lon="2.69956">
        <ele>843.21</ele>
        <time>2025-09-17T09:55:53Z</time>
      </trkpt>
      <trkpt lat="44.24271" lon="2.69963">
        <ele>843.69</ele>
        <time>2025-09-17T09:55:40Z</time>
      </trkpt>
      <trkpt lat="44.24295" lon="2.69973">
        <ele>844.18</ele>
        <time>2025-09-17T09:55:27Z</time>
      </trkpt>
      <trkpt lat="44.24316" lon="2.69985">
        <ele>844.18</ele>
        <time>2025-09-17T09:55:14Z</time>
      </trkpt>
      <trkpt lat="44.24336" lon="2.69996">
        <ele>847.54</ele>
        <time>2025-09-17T09:55:01Z</time>
      </trkpt>
      <trkpt lat="44.24356" lon="2.70011">
        <ele>849.94</ele>
        <time>2025-09-17T09:54:47Z</time>
      </trkpt>
      <trkpt lat="44.24378" lon="2.70028">
        <ele>851.87</ele>
        <time>2025-09-17T09:54:33Z</time>
      </trkpt>
      <trkpt lat="44.24402" lon="2.70043">
        <ele>851.87</ele>
        <time>2025-09-17T09:54:18Z</time>
      </trkpt>
      <trkpt lat="44.24425" lon="2.70056">
        <ele>850.9</ele>
        <time>2025-09-17T09:54:04Z</time>
      </trkpt>
      <trkpt lat="44.2445" lon="2.70064">
        <ele>848.5</ele>
        <time>2025-09-17T09:53:49Z</time>
      </trkpt>
      <trkpt lat="44.24468" lon="2.70067">
        <ele>847.54</ele>
        <time>2025-09-17T09:53:36Z</time>
      </trkpt>
      <trkpt lat="44.24486" lon="2.70071">
        <ele>848.5</ele>
        <time>2025-09-17T09:53:23Z</time>
      </trkpt>
      <trkpt lat="44.24509" lon="2.70079">
        <ele>848.5</ele>
        <time>2025-09-17T09:53:08Z</time>
      </trkpt>
      <trkpt lat="44.24511" lon="2.70079">
        <ele>848.02</ele>
        <time>2025-09-17T09:53:07Z</time>
      </trkpt>
      <trkpt lat="44.24513" lon="2.70079">
        <ele>848.02</ele>
        <time>2025-09-17T09:53:06Z</time>
      </trkpt>
      <trkpt lat="44.2453" lon="2.70082">
        <ele>847.06</ele>
        <time>2025-09-17T09:52:56Z</time>
      </trkpt>
      <trkpt lat="44.24554" lon="2.70093">
        <ele>846.1</ele>
        <time>2025-09-17T09:52:41Z</time>
      </trkpt>
      <trkpt lat="44.24576" lon="2.70099">
        <ele>845.62</ele>
        <time>2025-09-17T09:52:27Z</time>
      </trkpt>
      <trkpt lat="44.24601" lon="2.70107">
        <ele>844.18</ele>
        <time>2025-09-17T09:52:12Z</time>
      </trkpt>
      <trkpt lat="44.24625" lon="2.70111">
        <ele>843.21</ele>
        <time>2025-09-17T09:51:58Z</time>
      </trkpt>
      <trkpt lat="44.24649" lon="2.7012">
        <ele>842.25</ele>
        <time>2025-09-17T09:51:44Z</time>
      </trkpt>
      <trkpt lat="44.24674" lon="2.70126">
        <ele>842.25</ele>
        <time>2025-09-17T09:51:28Z</time>
      </trkpt>
      <trkpt lat="44.24701" lon="2.70136">
        <ele>842.25</ele>
        <time>2025-09-17T09:51:13Z</time>
      </trkpt>
      <trkpt lat="44.24726" lon="2.70146">
        <ele>842.25</ele>
        <time>2025-09-17T09:50:56Z</time>
      </trkpt>
      <trkpt lat="44.24752" lon="2.70161">
        <ele>841.77</ele>
        <time>2025-09-17T09:50:40Z</time>
      </trkpt>
      <trkpt lat="44.24777" lon="2.70172">
        <ele>840.81</ele>
        <time>2025-09-17T09:50:23Z</time>
      </trkpt>
      <trkpt lat="44.24804" lon="2.70182">
        <ele>841.77</ele>
        <time>2025-09-17T09:50:06Z</time>
      </trkpt>
      <trkpt lat="44.24828" lon="2.70195">
        <ele>842.25</ele>
        <time>2025-09-17T09:49:49Z</time>
      </trkpt>
      <trkpt lat="44.24846" lon="2.70207">
        <ele>842.73</ele>
        <time>2025-09-17T09:49:35Z</time>
      </trkpt>
      <trkpt lat="44.2486" lon="2.70219">
        <ele>842.73</ele>
        <time>2025-09-17T09:49:22Z</time>
      </trkpt>
      <trkpt lat="44.24868" lon="2.70224">
        <ele>842.73</ele>
        <time>2025-09-17T09:49:05Z</time>
      </trkpt>
      <trkpt lat="44.24868" lon="2.70225">
        <ele>844.18</ele>
        <time>2025-09-17T09:48:41Z</time>
      </trkpt>
      <trkpt lat="44.24868" lon="2.70226">
        <ele>844.18</ele>
        <time>2025-09-17T09:48:23Z</time>
      </trkpt>
      <trkpt lat="44.24867" lon="2.70228">
        <ele>842.73</ele>
        <time>2025-09-17T09:47:51Z</time>
      </trkpt>
      <trkpt lat="44.24867" lon="2.70227">
        <ele>842.73</ele>
        <time>2025-09-17T09:47:21Z</time>
      </trkpt>
      <trkpt lat="44.24884" lon="2.70243">
        <ele>841.29</ele>
        <time>2025-09-17T09:47:08Z</time>
      </trkpt>
      <trkpt lat="44.24886" lon="2.70244">
        <ele>841.29</ele>
        <time>2025-09-17T09:47:07Z</time>
      </trkpt>
      <trkpt lat="44.24887" lon="2.70245">
        <ele>841.77</ele>
        <time>2025-09-17T09:47:06Z</time>
      </trkpt>
      <trkpt lat="44.24887" lon="2.70246">
        <ele>841.77</ele>
        <time>2025-09-17T09:47:05Z</time>
      </trkpt>
      <trkpt lat="44.24888" lon="2.70247">
        <ele>841.77</ele>
        <time>2025-09-17T09:47:04Z</time>
      </trkpt>
      <trkpt lat="44.2489" lon="2.70249">
        <ele>841.77</ele>
        <time>2025-09-17T09:47:03Z</time>
      </trkpt>
      <trkpt lat="44.24903" lon="2.7026">
        <ele>841.77</ele>
        <time>2025-09-17T09:46:56Z</time>
      </trkpt>
      <trkpt lat="44.2492" lon="2.70276">
        <ele>839.85</ele>
        <time>2025-09-17T09:46:43Z</time>
      </trkpt>
      <trkpt lat="44.24939" lon="2.70292">
        <ele>838.89</ele>
        <time>2025-09-17T09:46:30Z</time>
      </trkpt>
      <trkpt lat="44.24957" lon="2.70305">
        <ele>837.45</ele>
        <time>2025-09-17T09:46:18Z</time>
      </trkpt>
      <trkpt lat="44.24975" lon="2.7032">
        <ele>836</ele>
        <time>2025-09-17T09:46:04Z</time>
      </trkpt>
      <trkpt lat="44.24994" lon="2.70335">
        <ele>836</ele>
        <time>2025-09-17T09:45:51Z</time>
      </trkpt>
      <trkpt lat="44.25016" lon="2.70352">
        <ele>836</ele>
        <time>2025-09-17T09:45:38Z</time>
      </trkpt>
      <trkpt lat="44.25038" lon="2.70368">
        <ele>836.48</ele>
        <time>2025-09-17T09:45:24Z</time>
      </trkpt>
      <trkpt lat="44.25058" lon="2.70389">
        <ele>836.96</ele>
        <time>2025-09-17T09:45:08Z</time>
      </trkpt>
      <trkpt lat="44.25075" lon="2.70405">
        <ele>836</ele>
        <time>2025-09-17T09:44:55Z</time>
      </trkpt>
      <trkpt lat="44.25097" lon="2.70425">
        <ele>835.52</ele>
        <time>2025-09-17T09:44:41Z</time>
      </trkpt>
      <trkpt lat="44.25117" lon="2.70443">
        <ele>835.52</ele>
        <time>2025-09-17T09:44:27Z</time>
      </trkpt>
      <trkpt lat="44.25138" lon="2.70463">
        <ele>835.52</ele>
        <time>2025-09-17T09:44:12Z</time>
      </trkpt>
      <trkpt lat="44.25154" lon="2.70478">
        <ele>835.04</ele>
        <time>2025-09-17T09:44:00Z</time>
      </trkpt>
      <trkpt lat="44.2517" lon="2.70497">
        <ele>835.04</ele>
        <time>2025-09-17T09:43:48Z</time>
      </trkpt>
      <trkpt lat="44.25188" lon="2.7051">
        <ele>833.12</ele>
        <time>2025-09-17T09:43:36Z</time>
      </trkpt>
      <trkpt lat="44.25206" lon="2.70524">
        <ele>830.24</ele>
        <time>2025-09-17T09:43:22Z</time>
      </trkpt>
      <trkpt lat="44.25208" lon="2.70526">
        <ele>830.24</ele>
        <time>2025-09-17T09:43:21Z</time>
      </trkpt>
      <trkpt lat="44.25209" lon="2.70527">
        <ele>830.24</ele>
        <time>2025-09-17T09:43:20Z</time>
      </trkpt>
      <trkpt lat="44.2521" lon="2.70528">
        <ele>830.24</ele>
        <time>2025-09-17T09:43:19Z</time>
      </trkpt>
      <trkpt lat="44.25212" lon="2.7053">
        <ele>830.24</ele>
        <time>2025-09-17T09:43:18Z</time>
      </trkpt>
      <trkpt lat="44.25213" lon="2.70531">
        <ele>830.24</ele>
        <time>2025-09-17T09:43:17Z</time>
      </trkpt>
      <trkpt lat="44.25214" lon="2.70533">
        <ele>830.24</ele>
        <time>2025-09-17T09:43:16Z</time>
      </trkpt>
      <trkpt lat="44.25216" lon="2.70534">
        <ele>830.24</ele>
        <time>2025-09-17T09:43:15Z</time>
      </trkpt>
      <trkpt lat="44.25223" lon="2.70539">
        <ele>829.27</ele>
        <time>2025-09-17T09:43:10Z</time>
      </trkpt>
      <trkpt lat="44.2524" lon="2.70555">
        <ele>828.79</ele>
        <time>2025-09-17T09:42:54Z</time>
      </trkpt>
      <trkpt lat="44.25241" lon="2.70556">
        <ele>828.79</ele>
        <time>2025-09-17T09:42:53Z</time>
      </trkpt>
      <trkpt lat="44.25242" lon="2.70558">
        <ele>828.79</ele>
        <time>2025-09-17T09:42:52Z</time>
      </trkpt>
      <trkpt lat="44.25243" lon="2.70559">
        <ele>828.79</ele>
        <time>2025-09-17T09:42:51Z</time>
      </trkpt>
      <trkpt lat="44.25244" lon="2.7056">
        <ele>828.79</ele>
        <time>2025-09-17T09:42:50Z</time>
      </trkpt>
      <trkpt lat="44.25245" lon="2.70562">
        <ele>828.79</ele>
        <time>2025-09-17T09:42:49Z</time>
      </trkpt>
      <trkpt lat="44.25246" lon="2.70562">
        <ele>829.27</ele>
        <time>2025-09-17T09:42:48Z</time>
      </trkpt>
      <trkpt lat="44.25247" lon="2.70563">
        <ele>829.27</ele>
        <time>2025-09-17T09:42:47Z</time>
      </trkpt>
      <trkpt lat="44.25248" lon="2.70564">
        <ele>829.27</ele>
        <time>2025-09-17T09:42:46Z</time>
      </trkpt>
      <trkpt lat="44.25249" lon="2.70565">
        <ele>829.76</ele>
        <time>2025-09-17T09:42:45Z</time>
      </trkpt>
      <trkpt lat="44.25251" lon="2.70566">
        <ele>829.76</ele>
        <time>2025-09-17T09:42:44Z</time>
      </trkpt>
      <trkpt lat="44.25252" lon="2.70567">
        <ele>829.76</ele>
        <time>2025-09-17T09:42:43Z</time>
      </trkpt>
      <trkpt lat="44.25257" lon="2.70572">
        <ele>830.24</ele>
        <time>2025-09-17T09:42:37Z</time>
      </trkpt>
      <trkpt lat="44.25268" lon="2.70594">
        <ele>830.24</ele>
        <time>2025-09-17T09:42:23Z</time>
      </trkpt>
      <trkpt lat="44.25277" lon="2.70613">
        <ele>831.2</ele>
        <time>2025-09-17T09:42:11Z</time>
      </trkpt>
      <trkpt lat="44.25292" lon="2.70639">
        <ele>831.68</ele>
        <time>2025-09-17T09:41:56Z</time>
      </trkpt>
      <trkpt lat="44.25309" lon="2.70663">
        <ele>831.68</ele>
        <time>2025-09-17T09:41:38Z</time>
      </trkpt>
      <trkpt lat="44.25323" lon="2.7068">
        <ele>829.76</ele>
        <time>2025-09-17T09:41:24Z</time>
      </trkpt>
      <trkpt lat="44.25335" lon="2.70699">
        <ele>828.79</ele>
        <time>2025-09-17T09:41:11Z</time>
      </trkpt>
      <trkpt lat="44.25349" lon="2.7072">
        <ele>828.79</ele>
        <time>2025-09-17T09:40:58Z</time>
      </trkpt>
      <trkpt lat="44.2536" lon="2.70735">
        <ele>829.76</ele>
        <time>2025-09-17T09:40:46Z</time>
      </trkpt>
      <trkpt lat="44.25375" lon="2.7076">
        <ele>831.68</ele>
        <time>2025-09-17T09:40:32Z</time>
      </trkpt>
      <trkpt lat="44.25389" lon="2.70784">
        <ele>829.27</ele>
        <time>2025-09-17T09:40:17Z</time>
      </trkpt>
      <trkpt lat="44.2539" lon="2.70785">
        <ele>828.79</ele>
        <time>2025-09-17T09:40:16Z</time>
      </trkpt>
      <trkpt lat="44.25391" lon="2.70787">
        <ele>828.79</ele>
        <time>2025-09-17T09:40:15Z</time>
      </trkpt>
      <trkpt lat="44.25393" lon="2.70789">
        <ele>828.31</ele>
        <time>2025-09-17T09:40:14Z</time>
      </trkpt>
      <trkpt lat="44.25394" lon="2.70791">
        <ele>828.31</ele>
        <time>2025-09-17T09:40:13Z</time>
      </trkpt>
      <trkpt lat="44.25394" lon="2.70792">
        <ele>827.83</ele>
        <time>2025-09-17T09:40:12Z</time>
      </trkpt>
      <trkpt lat="44.25395" lon="2.70794">
        <ele>827.35</ele>
        <time>2025-09-17T09:40:11Z</time>
      </trkpt>
      <trkpt lat="44.25396" lon="2.70795">
        <ele>827.35</ele>
        <time>2025-09-17T09:40:10Z</time>
      </trkpt>
      <trkpt lat="44.25397" lon="2.70797">
        <ele>826.87</ele>
        <time>2025-09-17T09:40:09Z</time>
      </trkpt>
      <trkpt lat="44.25398" lon="2.70799">
        <ele>826.39</ele>
        <time>2025-09-17T09:40:08Z</time>
      </trkpt>
      <trkpt lat="44.25399" lon="2.708">
        <ele>826.39</ele>
        <time>2025-09-17T09:40:07Z</time>
      </trkpt>
      <trkpt lat="44.25409" lon="2.70819">
        <ele>825.43</ele>
        <time>2025-09-17T09:39:54Z</time>
      </trkpt>
      <trkpt lat="44.25421" lon="2.70843">
        <ele>824.47</ele>
        <time>2025-09-17T09:39:41Z</time>
      </trkpt>
      <trkpt lat="44.25439" lon="2.70872">
        <ele>824.47</ele>
        <time>2025-09-17T09:39:23Z</time>
      </trkpt>
      <trkpt lat="44.25454" lon="2.70898">
        <ele>825.43</ele>
        <time>2025-09-17T09:39:07Z</time>
      </trkpt>
      <trkpt lat="44.25468" lon="2.70928">
        <ele>827.35</ele>
        <time>2025-09-17T09:38:50Z</time>
      </trkpt>
      <trkpt lat="44.25469" lon="2.70929">
        <ele>827.83</ele>
        <time>2025-09-17T09:38:49Z</time>
      </trkpt>
      <trkpt lat="44.2547" lon="2.70931">
        <ele>827.83</ele>
        <time>2025-09-17T09:38:48Z</time>
      </trkpt>
      <trkpt lat="44.25472" lon="2.70935">
        <ele>828.31</ele>
        <time>2025-09-17T09:38:45Z</time>
      </trkpt>
      <trkpt lat="44.25472" lon="2.70937">
        <ele>828.31</ele>
        <time>2025-09-17T09:38:44Z</time>
      </trkpt>
      <trkpt lat="44.25472" lon="2.70939">
        <ele>828.31</ele>
        <time>2025-09-17T09:38:43Z</time>
      </trkpt>
      <trkpt lat="44.25476" lon="2.70946">
        <ele>828.79</ele>
        <time>2025-09-17T09:38:37Z</time>
      </trkpt>
      <trkpt lat="44.25488" lon="2.70974">
        <ele>827.83</ele>
        <time>2025-09-17T09:38:20Z</time>
      </trkpt>
      <trkpt lat="44.25489" lon="2.70976">
        <ele>827.83</ele>
        <time>2025-09-17T09:38:19Z</time>
      </trkpt>
      <trkpt lat="44.2549" lon="2.7098">
        <ele>828.31</ele>
        <time>2025-09-17T09:38:17Z</time>
      </trkpt>
      <trkpt lat="44.25502" lon="2.71013">
        <ele>829.27</ele>
        <time>2025-09-17T09:38:00Z</time>
      </trkpt>
      <trkpt lat="44.2551" lon="2.71046">
        <ele>830.24</ele>
        <time>2025-09-17T09:37:44Z</time>
      </trkpt>
      <trkpt lat="44.25519" lon="2.71072">
        <ele>829.27</ele>
        <time>2025-09-17T09:37:28Z</time>
      </trkpt>
      <trkpt lat="44.25529" lon="2.71096">
        <ele>826.87</ele>
        <time>2025-09-17T09:37:12Z</time>
      </trkpt>
      <trkpt lat="44.25536" lon="2.71125">
        <ele>825.43</ele>
        <time>2025-09-17T09:36:57Z</time>
      </trkpt>
      <trkpt lat="44.25535" lon="2.71152">
        <ele>823.99</ele>
        <time>2025-09-17T09:36:42Z</time>
      </trkpt>
      <trkpt lat="44.25535" lon="2.71188">
        <ele>821.1</ele>
        <time>2025-09-17T09:36:23Z</time>
      </trkpt>
      <trkpt lat="44.25544" lon="2.71224">
        <ele>820.62</ele>
        <time>2025-09-17T09:36:04Z</time>
      </trkpt>
      <trkpt lat="44.2555" lon="2.71249">
        <ele>819.66</ele>
        <time>2025-09-17T09:35:50Z</time>
      </trkpt>
      <trkpt lat="44.25559" lon="2.71273">
        <ele>817.26</ele>
        <time>2025-09-17T09:35:34Z</time>
      </trkpt>
      <trkpt lat="44.25567" lon="2.713">
        <ele>814.37</ele>
        <time>2025-09-17T09:35:18Z</time>
      </trkpt>
      <trkpt lat="44.25579" lon="2.71332">
        <ele>811.49</ele>
        <time>2025-09-17T09:35:01Z</time>
      </trkpt>
      <trkpt lat="44.25588" lon="2.71359">
        <ele>811.49</ele>
        <time>2025-09-17T09:34:46Z</time>
      </trkpt>
      <trkpt lat="44.256" lon="2.7139">
        <ele>809.09</ele>
        <time>2025-09-17T09:34:29Z</time>
      </trkpt>
      <trkpt lat="44.25609" lon="2.71419">
        <ele>808.61</ele>
        <time>2025-09-17T09:34:13Z</time>
      </trkpt>
      <trkpt lat="44.2562" lon="2.7145">
        <ele>807.16</ele>
        <time>2025-09-17T09:33:57Z</time>
      </trkpt>
      <trkpt lat="44.25631" lon="2.7148">
        <ele>806.2</ele>
        <time>2025-09-17T09:33:41Z</time>
      </trkpt>
      <trkpt lat="44.25644" lon="2.71512">
        <ele>805.72</ele>
        <time>2025-09-17T09:33:21Z</time>
      </trkpt>
      <trkpt lat="44.25657" lon="2.71547">
        <ele>804.28</ele>
        <time>2025-09-17T09:33:03Z</time>
      </trkpt>
      <trkpt lat="44.25671" lon="2.71582">
        <ele>801.4</ele>
        <time>2025-09-17T09:32:43Z</time>
      </trkpt>
      <trkpt lat="44.25673" lon="2.7159">
        <ele>800.92</ele>
        <time>2025-09-17T09:32:38Z</time>
      </trkpt>
      <trkpt lat="44.25671" lon="2.71605">
        <ele>800.44</ele>
        <time>2025-09-17T09:32:28Z</time>
      </trkpt>
      <trkpt lat="44.25664" lon="2.71634">
        <ele>799.47</ele>
        <time>2025-09-17T09:32:10Z</time>
      </trkpt>
      <trkpt lat="44.25647" lon="2.71657">
        <ele>794.67</ele>
        <time>2025-09-17T09:31:53Z</time>
      </trkpt>
      <trkpt lat="44.25645" lon="2.71659">
        <ele>794.67</ele>
        <time>2025-09-17T09:31:52Z</time>
      </trkpt>
      <trkpt lat="44.25644" lon="2.7166">
        <ele>794.67</ele>
        <time>2025-09-17T09:31:51Z</time>
      </trkpt>
      <trkpt lat="44.25631" lon="2.71671">
        <ele>795.63</ele>
        <time>2025-09-17T09:31:41Z</time>
      </trkpt>
      <trkpt lat="44.2561" lon="2.71684">
        <ele>794.19</ele>
        <time>2025-09-17T09:31:23Z</time>
      </trkpt>
      <trkpt lat="44.25596" lon="2.71691">
        <ele>794.19</ele>
        <time>2025-09-17T09:31:10Z</time>
      </trkpt>
      <trkpt lat="44.2558" lon="2.71718">
        <ele>792.74</ele>
        <time>2025-09-17T09:30:53Z</time>
      </trkpt>
      <trkpt lat="44.25562" lon="2.71748">
        <ele>790.82</ele>
        <time>2025-09-17T09:30:35Z</time>
      </trkpt>
      <trkpt lat="44.25536" lon="2.71777">
        <ele>791.3</ele>
        <time>2025-09-17T09:30:14Z</time>
      </trkpt>
      <trkpt lat="44.25513" lon="2.71804">
        <ele>789.38</ele>
        <time>2025-09-17T09:29:54Z</time>
      </trkpt>
      <trkpt lat="44.25496" lon="2.71826">
        <ele>788.9</ele>
        <time>2025-09-17T09:29:36Z</time>
      </trkpt>
      <trkpt lat="44.25477" lon="2.7185">
        <ele>789.86</ele>
        <time>2025-09-17T09:29:19Z</time>
      </trkpt>
      <trkpt lat="44.25464" lon="2.71882">
        <ele>789.86</ele>
        <time>2025-09-17T09:29:00Z</time>
      </trkpt>
      <trkpt lat="44.25458" lon="2.71906">
        <ele>789.86</ele>
        <time>2025-09-17T09:28:44Z</time>
      </trkpt>
      <trkpt lat="44.2545" lon="2.71938">
        <ele>786.98</ele>
        <time>2025-09-17T09:28:28Z</time>
      </trkpt>
      <trkpt lat="44.25448" lon="2.71961">
        <ele>785.05</ele>
        <time>2025-09-17T09:28:17Z</time>
      </trkpt>
      <trkpt lat="44.25446" lon="2.71994">
        <ele>782.17</ele>
        <time>2025-09-17T09:28:00Z</time>
      </trkpt>
      <trkpt lat="44.25442" lon="2.72018">
        <ele>779.29</ele>
        <time>2025-09-17T09:27:46Z</time>
      </trkpt>
      <trkpt lat="44.2544" lon="2.72048">
        <ele>778.32</ele>
        <time>2025-09-17T09:27:28Z</time>
      </trkpt>
      <trkpt lat="44.25433" lon="2.72074">
        <ele>777.36</ele>
        <time>2025-09-17T09:27:12Z</time>
      </trkpt>
      <trkpt lat="44.25424" lon="2.72104">
        <ele>774.96</ele>
        <time>2025-09-17T09:26:53Z</time>
      </trkpt>
      <trkpt lat="44.25432" lon="2.72125">
        <ele>774</ele>
        <time>2025-09-17T09:26:39Z</time>
      </trkpt>
      <trkpt lat="44.25432" lon="2.72147">
        <ele>772.08</ele>
        <time>2025-09-17T09:26:24Z</time>
      </trkpt>
      <trkpt lat="44.25436" lon="2.72152">
        <ele>771.6</ele>
        <time>2025-09-17T09:26:20Z</time>
      </trkpt>
      <trkpt lat="44.25451" lon="2.72156">
        <ele>770.15</ele>
        <time>2025-09-17T09:26:08Z</time>
      </trkpt>
      <trkpt lat="44.25458" lon="2.72155">
        <ele>764.87</ele>
        <time>2025-09-17T09:25:59Z</time>
      </trkpt>
      <trkpt lat="44.25463" lon="2.72176">
        <ele>760.54</ele>
        <time>2025-09-17T09:25:42Z</time>
      </trkpt>
      <trkpt lat="44.25457" lon="2.72203">
        <ele>759.58</ele>
        <time>2025-09-17T09:25:22Z</time>
      </trkpt>
      <trkpt lat="44.25448" lon="2.72227">
        <ele>758.62</ele>
        <time>2025-09-17T09:25:04Z</time>
      </trkpt>
      <trkpt lat="44.25444" lon="2.72259">
        <ele>756.69</ele>
        <time>2025-09-17T09:24:44Z</time>
      </trkpt>
      <trkpt lat="44.2545" lon="2.72293">
        <ele>754.29</ele>
        <time>2025-09-17T09:24:24Z</time>
      </trkpt>
      <trkpt lat="44.25457" lon="2.72329">
        <ele>753.33</ele>
        <time>2025-09-17T09:24:05Z</time>
      </trkpt>
      <trkpt lat="44.25467" lon="2.72362">
        <ele>749.97</ele>
        <time>2025-09-17T09:23:43Z</time>
      </trkpt>
      <trkpt lat="44.25475" lon="2.72387">
        <ele>745.64</ele>
        <time>2025-09-17T09:23:27Z</time>
      </trkpt>
      <trkpt lat="44.25482" lon="2.72426">
        <ele>741.31</ele>
        <time>2025-09-17T09:23:06Z</time>
      </trkpt>
      <trkpt lat="44.25485" lon="2.72461">
        <ele>737.95</ele>
        <time>2025-09-17T09:22:45Z</time>
      </trkpt>
      <trkpt lat="44.25466" lon="2.72485">
        <ele>729.3</ele>
        <time>2025-09-17T09:22:23Z</time>
      </trkpt>
      <trkpt lat="44.25445" lon="2.72501">
        <ele>723.53</ele>
        <time>2025-09-17T09:22:03Z</time>
      </trkpt>
      <trkpt lat="44.25439" lon="2.72508">
        <ele>722.57</ele>
        <time>2025-09-17T09:21:58Z</time>
      </trkpt>
      <trkpt lat="44.25438" lon="2.72509">
        <ele>722.57</ele>
        <time>2025-09-17T09:21:57Z</time>
      </trkpt>
      <trkpt lat="44.25437" lon="2.72511">
        <ele>722.57</ele>
        <time>2025-09-17T09:21:56Z</time>
      </trkpt>
      <trkpt lat="44.25436" lon="2.72514">
        <ele>722.57</ele>
        <time>2025-09-17T09:21:54Z</time>
      </trkpt>
      <trkpt lat="44.25452" lon="2.72541">
        <ele>723.53</ele>
        <time>2025-09-17T09:21:35Z</time>
      </trkpt>
      <trkpt lat="44.25458" lon="2.72553">
        <ele>722.57</ele>
        <time>2025-09-17T09:21:28Z</time>
      </trkpt>
      <trkpt lat="44.2546" lon="2.72576">
        <ele>721.61</ele>
        <time>2025-09-17T09:21:10Z</time>
      </trkpt>
      <trkpt lat="44.25459" lon="2.72577">
        <ele>721.13</ele>
        <time>2025-09-17T09:21:09Z</time>
      </trkpt>
      <trkpt lat="44.25458" lon="2.72579">
        <ele>720.16</ele>
        <time>2025-09-17T09:21:08Z</time>
      </trkpt>
      <trkpt lat="44.25451" lon="2.72586">
        <ele>716.8</ele>
        <time>2025-09-17T09:21:01Z</time>
      </trkpt>
      <trkpt lat="44.25428" lon="2.72578">
        <ele>711.99</ele>
        <time>2025-09-17T09:20:44Z</time>
      </trkpt>
      <trkpt lat="44.25427" lon="2.72576">
        <ele>712.47</ele>
        <time>2025-09-17T09:20:43Z</time>
      </trkpt>
      <trkpt lat="44.25425" lon="2.72575">
        <ele>712.47</ele>
        <time>2025-09-17T09:20:42Z</time>
      </trkpt>
      <trkpt lat="44.25424" lon="2.72574">
        <ele>711.99</ele>
        <time>2025-09-17T09:20:41Z</time>
      </trkpt>
      <trkpt lat="44.25422" lon="2.72574">
        <ele>711.51</ele>
        <time>2025-09-17T09:20:40Z</time>
      </trkpt>
      <trkpt lat="44.2542" lon="2.72575">
        <ele>711.51</ele>
        <time>2025-09-17T09:20:39Z</time>
      </trkpt>
      <trkpt lat="44.25417" lon="2.72575">
        <ele>711.03</ele>
        <time>2025-09-17T09:20:37Z</time>
      </trkpt>
      <trkpt lat="44.25404" lon="2.72592">
        <ele>715.84</ele>
        <time>2025-09-17T09:20:20Z</time>
      </trkpt>
      <trkpt lat="44.25403" lon="2.72594">
        <ele>715.84</ele>
        <time>2025-09-17T09:20:19Z</time>
      </trkpt>
      <trkpt lat="44.25402" lon="2.72597">
        <ele>716.8</ele>
        <time>2025-09-17T09:20:17Z</time>
      </trkpt>
      <trkpt lat="44.25413" lon="2.72615">
        <ele>717.28</ele>
        <time>2025-09-17T09:20:02Z</time>
      </trkpt>
      <trkpt lat="44.25415" lon="2.72619">
        <ele>716.32</ele>
        <time>2025-09-17T09:20:00Z</time>
      </trkpt>
      <trkpt lat="44.25428" lon="2.7266">
        <ele>711.99</ele>
        <time>2025-09-17T09:19:43Z</time>
      </trkpt>
      <trkpt lat="44.25429" lon="2.72662">
        <ele>712.47</ele>
        <time>2025-09-17T09:19:42Z</time>
      </trkpt>
      <trkpt lat="44.25447" lon="2.72683">
        <ele>716.8</ele>
        <time>2025-09-17T09:19:25Z</time>
      </trkpt>
      <trkpt lat="44.25459" lon="2.72704">
        <ele>718.24</ele>
        <time>2025-09-17T09:19:09Z</time>
      </trkpt>
      <trkpt lat="44.25459" lon="2.72705">
        <ele>718.24</ele>
        <time>2025-09-17T09:19:08Z</time>
      </trkpt>
      <trkpt lat="44.25466" lon="2.72718">
        <ele>718.24</ele>
        <time>2025-09-17T09:18:58Z</time>
      </trkpt>
      <trkpt lat="44.25477" lon="2.72737">
        <ele>716.8</ele>
        <time>2025-09-17T09:18:45Z</time>
      </trkpt>
      <trkpt lat="44.25478" lon="2.72739">
        <ele>716.8</ele>
        <time>2025-09-17T09:18:44Z</time>
      </trkpt>
      <trkpt lat="44.25479" lon="2.72741">
        <ele>716.8</ele>
        <time>2025-09-17T09:18:43Z</time>
      </trkpt>
      <trkpt lat="44.2548" lon="2.72742">
        <ele>717.28</ele>
        <time>2025-09-17T09:18:42Z</time>
      </trkpt>
      <trkpt lat="44.25482" lon="2.72744">
        <ele>716.8</ele>
        <time>2025-09-17T09:18:41Z</time>
      </trkpt>
      <trkpt lat="44.25483" lon="2.72746">
        <ele>716.8</ele>
        <time>2025-09-17T09:18:40Z</time>
      </trkpt>
      <trkpt lat="44.25498" lon="2.72749">
        <ele>717.76</ele>
        <time>2025-09-17T09:18:29Z</time>
      </trkpt>
      <trkpt lat="44.25522" lon="2.72746">
        <ele>716.8</ele>
        <time>2025-09-17T09:18:16Z</time>
      </trkpt>
      <trkpt lat="44.25546" lon="2.72744">
        <ele>715.36</ele>
        <time>2025-09-17T09:18:00Z</time>
      </trkpt>
      <trkpt lat="44.25572" lon="2.72746">
        <ele>713.44</ele>
        <time>2025-09-17T09:17:43Z</time>
      </trkpt>
      <trkpt lat="44.25587" lon="2.72768">
        <ele>716.32</ele>
        <time>2025-09-17T09:17:27Z</time>
      </trkpt>
      <trkpt lat="44.25605" lon="2.72801">
        <ele>719.2</ele>
        <time>2025-09-17T09:17:08Z</time>
      </trkpt>
      <trkpt lat="44.2562" lon="2.72827">
        <ele>724.01</ele>
        <time>2025-09-17T09:16:49Z</time>
      </trkpt>
      <trkpt lat="44.25633" lon="2.72856">
        <ele>726.89</ele>
        <time>2025-09-17T09:16:33Z</time>
      </trkpt>
      <trkpt lat="44.25653" lon="2.72881">
        <ele>729.3</ele>
        <time>2025-09-17T09:16:15Z</time>
      </trkpt>
      <trkpt lat="44.25679" lon="2.72899">
        <ele>731.22</ele>
        <time>2025-09-17T09:15:57Z</time>
      </trkpt>
      <trkpt lat="44.2571" lon="2.72923">
        <ele>732.18</ele>
        <time>2025-09-17T09:15:35Z</time>
      </trkpt>
      <trkpt lat="44.25731" lon="2.7295">
        <ele>736.51</ele>
        <time>2025-09-17T09:15:14Z</time>
      </trkpt>
      <trkpt lat="44.25747" lon="2.72975">
        <ele>738.43</ele>
        <time>2025-09-17T09:14:56Z</time>
      </trkpt>
      <trkpt lat="44.25768" lon="2.73001">
        <ele>740.83</ele>
        <time>2025-09-17T09:14:38Z</time>
      </trkpt>
      <trkpt lat="44.25784" lon="2.73017">
        <ele>741.31</ele>
        <time>2025-09-17T09:14:25Z</time>
      </trkpt>
      <trkpt lat="44.25807" lon="2.73046">
        <ele>743.72</ele>
        <time>2025-09-17T09:14:04Z</time>
      </trkpt>
      <trkpt lat="44.25823" lon="2.73074">
        <ele>742.28</ele>
        <time>2025-09-17T09:13:44Z</time>
      </trkpt>
      <trkpt lat="44.25824" lon="2.7308">
        <ele>741.79</ele>
        <time>2025-09-17T09:13:41Z</time>
      </trkpt>
      <trkpt lat="44.25824" lon="2.73082">
        <ele>741.79</ele>
        <time>2025-09-17T09:13:40Z</time>
      </trkpt>
      <trkpt lat="44.25821" lon="2.73103">
        <ele>739.39</ele>
        <time>2025-09-17T09:13:28Z</time>
      </trkpt>
      <trkpt lat="44.2582" lon="2.73104">
        <ele>739.39</ele>
        <time>2025-09-17T09:13:27Z</time>
      </trkpt>
      <trkpt lat="44.25819" lon="2.73106">
        <ele>738.91</ele>
        <time>2025-09-17T09:13:26Z</time>
      </trkpt>
      <trkpt lat="44.25818" lon="2.73107">
        <ele>738.43</ele>
        <time>2025-09-17T09:13:25Z</time>
      </trkpt>
      <trkpt lat="44.25816" lon="2.73108">
        <ele>737.95</ele>
        <time>2025-09-17T09:13:24Z</time>
      </trkpt>
      <trkpt lat="44.25815" lon="2.73109">
        <ele>737.47</ele>
        <time>2025-09-17T09:13:23Z</time>
      </trkpt>
      <trkpt lat="44.25814" lon="2.7311">
        <ele>737.47</ele>
        <time>2025-09-17T09:13:22Z</time>
      </trkpt>
      <trkpt lat="44.25798" lon="2.73134">
        <ele>733.62</ele>
        <time>2025-09-17T09:13:09Z</time>
      </trkpt>
      <trkpt lat="44.25795" lon="2.7314">
        <ele>732.66</ele>
        <time>2025-09-17T09:13:05Z</time>
      </trkpt>
      <trkpt lat="44.25781" lon="2.73161">
        <ele>727.37</ele>
        <time>2025-09-17T09:12:49Z</time>
      </trkpt>
      <trkpt lat="44.25779" lon="2.73166">
        <ele>727.86</ele>
        <time>2025-09-17T09:12:46Z</time>
      </trkpt>
      <trkpt lat="44.2577" lon="2.73197">
        <ele>718.24</ele>
        <time>2025-09-17T09:12:30Z</time>
      </trkpt>
      <trkpt lat="44.2576" lon="2.73233">
        <ele>715.84</ele>
        <time>2025-09-17T09:12:13Z</time>
      </trkpt>
      <trkpt lat="44.25757" lon="2.73243">
        <ele>717.28</ele>
        <time>2025-09-17T09:12:07Z</time>
      </trkpt>
      <trkpt lat="44.25767" lon="2.73259">
        <ele>718.24</ele>
        <time>2025-09-17T09:11:54Z</time>
      </trkpt>
      <trkpt lat="44.25785" lon="2.73256">
        <ele>718.24</ele>
        <time>2025-09-17T09:11:41Z</time>
      </trkpt>
      <trkpt lat="44.25818" lon="2.73238">
        <ele>715.84</ele>
        <time>2025-09-17T09:11:20Z</time>
      </trkpt>
      <trkpt lat="44.25842" lon="2.73218">
        <ele>712.95</ele>
        <time>2025-09-17T09:11:00Z</time>
      </trkpt>
      <trkpt lat="44.25867" lon="2.73197">
        <ele>710.55</ele>
        <time>2025-09-17T09:10:43Z</time>
      </trkpt>
      <trkpt lat="44.25885" lon="2.73184">
        <ele>709.59</ele>
        <time>2025-09-17T09:10:30Z</time>
      </trkpt>
      <trkpt lat="44.25908" lon="2.73176">
        <ele>706.71</ele>
        <time>2025-09-17T09:10:13Z</time>
      </trkpt>
      <trkpt lat="44.25932" lon="2.73176">
        <ele>709.11</ele>
        <time>2025-09-17T09:09:53Z</time>
      </trkpt>
      <trkpt lat="44.25971" lon="2.73178">
        <ele>708.15</ele>
        <time>2025-09-17T09:09:32Z</time>
      </trkpt>
      <trkpt lat="44.25996" lon="2.73184">
        <ele>714.4</ele>
        <time>2025-09-17T09:09:11Z</time>
      </trkpt>
      <trkpt lat="44.26019" lon="2.732">
        <ele>715.84</ele>
        <time>2025-09-17T09:08:53Z</time>
      </trkpt>
      <trkpt lat="44.26035" lon="2.73214">
        <ele>715.36</ele>
        <time>2025-09-17T09:08:36Z</time>
      </trkpt>
      <trkpt lat="44.26037" lon="2.73217">
        <ele>714.88</ele>
        <time>2025-09-17T09:08:35Z</time>
      </trkpt>
      <trkpt lat="44.26045" lon="2.73228">
        <ele>718.72</ele>
        <time>2025-09-17T09:08:25Z</time>
      </trkpt>
      <trkpt lat="44.26074" lon="2.73245">
        <ele>722.57</ele>
        <time>2025-09-17T09:08:07Z</time>
      </trkpt>
      <trkpt lat="44.26099" lon="2.73239">
        <ele>726.89</ele>
        <time>2025-09-17T09:07:50Z</time>
      </trkpt>
      <trkpt lat="44.26118" lon="2.73249">
        <ele>734.58</ele>
        <time>2025-09-17T09:07:34Z</time>
      </trkpt>
      <trkpt lat="44.2613" lon="2.73261">
        <ele>739.87</ele>
        <time>2025-09-17T09:07:16Z</time>
      </trkpt>
      <trkpt lat="44.26157" lon="2.73268">
        <ele>742.76</ele>
        <time>2025-09-17T09:06:56Z</time>
      </trkpt>
      <trkpt lat="44.26179" lon="2.73264">
        <ele>744.68</ele>
        <time>2025-09-17T09:06:39Z</time>
      </trkpt>
      <trkpt lat="44.26198" lon="2.73283">
        <ele>747.08</ele>
        <time>2025-09-17T09:06:21Z</time>
      </trkpt>
      <trkpt lat="44.26199" lon="2.73285">
        <ele>747.56</ele>
        <time>2025-09-17T09:06:20Z</time>
      </trkpt>
      <trkpt lat="44.26201" lon="2.73286">
        <ele>747.56</ele>
        <time>2025-09-17T09:06:19Z</time>
      </trkpt>
      <trkpt lat="44.26202" lon="2.73287">
        <ele>748.04</ele>
        <time>2025-09-17T09:06:18Z</time>
      </trkpt>
      <trkpt lat="44.26203" lon="2.73289">
        <ele>748.04</ele>
        <time>2025-09-17T09:06:17Z</time>
      </trkpt>
      <trkpt lat="44.26205" lon="2.73291">
        <ele>748.52</ele>
        <time>2025-09-17T09:06:15Z</time>
      </trkpt>
      <trkpt lat="44.26221" lon="2.73309">
        <ele>749.97</ele>
        <time>2025-09-17T09:06:00Z</time>
      </trkpt>
      <trkpt lat="44.26234" lon="2.7333">
        <ele>752.85</ele>
        <time>2025-09-17T09:05:45Z</time>
      </trkpt>
      <trkpt lat="44.26242" lon="2.73358">
        <ele>752.85</ele>
        <time>2025-09-17T09:05:29Z</time>
      </trkpt>
      <trkpt lat="44.26242" lon="2.7336">
        <ele>752.85</ele>
        <time>2025-09-17T09:05:28Z</time>
      </trkpt>
      <trkpt lat="44.26243" lon="2.73362">
        <ele>752.85</ele>
        <time>2025-09-17T09:05:27Z</time>
      </trkpt>
      <trkpt lat="44.26243" lon="2.73363">
        <ele>752.85</ele>
        <time>2025-09-17T09:05:26Z</time>
      </trkpt>
      <trkpt lat="44.26243" lon="2.73366">
        <ele>753.33</ele>
        <time>2025-09-17T09:05:25Z</time>
      </trkpt>
      <trkpt lat="44.26244" lon="2.73368">
        <ele>753.33</ele>
        <time>2025-09-17T09:05:24Z</time>
      </trkpt>
      <trkpt lat="44.26244" lon="2.7337">
        <ele>753.81</ele>
        <time>2025-09-17T09:05:23Z</time>
      </trkpt>
      <trkpt lat="44.26248" lon="2.73381">
        <ele>755.73</ele>
        <time>2025-09-17T09:05:12Z</time>
      </trkpt>
      <trkpt lat="44.26253" lon="2.73389">
        <ele>755.25</ele>
        <time>2025-09-17T09:05:00Z</time>
      </trkpt>
      <trkpt lat="44.26254" lon="2.73389">
        <ele>755.25</ele>
        <time>2025-09-17T09:04:59Z</time>
      </trkpt>
      <trkpt lat="44.26263" lon="2.73387">
        <ele>754.77</ele>
        <time>2025-09-17T09:04:53Z</time>
      </trkpt>
      <trkpt lat="44.26288" lon="2.73392">
        <ele>757.66</ele>
        <time>2025-09-17T09:04:38Z</time>
      </trkpt>
      <trkpt lat="44.26313" lon="2.73398">
        <ele>759.58</ele>
        <time>2025-09-17T09:04:23Z</time>
      </trkpt>
      <trkpt lat="44.26335" lon="2.73406">
        <ele>761.02</ele>
        <time>2025-09-17T09:04:10Z</time>
      </trkpt>
      <trkpt lat="44.26357" lon="2.73421">
        <ele>763.9</ele>
        <time>2025-09-17T09:03:55Z</time>
      </trkpt>
      <trkpt lat="44.26376" lon="2.73442">
        <ele>764.87</ele>
        <time>2025-09-17T09:03:39Z</time>
      </trkpt>
      <trkpt lat="44.26394" lon="2.73462">
        <ele>760.06</ele>
        <time>2025-09-17T09:03:24Z</time>
      </trkpt>
      <trkpt lat="44.26425" lon="2.73477">
        <ele>750.45</ele>
        <time>2025-09-17T09:03:08Z</time>
      </trkpt>
      <trkpt lat="44.26453" lon="2.73487">
        <ele>748.04</ele>
        <time>2025-09-17T09:02:52Z</time>
      </trkpt>
      <trkpt lat="44.26483" lon="2.73495">
        <ele>746.12</ele>
        <time>2025-09-17T09:02:35Z</time>
      </trkpt>
      <trkpt lat="44.2651" lon="2.735">
        <ele>745.16</ele>
        <time>2025-09-17T09:02:18Z</time>
      </trkpt>
      <trkpt lat="44.26537" lon="2.73497">
        <ele>744.68</ele>
        <time>2025-09-17T09:02:02Z</time>
      </trkpt>
      <trkpt lat="44.26572" lon="2.73497">
        <ele>741.31</ele>
        <time>2025-09-17T09:01:43Z</time>
      </trkpt>
      <trkpt lat="44.26605" lon="2.73488">
        <ele>735.55</ele>
        <time>2025-09-17T09:01:24Z</time>
      </trkpt>
      <trkpt lat="44.26634" lon="2.73484">
        <ele>733.14</ele>
        <time>2025-09-17T09:01:06Z</time>
      </trkpt>
      <trkpt lat="44.2666" lon="2.73478">
        <ele>732.18</ele>
        <time>2025-09-17T09:00:47Z</time>
      </trkpt>
      <trkpt lat="44.26662" lon="2.73477">
        <ele>731.7</ele>
        <time>2025-09-17T09:00:46Z</time>
      </trkpt>
      <trkpt lat="44.26672" lon="2.73476">
        <ele>730.74</ele>
        <time>2025-09-17T09:00:37Z</time>
      </trkpt>
      <trkpt lat="44.26689" lon="2.7347">
        <ele>730.26</ele>
        <time>2025-09-17T09:00:28Z</time>
      </trkpt>
      <trkpt lat="44.26703" lon="2.73461">
        <ele>729.3</ele>
        <time>2025-09-17T09:00:17Z</time>
      </trkpt>
      <trkpt lat="44.26711" lon="2.73448">
        <ele>727.86</ele>
        <time>2025-09-17T09:00:01Z</time>
      </trkpt>
      <trkpt lat="44.26724" lon="2.73415">
        <ele>726.89</ele>
        <time>2025-09-17T08:59:41Z</time>
      </trkpt>
      <trkpt lat="44.26738" lon="2.73382">
        <ele>726.41</ele>
        <time>2025-09-17T08:59:19Z</time>
      </trkpt>
      <trkpt lat="44.2675" lon="2.73344">
        <ele>724.49</ele>
        <time>2025-09-17T08:58:57Z</time>
      </trkpt>
      <trkpt lat="44.26764" lon="2.73313">
        <ele>722.09</ele>
        <time>2025-09-17T08:58:41Z</time>
        <extensions>
          <visugpx:TrkExtension xmlns:visugpx="https://www.visugpx.com/editgpx/">
            <visugpx:node>6</visugpx:node>
            </visugpx:TrkExtension>
        </extensions>
      </trkpt>
      <trkpt lat="44.26767" lon="2.73305">
        <ele>717.4</ele>
        <extensions>
          <visugpx:TrkExtension xmlns:visugpx="https://www.visugpx.com/editgpx/">
            <visugpx:node>5</visugpx:node>
            </visugpx:TrkExtension>
        </extensions>
      </trkpt>
      <trkpt lat="44.26774" lon="2.73286">
        <ele>717</ele>
      </trkpt>
      <trkpt lat="44.26778" lon="2.73277">
        <ele>717</ele>
      </trkpt>
      <trkpt lat="44.26779" lon="2.73275">
        <ele>717</ele>
      </trkpt>
      <trkpt lat="44.26781" lon="2.7327">
        <ele>716.9</ele>
      </trkpt>
      <trkpt lat="44.26783" lon="2.73265">
        <ele>716.9</ele>
      </trkpt>
      <trkpt lat="44.26786" lon="2.73255">
        <ele>717</ele>
      </trkpt>
      <trkpt lat="44.26787" lon="2.73251">
        <ele>717</ele>
      </trkpt>
      <trkpt lat="44.26789" lon="2.73244">
        <ele>717.5</ele>
      </trkpt>
      <trkpt lat="44.26791" lon="2.73235">
        <ele>718.2</ele>
      </trkpt>
      <trkpt lat="44.26792" lon="2.73232">
        <ele>717.28</ele>
        <time>2025-09-17T08:41:25Z</time>
        <extensions>
          <visugpx:TrkExtension xmlns:visugpx="https://www.visugpx.com/editgpx/">
            <visugpx:node>4</visugpx:node>
            </visugpx:TrkExtension>
        </extensions>
      </trkpt>
      <trkpt lat="44.26794" lon="2.73206">
        <ele>721.61</ele>
        <time>2025-09-17T08:41:09Z</time>
      </trkpt>
      <trkpt lat="44.26796" lon="2.73174">
        <ele>726.41</ele>
        <time>2025-09-17T08:40:52Z</time>
      </trkpt>
      <trkpt lat="44.26801" lon="2.73139">
        <ele>730.74</ele>
        <time>2025-09-17T08:40:34Z</time>
      </trkpt>
      <trkpt lat="44.26813" lon="2.73108">
        <ele>732.66</ele>
        <time>2025-09-17T08:40:16Z</time>
      </trkpt>
      <trkpt lat="44.2683" lon="2.73082">
        <ele>734.1</ele>
        <time>2025-09-17T08:39:58Z</time>
      </trkpt>
      <trkpt lat="44.26851" lon="2.73057">
        <ele>736.03</ele>
        <time>2025-09-17T08:39:39Z</time>
      </trkpt>
      <trkpt lat="44.26874" lon="2.73034">
        <ele>738.43</ele>
        <time>2025-09-17T08:39:17Z</time>
      </trkpt>
      <trkpt lat="44.26894" lon="2.73019">
        <ele>740.35</ele>
        <time>2025-09-17T08:39:02Z</time>
      </trkpt>
      <trkpt lat="44.26918" lon="2.73008">
        <ele>741.31</ele>
        <time>2025-09-17T08:38:44Z</time>
      </trkpt>
      <trkpt lat="44.26944" lon="2.72989">
        <ele>742.76</ele>
        <time>2025-09-17T08:38:22Z</time>
      </trkpt>
      <trkpt lat="44.26967" lon="2.72974">
        <ele>744.68</ele>
        <time>2025-09-17T08:38:04Z</time>
      </trkpt>
      <trkpt lat="44.26995" lon="2.72959">
        <ele>745.64</ele>
        <time>2025-09-17T08:37:43Z</time>
      </trkpt>
      <trkpt lat="44.27021" lon="2.72958">
        <ele>746.12</ele>
        <time>2025-09-17T08:37:24Z</time>
      </trkpt>
      <trkpt lat="44.27028" lon="2.72961">
        <ele>747.56</ele>
        <time>2025-09-17T08:37:13Z</time>
      </trkpt>
      <trkpt lat="44.27052" lon="2.72973">
        <ele>748.52</ele>
        <time>2025-09-17T08:36:54Z</time>
      </trkpt>
      <trkpt lat="44.27073" lon="2.72985">
        <ele>750.45</ele>
        <time>2025-09-17T08:36:38Z</time>
      </trkpt>
      <trkpt lat="44.27097" lon="2.73">
        <ele>753.33</ele>
        <time>2025-09-17T08:36:18Z</time>
      </trkpt>
      <trkpt lat="44.27099" lon="2.73001">
        <ele>753.81</ele>
        <time>2025-09-17T08:36:16Z</time>
      </trkpt>
      <trkpt lat="44.271" lon="2.73002">
        <ele>753.33</ele>
        <time>2025-09-17T08:36:15Z</time>
      </trkpt>
      <trkpt lat="44.27109" lon="2.73007">
        <ele>753.81</ele>
        <time>2025-09-17T08:36:07Z</time>
        <extensions>
          <visugpx:TrkExtension xmlns:visugpx="https://www.visugpx.com/editgpx/">
            <visugpx:node>3</visugpx:node>
            </visugpx:TrkExtension>
        </extensions>
      </trkpt>
      <trkpt lat="44.2711" lon="2.73008">
        <ele>748.9</ele>
      </trkpt>
      <trkpt lat="44.27113" lon="2.7301">
        <ele>749.1</ele>
      </trkpt>
      <trkpt lat="44.27115" lon="2.73011">
        <ele>749.3</ele>
      </trkpt>
      <trkpt lat="44.27118" lon="2.73013">
        <ele>749.6</ele>
      </trkpt>
      <trkpt lat="44.27121" lon="2.73014">
        <ele>749.7</ele>
      </trkpt>
      <trkpt lat="44.27124" lon="2.73016">
        <ele>749.9</ele>
      </trkpt>
      <trkpt lat="44.27128" lon="2.73018">
        <ele>750</ele>
      </trkpt>
      <trkpt lat="44.27132" lon="2.73019">
        <ele>750</ele>
      </trkpt>
      <trkpt lat="44.27137" lon="2.73021">
        <ele>750</ele>
      </trkpt>
      <trkpt lat="44.2714" lon="2.73022">
        <ele>750.1</ele>
      </trkpt>
      <trkpt lat="44.27144" lon="2.73023">
        <ele>750.3</ele>
      </trkpt>
      <trkpt lat="44.27149" lon="2.73024">
        <ele>750.7</ele>
      </trkpt>
      <trkpt lat="44.27155" lon="2.73025">
        <ele>751.1</ele>
      </trkpt>
      <trkpt lat="44.27158" lon="2.73025">
        <ele>751.3</ele>
        <extensions>
          <visugpx:TrkExtension xmlns:visugpx="https://www.visugpx.com/editgpx/">
            <visugpx:node>2</visugpx:node>
            </visugpx:TrkExtension>
        </extensions>
      </trkpt>
      <trkpt lat="44.27162" lon="2.73027">
        <ele>758.62</ele>
        <time>2025-09-17T08:27:49Z</time>
        <extensions>
          <visugpx:TrkExtension xmlns:visugpx="https://www.visugpx.com/editgpx/">
            <visugpx:node>1</visugpx:node>
            </visugpx:TrkExtension>
        </extensions>
      </trkpt>
      <trkpt lat="44.27189" lon="2.73027">
        <ele>761.02</ele>
        <time>2025-09-17T08:27:31Z</time>
      </trkpt>
      <trkpt lat="44.27191" lon="2.73028">
        <ele>761.02</ele>
        <time>2025-09-17T08:27:30Z</time>
      </trkpt>
      <trkpt lat="44.27206" lon="2.73028">
        <ele>760.54</ele>
        <time>2025-09-17T08:27:21Z</time>
      </trkpt>
      <trkpt lat="44.2723" lon="2.73039">
        <ele>760.54</ele>
        <time>2025-09-17T08:27:05Z</time>
      </trkpt>
      <trkpt lat="44.27268" lon="2.73064">
        <ele>761.02</ele>
        <time>2025-09-17T08:26:33Z</time>
      </trkpt>
      <trkpt lat="44.27288" lon="2.73082">
        <ele>761.5</ele>
        <time>2025-09-17T08:26:13Z</time>
      </trkpt>
      <trkpt lat="44.27311" lon="2.73111">
        <ele>759.58</ele>
        <time>2025-09-17T08:25:51Z</time>
      </trkpt>
      <trkpt lat="44.27335" lon="2.73142">
        <ele>759.58</ele>
        <time>2025-09-17T08:25:29Z</time>
      </trkpt>
      <trkpt lat="44.27351" lon="2.73165">
        <ele>759.58</ele>
        <time>2025-09-17T08:25:12Z</time>
      </trkpt>
      <trkpt lat="44.27371" lon="2.73183">
        <ele>758.62</ele>
        <time>2025-09-17T08:24:54Z</time>
      </trkpt>
      <trkpt lat="44.27399" lon="2.73196">
        <ele>758.14</ele>
        <time>2025-09-17T08:24:33Z</time>
      </trkpt>
      <trkpt lat="44.27434" lon="2.73199">
        <ele>755.73</ele>
        <time>2025-09-17T08:24:09Z</time>
      </trkpt>
      <trkpt lat="44.27459" lon="2.73207">
        <ele>755.73</ele>
        <time>2025-09-17T08:23:52Z</time>
      </trkpt>
      <trkpt lat="44.27477" lon="2.73221">
        <ele>754.77</ele>
        <time>2025-09-17T08:23:37Z</time>
      </trkpt>
      <trkpt lat="44.27491" lon="2.73232">
        <ele>753.81</ele>
        <time>2025-09-17T08:23:23Z</time>
      </trkpt>
      <trkpt lat="44.27514" lon="2.73243">
        <ele>753.33</ele>
        <time>2025-09-17T08:23:05Z</time>
      </trkpt>
      <trkpt lat="44.27536" lon="2.73242">
        <ele>749.49</ele>
        <time>2025-09-17T08:22:48Z</time>
      </trkpt>
      <trkpt lat="44.27552" lon="2.73242">
        <ele>747.08</ele>
        <time>2025-09-17T08:22:24Z</time>
      </trkpt>
      <trkpt lat="44.27559" lon="2.73242">
        <ele>746.6</ele>
        <time>2025-09-17T08:22:00Z</time>
      </trkpt>
      <trkpt lat="44.27566" lon="2.73242">
        <ele>741.79</ele>
        <time>2025-09-17T08:21:38Z</time>
      </trkpt>
      <trkpt lat="44.27595" lon="2.73235">
        <ele>735.55</ele>
        <time>2025-09-17T08:21:16Z</time>
      </trkpt>
      <trkpt lat="44.27619" lon="2.73236">
        <ele>726.41</ele>
        <time>2025-09-17T08:20:54Z</time>
      </trkpt>
      <trkpt lat="44.27649" lon="2.73238">
        <ele>719.2</ele>
        <time>2025-09-17T08:20:31Z</time>
      </trkpt>
      <trkpt lat="44.27675" lon="2.7325">
        <ele>715.84</ele>
        <time>2025-09-17T08:20:11Z</time>
      </trkpt>
      <trkpt lat="44.27707" lon="2.73262">
        <ele>712.95</ele>
        <time>2025-09-17T08:19:48Z</time>
      </trkpt>
      <trkpt lat="44.2771" lon="2.73262">
        <ele>712.47</ele>
        <time>2025-09-17T08:19:45Z</time>
      </trkpt>
      <trkpt lat="44.27721" lon="2.73235">
        <ele>709.11</ele>
        <time>2025-09-17T08:19:28Z</time>
      </trkpt>
      <trkpt lat="44.2773" lon="2.73195">
        <ele>704.78</ele>
        <time>2025-09-17T08:19:10Z</time>
      </trkpt>
      <trkpt lat="44.27735" lon="2.73158">
        <ele>702.86</ele>
        <time>2025-09-17T08:18:53Z</time>
      </trkpt>
      <trkpt lat="44.27738" lon="2.73131">
        <ele>700.94</ele>
        <time>2025-09-17T08:18:40Z</time>
      </trkpt>
      <trkpt lat="44.27742" lon="2.73096">
        <ele>700.94</ele>
        <time>2025-09-17T08:18:23Z</time>
      </trkpt>
      <trkpt lat="44.27748" lon="2.73057">
        <ele>699.02</ele>
        <time>2025-09-17T08:18:03Z</time>
      </trkpt>
      <trkpt lat="44.27756" lon="2.73021">
        <ele>698.05</ele>
        <time>2025-09-17T08:17:44Z</time>
      </trkpt>
      <trkpt lat="44.27769" lon="2.72981">
        <ele>694.21</ele>
        <time>2025-09-17T08:17:24Z</time>
      </trkpt>
      <trkpt lat="44.2777" lon="2.72979">
        <ele>693.73</ele>
        <time>2025-09-17T08:17:23Z</time>
      </trkpt>
      <trkpt lat="44.27771" lon="2.72978">
        <ele>693.73</ele>
        <time>2025-09-17T08:17:22Z</time>
      </trkpt>
      <trkpt lat="44.27769" lon="2.72964">
        <ele>692.77</ele>
        <time>2025-09-17T08:17:14Z</time>
      </trkpt>
      <trkpt lat="44.27752" lon="2.7294">
        <ele>690.36</ele>
        <time>2025-09-17T08:16:58Z</time>
      </trkpt>
      <trkpt lat="44.27751" lon="2.72938">
        <ele>689.88</ele>
        <time>2025-09-17T08:16:57Z</time>
      </trkpt>
      <trkpt lat="44.27751" lon="2.72936">
        <ele>689.88</ele>
        <time>2025-09-17T08:16:56Z</time>
      </trkpt>
      <trkpt lat="44.27751" lon="2.72934">
        <ele>689.4</ele>
        <time>2025-09-17T08:16:55Z</time>
      </trkpt>
      <trkpt lat="44.27752" lon="2.72932">
        <ele>689.4</ele>
        <time>2025-09-17T08:16:54Z</time>
      </trkpt>
      <trkpt lat="44.27752" lon="2.72931">
        <ele>688.92</ele>
        <time>2025-09-17T08:16:53Z</time>
      </trkpt>
      <trkpt lat="44.27761" lon="2.72924">
        <ele>687.48</ele>
        <time>2025-09-17T08:16:45Z</time>
      </trkpt>
      <trkpt lat="44.27782" lon="2.7291">
        <ele>686.52</ele>
        <time>2025-09-17T08:16:29Z</time>
      </trkpt>
      <trkpt lat="44.27805" lon="2.72893">
        <ele>686.52</ele>
        <time>2025-09-17T08:16:10Z</time>
      </trkpt>
      <trkpt lat="44.27807" lon="2.72891">
        <ele>686.52</ele>
        <time>2025-09-17T08:16:06Z</time>
      </trkpt>
      <trkpt lat="44.27806" lon="2.72891">
        <ele>688.92</ele>
        <time>2025-09-17T08:15:37Z</time>
      </trkpt>
      <trkpt lat="44.27807" lon="2.7289">
        <ele>690.36</ele>
        <time>2025-09-17T08:15:14Z</time>
      </trkpt>
      <trkpt lat="44.27808" lon="2.72889">
        <ele>688.92</ele>
        <time>2025-09-17T08:14:58Z</time>
      </trkpt>
      <trkpt lat="44.27808" lon="2.72887">
        <ele>691.33</ele>
        <time>2025-09-17T08:14:35Z</time>
      </trkpt>
      <trkpt lat="44.27806" lon="2.72887">
        <ele>689.88</ele>
        <time>2025-09-17T08:14:18Z</time>
      </trkpt>
      <trkpt lat="44.2781" lon="2.72885">
        <ele>690.36</ele>
        <time>2025-09-17T08:14:05Z</time>
      </trkpt>
      <trkpt lat="44.27818" lon="2.72881">
        <ele>689.4</ele>
        <time>2025-09-17T08:13:51Z</time>
      </trkpt>
      <trkpt lat="44.27819" lon="2.72879">
        <ele>688.44</ele>
        <time>2025-09-17T08:13:34Z</time>
      </trkpt>
      <trkpt lat="44.27837" lon="2.72869">
        <ele>686.52</ele>
        <time>2025-09-17T08:13:19Z</time>
      </trkpt>
      <trkpt lat="44.27855" lon="2.72858">
        <ele>688.44</ele>
        <time>2025-09-17T08:13:04Z</time>
      </trkpt>
      <trkpt lat="44.27882" lon="2.72856">
        <ele>693.25</ele>
        <time>2025-09-17T08:12:48Z</time>
      </trkpt>
      <trkpt lat="44.27902" lon="2.72854">
        <ele>697.57</ele>
        <time>2025-09-17T08:12:35Z</time>
      </trkpt>
      <trkpt lat="44.27904" lon="2.72853">
        <ele>697.57</ele>
        <time>2025-09-17T08:12:34Z</time>
      </trkpt>
      <trkpt lat="44.27906" lon="2.72852">
        <ele>698.05</ele>
        <time>2025-09-17T08:12:33Z</time>
      </trkpt>
      <trkpt lat="44.27908" lon="2.72851">
        <ele>698.53</ele>
        <time>2025-09-17T08:12:32Z</time>
      </trkpt>
      <trkpt lat="44.27909" lon="2.72851">
        <ele>698.53</ele>
        <time>2025-09-17T08:12:31Z</time>
      </trkpt>
      <trkpt lat="44.2791" lon="2.7285">
        <ele>698.53</ele>
        <time>2025-09-17T08:12:30Z</time>
      </trkpt>
      <trkpt lat="44.27911" lon="2.72848">
        <ele>699.02</ele>
        <time>2025-09-17T08:12:29Z</time>
      </trkpt>
      <trkpt lat="44.27912" lon="2.72846">
        <ele>699.5</ele>
        <time>2025-09-17T08:12:28Z</time>
      </trkpt>
      <trkpt lat="44.2791" lon="2.72838">
        <ele>701.42</ele>
        <time>2025-09-17T08:12:24Z</time>
      </trkpt>
      <trkpt lat="44.27908" lon="2.72835">
        <ele>701.9</ele>
        <time>2025-09-17T08:12:22Z</time>
      </trkpt>
      <trkpt lat="44.27907" lon="2.72834">
        <ele>701.9</ele>
        <time>2025-09-17T08:12:21Z</time>
      </trkpt>
      <trkpt lat="44.27905" lon="2.72833">
        <ele>702.38</ele>
        <time>2025-09-17T08:12:20Z</time>
      </trkpt>
      <trkpt lat="44.27897" lon="2.72819">
        <ele>703.34</ele>
        <time>2025-09-17T08:12:08Z</time>
      </trkpt>
      <trkpt lat="44.27903" lon="2.72788">
        <ele>704.78</ele>
        <time>2025-09-17T08:11:53Z</time>
      </trkpt>
      <trkpt lat="44.27904" lon="2.72786">
        <ele>704.78</ele>
        <time>2025-09-17T08:11:52Z</time>
      </trkpt>
      <trkpt lat="44.27904" lon="2.72785">
        <ele>704.78</ele>
        <time>2025-09-17T08:11:51Z</time>
      </trkpt>
      <trkpt lat="44.2792" lon="2.72773">
        <ele>707.67</ele>
        <time>2025-09-17T08:11:38Z</time>
      </trkpt>
      <trkpt lat="44.27946" lon="2.72777">
        <ele>710.07</ele>
        <time>2025-09-17T08:11:21Z</time>
      </trkpt>
      <trkpt lat="44.2797" lon="2.72775">
        <ele>711.99</ele>
        <time>2025-09-17T08:11:06Z</time>
      </trkpt>
      <trkpt lat="44.28" lon="2.7277">
        <ele>710.07</ele>
        <time>2025-09-17T08:10:47Z</time>
      </trkpt>
      <trkpt lat="44.28022" lon="2.72766">
        <ele>709.59</ele>
        <time>2025-09-17T08:10:32Z</time>
      </trkpt>
      <trkpt lat="44.28045" lon="2.72761">
        <ele>709.59</ele>
        <time>2025-09-17T08:10:17Z</time>
      </trkpt>
      <trkpt lat="44.2807" lon="2.72759">
        <ele>709.11</ele>
        <time>2025-09-17T08:10:00Z</time>
      </trkpt>
      <trkpt lat="44.28097" lon="2.72754">
        <ele>711.03</ele>
        <time>2025-09-17T08:09:44Z</time>
      </trkpt>
      <trkpt lat="44.28122" lon="2.72752">
        <ele>714.4</ele>
        <time>2025-09-17T08:09:28Z</time>
      </trkpt>
      <trkpt lat="44.28147" lon="2.7275">
        <ele>717.28</ele>
        <time>2025-09-17T08:09:10Z</time>
      </trkpt>
      <trkpt lat="44.28174" lon="2.72741">
        <ele>716.32</ele>
        <time>2025-09-17T08:08:52Z</time>
      </trkpt>
      <trkpt lat="44.28198" lon="2.7275">
        <ele>715.36</ele>
        <time>2025-09-17T08:08:38Z</time>
      </trkpt>
      <trkpt lat="44.28204" lon="2.72746">
        <ele>715.84</ele>
        <time>2025-09-17T08:08:32Z</time>
      </trkpt>
      <trkpt lat="44.28222" lon="2.72727">
        <ele>717.28</ele>
        <time>2025-09-17T08:08:18Z</time>
      </trkpt>
      <trkpt lat="44.28242" lon="2.72705">
        <ele>719.68</ele>
        <time>2025-09-17T08:08:00Z</time>
      </trkpt>
      <trkpt lat="44.28266" lon="2.72677">
        <ele>723.53</ele>
        <time>2025-09-17T08:07:39Z</time>
      </trkpt>
      <trkpt lat="44.28284" lon="2.72649">
        <ele>726.41</ele>
        <time>2025-09-17T08:07:19Z</time>
      </trkpt>
      <trkpt lat="44.28285" lon="2.72649">
        <ele>726.41</ele>
        <time>2025-09-17T08:07:18Z</time>
      </trkpt>
      <trkpt lat="44.28287" lon="2.72648">
        <ele>726.41</ele>
        <time>2025-09-17T08:07:16Z</time>
      </trkpt>
      <trkpt lat="44.28291" lon="2.72648">
        <ele>725.93</ele>
        <time>2025-09-17T08:06:59Z</time>
      </trkpt>
      <trkpt lat="44.28292" lon="2.72649">
        <ele>725.93</ele>
        <time>2025-09-17T08:06:58Z</time>
      </trkpt>
      <trkpt lat="44.28308" lon="2.72639">
        <ele>725.45</ele>
        <time>2025-09-17T08:06:44Z</time>
      </trkpt>
      <trkpt lat="44.28329" lon="2.72617">
        <ele>726.41</ele>
        <time>2025-09-17T08:06:28Z</time>
      </trkpt>
      <trkpt lat="44.28345" lon="2.72602">
        <ele>726.89</ele>
        <time>2025-09-17T08:06:12Z</time>
      </trkpt>
      <trkpt lat="44.28368" lon="2.72595">
        <ele>726.41</ele>
        <time>2025-09-17T08:05:57Z</time>
      </trkpt>
      <trkpt lat="44.28387" lon="2.72599">
        <ele>724.49</ele>
        <time>2025-09-17T08:05:42Z</time>
      </trkpt>
      <trkpt lat="44.28413" lon="2.72606">
        <ele>722.09</ele>
        <time>2025-09-17T08:05:23Z</time>
      </trkpt>
      <trkpt lat="44.28432" lon="2.72616">
        <ele>723.53</ele>
        <time>2025-09-17T08:05:07Z</time>
      </trkpt>
      <trkpt lat="44.28454" lon="2.72636">
        <ele>726.89</ele>
        <time>2025-09-17T08:04:50Z</time>
      </trkpt>
      <trkpt lat="44.28472" lon="2.72653">
        <ele>727.37</ele>
        <time>2025-09-17T08:04:36Z</time>
      </trkpt>
      <trkpt lat="44.28494" lon="2.72676">
        <ele>726.41</ele>
        <time>2025-09-17T08:04:18Z</time>
      </trkpt>
      <trkpt lat="44.28516" lon="2.72694">
        <ele>725.45</ele>
        <time>2025-09-17T08:04:02Z</time>
      </trkpt>
      <trkpt lat="44.28533" lon="2.7271">
        <ele>726.41</ele>
        <time>2025-09-17T08:03:47Z</time>
      </trkpt>
      <trkpt lat="44.28558" lon="2.7273">
        <ele>725.45</ele>
        <time>2025-09-17T08:03:27Z</time>
      </trkpt>
      <trkpt lat="44.28579" lon="2.72742">
        <ele>726.89</ele>
        <time>2025-09-17T08:03:10Z</time>
      </trkpt>
      <trkpt lat="44.28601" lon="2.72749">
        <ele>726.41</ele>
        <time>2025-09-17T08:02:53Z</time>
      </trkpt>
      <trkpt lat="44.28617" lon="2.72759">
        <ele>728.34</ele>
        <time>2025-09-17T08:02:37Z</time>
      </trkpt>
      <trkpt lat="44.28637" lon="2.72759">
        <ele>729.3</ele>
        <time>2025-09-17T08:02:20Z</time>
      </trkpt>
      <trkpt lat="44.28662" lon="2.72748">
        <ele>729.78</ele>
        <time>2025-09-17T08:01:59Z</time>
      </trkpt>
      <trkpt lat="44.28685" lon="2.72733">
        <ele>731.22</ele>
        <time>2025-09-17T08:01:38Z</time>
      </trkpt>
      <trkpt lat="44.287" lon="2.7271">
        <ele>732.18</ele>
        <time>2025-09-17T08:01:18Z</time>
      </trkpt>
      <trkpt lat="44.28706" lon="2.727">
        <ele>732.18</ele>
        <time>2025-09-17T08:01:02Z</time>
      </trkpt>
      <trkpt lat="44.28707" lon="2.72697">
        <ele>728.82</ele>
        <time>2025-09-17T08:00:21Z</time>
      </trkpt>
      <trkpt lat="44.28706" lon="2.72693">
        <ele>728.34</ele>
        <time>2025-09-17T07:59:58Z</time>
      </trkpt>
      <trkpt lat="44.2871" lon="2.72693">
        <ele>731.22</ele>
        <time>2025-09-17T07:59:34Z</time>
      </trkpt>
      <trkpt lat="44.28708" lon="2.72702">
        <ele>731.22</ele>
        <time>2025-09-17T07:59:16Z</time>
      </trkpt>
      <trkpt lat="44.28704" lon="2.72698">
        <ele>729.78</ele>
        <time>2025-09-17T07:58:51Z</time>
      </trkpt>
      <trkpt lat="44.28698" lon="2.72704">
        <ele>731.22</ele>
        <time>2025-09-17T07:58:30Z</time>
      </trkpt>
      <trkpt lat="44.28703" lon="2.727">
        <ele>733.62</ele>
        <time>2025-09-17T07:58:14Z</time>
      </trkpt>
      <trkpt lat="44.28706" lon="2.727">
        <ele>735.55</ele>
        <time>2025-09-17T07:57:43Z</time>
      </trkpt>
      <trkpt lat="44.28706" lon="2.72691">
        <ele>733.14</ele>
        <time>2025-09-17T07:57:13Z</time>
      </trkpt>
      <trkpt lat="44.28704" lon="2.72685">
        <ele>728.82</ele>
        <time>2025-09-17T07:56:52Z</time>
      </trkpt>
      <trkpt lat="44.28709" lon="2.72686">
        <ele>730.26</ele>
        <time>2025-09-17T07:56:23Z</time>
      </trkpt>
      <trkpt lat="44.28707" lon="2.72682">
        <ele>731.22</ele>
        <time>2025-09-17T07:55:57Z</time>
      </trkpt>
      <trkpt lat="44.28707" lon="2.72694">
        <ele>729.78</ele>
        <time>2025-09-17T07:55:28Z</time>
      </trkpt>
      <trkpt lat="44.28704" lon="2.72688">
        <ele>724.97</ele>
        <time>2025-09-17T07:55:04Z</time>
      </trkpt>
      <trkpt lat="44.28705" lon="2.72689">
        <ele>726.89</ele>
        <time>2025-09-17T07:54:39Z</time>
      </trkpt>
      <trkpt lat="44.28703" lon="2.72691">
        <ele>728.82</ele>
        <time>2025-09-17T07:54:25Z</time>
      </trkpt>
      <trkpt lat="44.28702" lon="2.72702">
        <ele>729.78</ele>
        <time>2025-09-17T07:54:07Z</time>
      </trkpt>
      <trkpt lat="44.28706" lon="2.72699">
        <ele>730.26</ele>
        <time>2025-09-17T07:53:37Z</time>
      </trkpt>
      <trkpt lat="44.28705" lon="2.727">
        <ele>731.7</ele>
        <time>2025-09-17T07:53:09Z</time>
      </trkpt>
      <trkpt lat="44.28706" lon="2.727">
        <ele>735.07</ele>
        <time>2025-09-17T07:52:36Z</time>
      </trkpt>
      <trkpt lat="44.2871" lon="2.72702">
        <ele>735.55</ele>
        <time>2025-09-17T07:52:15Z</time>
      </trkpt>
      <trkpt lat="44.28706" lon="2.72702">
        <ele>733.14</ele>
        <time>2025-09-17T07:51:44Z</time>
      </trkpt>
      <trkpt lat="44.28707" lon="2.72705">
        <ele>734.58</ele>
        <time>2025-09-17T07:51:24Z</time>
      </trkpt>
      <trkpt lat="44.28706" lon="2.72705">
        <ele>730.26</ele>
        <time>2025-09-17T07:50:48Z</time>
      </trkpt>
      <trkpt lat="44.28707" lon="2.72703">
        <ele>730.74</ele>
        <time>2025-09-17T07:50:20Z</time>
      </trkpt>
      <trkpt lat="44.28707" lon="2.72703">
        <ele>732.18</ele>
        <time>2025-09-17T07:49:56Z</time>
      </trkpt>
      <trkpt lat="44.28707" lon="2.72704">
        <ele>731.22</ele>
        <time>2025-09-17T07:49:36Z</time>
      </trkpt>
      <trkpt lat="44.28699" lon="2.7271">
        <ele>731.7</ele>
        <time>2025-09-17T07:49:16Z</time>
      </trkpt>
      <trkpt lat="44.28704" lon="2.72705">
        <ele>731.22</ele>
        <time>2025-09-17T07:48:59Z</time>
      </trkpt>
      <trkpt lat="44.28705" lon="2.72701">
        <ele>729.78</ele>
        <time>2025-09-17T07:48:39Z</time>
      </trkpt>
      <trkpt lat="44.28707" lon="2.727">
        <ele>729.78</ele>
        <time>2025-09-17T07:48:12Z</time>
      </trkpt>
      <trkpt lat="44.28707" lon="2.72701">
        <ele>727.37</ele>
        <time>2025-09-17T07:47:53Z</time>
      </trkpt>
      <trkpt lat="44.28709" lon="2.72701">
        <ele>728.82</ele>
        <time>2025-09-17T07:47:24Z</time>
      </trkpt>
      <trkpt lat="44.28708" lon="2.727">
        <ele>729.78</ele>
        <time>2025-09-17T07:46:58Z</time>
      </trkpt>
      <trkpt lat="44.28704" lon="2.72702">
        <ele>728.34</ele>
        <time>2025-09-17T07:46:25Z</time>
      </trkpt>
      <trkpt lat="44.28705" lon="2.72703">
        <ele>732.18</ele>
        <time>2025-09-17T07:46:01Z</time>
      </trkpt>
      <trkpt lat="44.28704" lon="2.72699">
        <ele>735.07</ele>
        <time>2025-09-17T07:45:38Z</time>
      </trkpt>
      <trkpt lat="44.28705" lon="2.72699">
        <ele>728.82</ele>
        <time>2025-09-17T07:45:01Z</time>
      </trkpt>
      <trkpt lat="44.28709" lon="2.72696">
        <ele>726.41</ele>
        <time>2025-09-17T07:44:43Z</time>
      </trkpt>
      <trkpt lat="44.28705" lon="2.727">
        <ele>726.41</ele>
        <time>2025-09-17T07:44:24Z</time>
      </trkpt>
      <trkpt lat="44.28707" lon="2.72699">
        <ele>726.41</ele>
        <time>2025-09-17T07:44:00Z</time>
      </trkpt>
      <trkpt lat="44.28708" lon="2.72699">
        <ele>726.89</ele>
        <time>2025-09-17T07:43:44Z</time>
      </trkpt>
      <trkpt lat="44.28709" lon="2.72697">
        <ele>726.89</ele>
        <time>2025-09-17T07:43:16Z</time>
      </trkpt>
      <trkpt lat="44.28709" lon="2.72693">
        <ele>726.89</ele>
        <time>2025-09-17T07:42:55Z</time>
      </trkpt>
      <trkpt lat="44.28711" lon="2.72688">
        <ele>724.49</ele>
        <time>2025-09-17T07:42:38Z</time>
      </trkpt>
      <trkpt lat="44.28716" lon="2.72666">
        <ele>721.61</ele>
        <time>2025-09-17T07:42:21Z</time>
      </trkpt>
      <trkpt lat="44.28726" lon="2.72658">
        <ele>719.68</ele>
        <time>2025-09-17T07:42:12Z</time>
      </trkpt>
      <trkpt lat="44.28747" lon="2.72659">
        <ele>720.65</ele>
        <time>2025-09-17T07:41:57Z</time>
      </trkpt>
      <trkpt lat="44.28771" lon="2.72669">
        <ele>722.09</ele>
        <time>2025-09-17T07:41:41Z</time>
      </trkpt>
      <trkpt lat="44.28798" lon="2.72668">
        <ele>721.61</ele>
        <time>2025-09-17T07:41:23Z</time>
      </trkpt>
      <trkpt lat="44.28818" lon="2.72661">
        <ele>722.09</ele>
        <time>2025-09-17T07:41:08Z</time>
      </trkpt>
      <trkpt lat="44.28839" lon="2.72672">
        <ele>723.53</ele>
        <time>2025-09-17T07:40:51Z</time>
      </trkpt>
      <trkpt lat="44.28854" lon="2.72692">
        <ele>724.97</ele>
        <time>2025-09-17T07:40:36Z</time>
      </trkpt>
      <trkpt lat="44.28873" lon="2.72716">
        <ele>722.57</ele>
        <time>2025-09-17T07:40:19Z</time>
      </trkpt>
      <trkpt lat="44.28876" lon="2.72717">
        <ele>722.57</ele>
        <time>2025-09-17T07:40:17Z</time>
      </trkpt>
      <trkpt lat="44.28888" lon="2.72722">
        <ele>722.09</ele>
        <time>2025-09-17T07:40:08Z</time>
      </trkpt>
      <trkpt lat="44.28891" lon="2.72722">
        <ele>722.09</ele>
        <time>2025-09-17T07:40:06Z</time>
      </trkpt>
      <trkpt lat="44.28918" lon="2.7272">
        <ele>720.16</ele>
        <time>2025-09-17T07:39:50Z</time>
      </trkpt>
      <trkpt lat="44.28934" lon="2.72712">
        <ele>719.2</ele>
        <time>2025-09-17T07:39:41Z</time>
      </trkpt>
      <trkpt lat="44.28954" lon="2.72709">
        <ele>719.2</ele>
        <time>2025-09-17T07:39:27Z</time>
      </trkpt>
      <trkpt lat="44.28976" lon="2.72707">
        <ele>720.16</ele>
        <time>2025-09-17T07:39:12Z</time>
      </trkpt>
      <trkpt lat="44.28998" lon="2.7271">
        <ele>724.01</ele>
        <time>2025-09-17T07:38:55Z</time>
      </trkpt>
      <trkpt lat="44.29014" lon="2.72712">
        <ele>727.86</ele>
        <time>2025-09-17T07:38:39Z</time>
      </trkpt>
      <trkpt lat="44.29033" lon="2.72715">
        <ele>731.22</ele>
        <time>2025-09-17T07:38:23Z</time>
      </trkpt>
      <trkpt lat="44.29039" lon="2.72716">
        <ele>732.18</ele>
        <time>2025-09-17T07:38:19Z</time>
      </trkpt>
      <trkpt lat="44.29059" lon="2.72714">
        <ele>735.07</ele>
        <time>2025-09-17T07:38:04Z</time>
      </trkpt>
      <trkpt lat="44.29082" lon="2.727">
        <ele>735.55</ele>
        <time>2025-09-17T07:37:47Z</time>
      </trkpt>
      <trkpt lat="44.29102" lon="2.72683">
        <ele>736.51</ele>
        <time>2025-09-17T07:37:33Z</time>
      </trkpt>
      <trkpt lat="44.29116" lon="2.72659">
        <ele>736.99</ele>
        <time>2025-09-17T07:37:17Z</time>
      </trkpt>
      <trkpt lat="44.29127" lon="2.72638">
        <ele>736.03</ele>
        <time>2025-09-17T07:37:02Z</time>
      </trkpt>
      <trkpt lat="44.29139" lon="2.72619">
        <ele>735.55</ele>
        <time>2025-09-17T07:36:48Z</time>
      </trkpt>
      <trkpt lat="44.29152" lon="2.72592">
        <ele>737.95</ele>
        <time>2025-09-17T07:36:33Z</time>
      </trkpt>
      <trkpt lat="44.29154" lon="2.72579">
        <ele>738.91</ele>
        <time>2025-09-17T07:36:26Z</time>
      </trkpt>
      <trkpt lat="44.29156" lon="2.72555">
        <ele>738.91</ele>
        <time>2025-09-17T07:36:14Z</time>
      </trkpt>
      <trkpt lat="44.29154" lon="2.72545">
        <ele>738.43</ele>
        <time>2025-09-17T07:36:08Z</time>
      </trkpt>
      <trkpt lat="44.29154" lon="2.72533">
        <ele>738.43</ele>
        <time>2025-09-17T07:36:01Z</time>
      </trkpt>
      <trkpt lat="44.2915" lon="2.72491">
        <ele>738.43</ele>
        <time>2025-09-17T07:35:42Z</time>
      </trkpt>
      <trkpt lat="44.29148" lon="2.72483">
        <ele>738.43</ele>
        <time>2025-09-17T07:35:38Z</time>
      </trkpt>
      <trkpt lat="44.29142" lon="2.72464">
        <ele>741.31</ele>
        <time>2025-09-17T07:35:27Z</time>
      </trkpt>
      <trkpt lat="44.29142" lon="2.72459">
        <ele>741.31</ele>
        <time>2025-09-17T07:35:24Z</time>
      </trkpt>
      <trkpt lat="44.29143" lon="2.72436">
        <ele>739.87</ele>
        <time>2025-09-17T07:35:11Z</time>
      </trkpt>
      <trkpt lat="44.29144" lon="2.72424">
        <ele>738.43</ele>
        <time>2025-09-17T07:35:05Z</time>
      </trkpt>
      <trkpt lat="44.2915" lon="2.72407">
        <ele>736.51</ele>
        <time>2025-09-17T07:34:54Z</time>
      </trkpt>
      <trkpt lat="44.2915" lon="2.72401">
        <ele>735.55</ele>
        <time>2025-09-17T07:34:50Z</time>
      </trkpt>
      <trkpt lat="44.29168" lon="2.72396">
        <ele>734.58</ele>
        <time>2025-09-17T07:34:36Z</time>
      </trkpt>
      <trkpt lat="44.29189" lon="2.72396">
        <ele>736.03</ele>
        <time>2025-09-17T07:34:17Z</time>
      </trkpt>
      <trkpt lat="44.29197" lon="2.72398">
        <ele>735.55</ele>
        <time>2025-09-17T07:34:11Z</time>
      </trkpt>
      <trkpt lat="44.2921" lon="2.724">
        <ele>736.99</ele>
        <time>2025-09-17T07:33:58Z</time>
      </trkpt>
      <trkpt lat="44.29213" lon="2.72404">
        <ele>737.47</ele>
        <time>2025-09-17T07:33:55Z</time>
      </trkpt>
      <trkpt lat="44.29213" lon="2.7241">
        <ele>737.95</ele>
        <time>2025-09-17T07:33:50Z</time>
      </trkpt>
      <trkpt lat="44.29212" lon="2.72419">
        <ele>737.95</ele>
        <time>2025-09-17T07:33:42Z</time>
      </trkpt>
      <trkpt lat="44.29211" lon="2.7242">
        <ele>737.95</ele>
        <time>2025-09-17T07:33:41Z</time>
      </trkpt>
      <trkpt lat="44.29207" lon="2.72422">
        <ele>735.55</ele>
        <time>2025-09-17T07:33:28Z</time>
      </trkpt>
      <trkpt lat="44.29205" lon="2.72422">
        <ele>730.26</ele>
        <time>2025-09-17T07:33:12Z</time>
      </trkpt>
      <trkpt lat="44.29203" lon="2.72426">
        <ele>729.3</ele>
        <time>2025-09-17T07:33:01Z</time>
      </trkpt>
      <trkpt lat="44.29207" lon="2.72426">
        <ele>728.82</ele>
        <time>2025-09-17T07:32:45Z</time>
      </trkpt>
      <trkpt lat="44.29208" lon="2.72429">
        <ele>728.82</ele>
        <time>2025-09-17T07:32:32Z</time>
      </trkpt>
      <trkpt lat="44.29212" lon="2.72435">
        <ele>728.34</ele>
        <time>2025-09-17T07:32:17Z</time>
      </trkpt>
      <trkpt lat="44.29231" lon="2.72435">
        <ele>726.41</ele>
        <time>2025-09-17T07:32:00Z</time>
      </trkpt>
      <trkpt lat="44.29246" lon="2.72439">
        <ele>724.49</ele>
        <time>2025-09-17T07:31:44Z</time>
      </trkpt>
      <trkpt lat="44.29247" lon="2.7244">
        <ele>724.01</ele>
        <time>2025-09-17T07:31:42Z</time>
      </trkpt>
      <trkpt lat="44.29258" lon="2.72448">
        <ele>724.01</ele>
        <time>2025-09-17T07:31:28Z</time>
      </trkpt>
      <trkpt lat="44.29262" lon="2.72453">
        <ele>724.97</ele>
        <time>2025-09-17T07:31:21Z</time>
      </trkpt>
      <trkpt lat="44.29273" lon="2.72468">
        <ele>725.93</ele>
        <time>2025-09-17T07:31:09Z</time>
      </trkpt>
      <trkpt lat="44.29278" lon="2.72473">
        <ele>725.45</ele>
        <time>2025-09-17T07:31:04Z</time>
      </trkpt>
      <trkpt lat="44.29282" lon="2.72477">
        <ele>725.45</ele>
        <time>2025-09-17T07:31:00Z</time>
      </trkpt>
      <trkpt lat="44.29291" lon="2.72476">
        <ele>723.53</ele>
        <time>2025-09-17T07:30:49Z</time>
      </trkpt>
      <trkpt lat="44.29307" lon="2.72473">
        <ele>723.05</ele>
        <time>2025-09-17T07:30:38Z</time>
      </trkpt>
      <trkpt lat="44.29319" lon="2.72462">
        <ele>722.09</ele>
        <time>2025-09-17T07:30:31Z</time>
      </trkpt>
      <trkpt lat="44.29321" lon="2.72462">
        <ele>722.09</ele>
        <time>2025-09-17T07:30:29Z</time>
      </trkpt>
      <trkpt lat="44.29327" lon="2.72472">
        <ele>722.09</ele>
        <time>2025-09-17T07:30:15Z</time>
      </trkpt>
      <trkpt lat="44.29326" lon="2.72482">
        <ele>722.57</ele>
        <time>2025-09-17T07:30:11Z</time>
      </trkpt>
      <trkpt lat="44.29327" lon="2.72488">
        <ele>723.05</ele>
        <time>2025-09-17T07:30:09Z</time>
      </trkpt>
      <trkpt lat="44.29331" lon="2.72494">
        <ele>723.53</ele>
        <time>2025-09-17T07:30:05Z</time>
      </trkpt>
      <trkpt lat="44.2933" lon="2.72496">
        <ele>724.01</ele>
        <time>2025-09-17T07:29:57Z</time>
      </trkpt>
      <trkpt lat="44.29331" lon="2.72497">
        <ele>724.49</ele>
        <time>2025-09-17T07:29:39Z</time>
      </trkpt>
      <trkpt lat="44.29331" lon="2.72496">
        <ele>724.01</ele>
        <time>2025-09-17T07:29:11Z</time>
      </trkpt>
      <trkpt lat="44.29332" lon="2.72496">
        <ele>724.01</ele>
        <time>2025-09-17T07:28:58Z</time>
      </trkpt>
      <trkpt lat="44.29333" lon="2.72494">
        <ele>724.49</ele>
        <time>2025-09-17T07:28:45Z</time>
      </trkpt>
      <trkpt lat="44.29331" lon="2.72493">
        <ele>726.41</ele>
        <time>2025-09-17T07:28:21Z</time>
      </trkpt>
      <trkpt lat="44.29332" lon="2.72494">
        <ele>725.45</ele>
        <time>2025-09-17T07:27:59Z</time>
      </trkpt>
      <trkpt lat="44.29332" lon="2.72496">
        <ele>724.01</ele>
        <time>2025-09-17T07:27:39Z</time>
      </trkpt>
      <trkpt lat="44.29331" lon="2.72497">
        <ele>723.53</ele>
        <time>2025-09-17T07:27:25Z</time>
      </trkpt>
      <trkpt lat="44.2933" lon="2.72497">
        <ele>723.53</ele>
        <time>2025-09-17T07:27:11Z</time>
      </trkpt>
      <trkpt lat="44.29331" lon="2.725">
        <ele>724.01</ele>
        <time>2025-09-17T07:26:59Z</time>
      </trkpt>
      <trkpt lat="44.29329" lon="2.72501">
        <ele>722.09</ele>
        <time>2025-09-17T07:26:46Z</time>
      </trkpt>
      <trkpt lat="44.29328" lon="2.72507">
        <ele>722.57</ele>
        <time>2025-09-17T07:26:28Z</time>
      </trkpt>
      <trkpt lat="44.29329" lon="2.72505">
        <ele>722.57</ele>
        <time>2025-09-17T07:26:08Z</time>
      </trkpt>
      <trkpt lat="44.2933" lon="2.72506">
        <ele>724.49</ele>
        <time>2025-09-17T07:25:46Z</time>
      </trkpt>
      <trkpt lat="44.29328" lon="2.72502">
        <ele>722.09</ele>
        <time>2025-09-17T07:25:30Z</time>
      </trkpt>
      <trkpt lat="44.29327" lon="2.72505">
        <ele>721.13</ele>
        <time>2025-09-17T07:25:16Z</time>
      </trkpt>
      <trkpt lat="44.29325" lon="2.72509">
        <ele>720.16</ele>
        <time>2025-09-17T07:25:02Z</time>
      </trkpt>
      <trkpt lat="44.29326" lon="2.72508">
        <ele>717.76</ele>
        <time>2025-09-17T07:24:48Z</time>
      </trkpt>
      <trkpt lat="44.29324" lon="2.72497">
        <ele>718.24</ele>
        <time>2025-09-17T07:24:33Z</time>
      </trkpt>
      <trkpt lat="44.29326" lon="2.72498">
        <ele>721.61</ele>
        <time>2025-09-17T07:24:13Z</time>
      </trkpt>
      <trkpt lat="44.29325" lon="2.72505">
        <ele>722.57</ele>
        <time>2025-09-17T07:23:53Z</time>
      </trkpt>
      <trkpt lat="44.29325" lon="2.72505">
        <ele>722.57</ele>
        <time>2025-09-17T07:23:36Z</time>
      </trkpt>
      <trkpt lat="44.29324" lon="2.72503">
        <ele>722.57</ele>
        <time>2025-09-17T07:23:21Z</time>
      </trkpt>
      <trkpt lat="44.29324" lon="2.72502">
        <ele>723.05</ele>
        <time>2025-09-17T07:23:07Z</time>
      </trkpt>
      <trkpt lat="44.29327" lon="2.72505">
        <ele>723.53</ele>
        <time>2025-09-17T07:22:49Z</time>
      </trkpt>
      <trkpt lat="44.29329" lon="2.72505">
        <ele>724.97</ele>
        <time>2025-09-17T07:22:26Z</time>
      </trkpt>
      <trkpt lat="44.29331" lon="2.72498">
        <ele>727.86</ele>
        <time>2025-09-17T07:22:06Z</time>
      </trkpt>
      <trkpt lat="44.29334" lon="2.72498">
        <ele>727.37</ele>
        <time>2025-09-17T07:21:47Z</time>
      </trkpt>
      <trkpt lat="44.29336" lon="2.72497">
        <ele>726.89</ele>
        <time>2025-09-17T07:21:20Z</time>
      </trkpt>
      <trkpt lat="44.29335" lon="2.72498">
        <ele>725.93</ele>
        <time>2025-09-17T07:21:03Z</time>
      </trkpt>
      <trkpt lat="44.29327" lon="2.72487">
        <ele>725.45</ele>
        <time>2025-09-17T07:20:51Z</time>
      </trkpt>
      <trkpt lat="44.29326" lon="2.72484">
        <ele>725.45</ele>
        <time>2025-09-17T07:20:46Z</time>
      </trkpt>
      <trkpt lat="44.29325" lon="2.72475">
        <ele>727.37</ele>
        <time>2025-09-17T07:20:33Z</time>
      </trkpt>
      <trkpt lat="44.29323" lon="2.72474">
        <ele>728.34</ele>
        <time>2025-09-17T07:20:24Z</time>
      </trkpt>
      <trkpt lat="44.29319" lon="2.72472">
        <ele>725.45</ele>
        <time>2025-09-17T07:20:09Z</time>
      </trkpt>
      <trkpt lat="44.29313" lon="2.72467">
        <ele>724.01</ele>
        <time>2025-09-17T07:19:55Z</time>
      </trkpt>
      <trkpt lat="44.29309" lon="2.72471">
        <ele>721.61</ele>
        <time>2025-09-17T07:19:12Z</time>
      </trkpt>
      <trkpt lat="44.2931" lon="2.72476">
        <ele>726.89</ele>
        <time>2025-09-17T07:18:52Z</time>
      </trkpt>
      <trkpt lat="44.29306" lon="2.72483">
        <ele>734.1</ele>
        <time>2025-09-17T07:18:34Z</time>
      </trkpt>
      <trkpt lat="44.29297" lon="2.72485">
        <ele>755.25</ele>
        <time>2025-09-17T07:18:12Z</time>
      </trkpt>
      <trkpt lat="44.29337" lon="2.72493">
        <ele>720.16</ele>
        <time>2025-09-16T15:14:34Z</time>
      </trkpt>
      <trkpt lat="44.29337" lon="2.72493">
        <ele>720.16</ele>
        <time>2025-09-16T15:14:33Z</time>
      </trkpt>
      <trkpt lat="44.29341" lon="2.72493">
        <ele>720.65</ele>
        <time>2025-09-16T15:14:09Z</time>
      </trkpt>
      <trkpt lat="44.29343" lon="2.72491">
        <ele>719.2</ele>
        <time>2025-09-16T15:13:43Z</time>
      </trkpt>
    </trkseg>
  </trk>
</gpx>